GFSCGP_250_rhum_000.txt.gz
RH
18 18 24 31 28 23 34 55 100 100 90 47 23 22 20 24 40 37 59 85 86 100 100 95 74 54 37 28 33 45 46 32 36 50 56 61 55 58 55 49 47 49 49 46
19 19 24 26 26 32 43 50 100 100 67 43 25 23 18 20 33 32 60 60 78 84 82 64 44 32 30 34 46 44 39 47 57 63 69 72 65 43 35 36 40 40 41 48
24 23 23 26 29 31 42 88 100 100 69 33 26 26 21 25 22 20 23 30 34 31 32 34 34 35 43 49 47 46 50 52 61 68 67 65 54 53 46 44 44 44 50 66
28 22 32 34 28 47 70 100 100 89 61 35 33 28 20 22 23 29 28 28 32 35 36 41 44 45 40 41 48 47 49 55 59 62 63 56 60 53 52 58 64 62 69 70
32 36 32 28 31 56 99 100 100 86 55 39 37 30 26 24 27 25 26 31 38 39 35 34 34 36 36 35 39 49 55 60 58 52 47 47 48 47 47 51 64 61 68 56
40 32 37 70 90 100 100 100 98 80 52 36 38 30 26 30 28 30 37 35 33 31 32 32 33 35 40 51 56 52 50 45 44 46 59 67 64 62 64 61 60 58 67 74
57 99 99 100 100 100 100 96 94 70 48 44 35 38 30 34 32 33 32 32 34 40 44 46 46 52 56 59 55 58 62 62 68 71 64 66 71 58 51 58 67 58 48 40
100 100 100 100 100 100 100 96 95 76 50 57 49 47 56 37 40 41 39 39 43 45 51 60 62 61 63 55 51 60 76 84 77 76 79 60 47 42 67 90 53 65 46 52
100 100 100 100 100 100 100 100 100 74 51 47 64 51 46 50 36 40 42 49 50 53 70 75 76 69 69 67 57 52 68 80 69 56 53 48 49 66 58 51 60 82 61 44
100 100 100 100 100 100 100 100 98 75 53 44 45 46 41 47 47 49 51 65 78 76 73 70 69 69 59 51 54 55 58 57 60 62 63 61 60 62 63 76 88 93 82 60
100 100 100 100 100 100 100 100 98 83 72 58 51 47 47 51 57 63 70 75 84 82 68 62 73 71 64 61 64 65 62 62 67 72 77 84 87 89 96 100 100 92 78 68
100 100 100 100 100 100 100 100 100 100 99 82 80 90 63 66 70 73 65 68 74 74 71 73 80 87 89 87 87 98 99 100 100 100 100 100 100 100 100 100 90 77 80 69
100 100 100 100 100 100 100 100 100 100 100 81 83 94 76 74 68 65 62 69 92 89 85 79 85 95 95 99 100 100 100 100 100 99 98 98 100 94 76 62 58 61 59 74
95 83 94 100 100 100 100 100 100 100 100 100 100 100 100 100 100 100 89 78 73 90 98 88 78 76 79 85 86 86 84 84 81 83 86 76 67 63 62 53 52 55 47 41
100 100 99 100 98 100 100 100 100 100 100 100 100 100 100 100 100 100 100 100 99 95 99 100 100 100 88 85 93 95 93 94 87 79 74 68 60 55 47 42 36 30 29 42
100 100 100 100 100 97 100 100 100 100 100 100 100 100 100 100 100 100 100 100 100 100 100 100 100 100 100 98 93 94 97 89 79 67 56 50 36 31 28 25 24 28 26 28
94 86 98 91 99 100 100 100 100 100 100 100 100 100 100 100 100 100 100 100 99 98 99 99 94 89 78 68 66 61 52 44 38 36 34 33 28 28 28 31 29 26 20 19
100 99 100 100 96 100 100 100 96 90 98 93 87 98 95 100 100 100 96 99 95 90 93 87 79 70 63 55 49 41 38 34 30 25 26 28 29 29 30 28 24 24 25 25
78 79 81 80 80 74 84 98 98 96 100 90 86 86 81 84 88 86 73 67 67 64 57 51 48 48 39 32 29 26 25 26 24 26 30 28 29 27 26 23 20 18 17 17
56 56 62 66 80 96 94 89 89 86 80 86 95 96 92 81 73 68 63 58 51 47 44 37 32 28 28 28 30 29 32 35 36 33 30 23 20 16 13 12 11 11 11 9
69 74 81 76 74 95 91 91 99 99 92 91 91 81 70 68 64 54 40 37 37 35 43 52 56 60 56 49 43 38 30 27 26 22 21 18 16 12 10 10 9 8 9 9
62 60 54 55 54 69 80 80 66 56 53 51 48 46 42 37 31 32 38 47 57 62 55 44 36 30 28 28 25 23 23 28 20 16 12 11 10 12 13 11 10 10 9 10
48 40 52 48 52 46 52 50 43 41 42 42 50 48 40 36 38 47 53 44 40 37 32 28 25 26 30 29 23 21 21 18 14 14 13 12 11 10 9 10 9 10 9 10
73 69 81 65 79 67 48 44 39 36 40 39 37 38 38 38 36 34 33 30 27 26 26 24 26 25 23 19 18 14 12 12 11 9 9 9 10 10 6 5 5 6 6 6
58 66 57 52 49 41 41 45 46 42 38 34 34 35 36 33 32 33 35 34 33 30 22 20 19 16 12 10 9 7 7 6 7 7 7 7 6 5 5 5 5 5 5 5
48 52 55 54 60 57 54 46 42 38 33 30 30 33 34 34 33 37 44 42 38 18 17 19 16 10 6 6 6 6 6 6 6 6 6 5 5 5 5 6 7 9 8 8

GFSCGP_250_rhum_003.txt.gz
RH
12 13 15 24 28 22 29 23 19 22 35 69 91 86 88 28 21 32 59 62 72 88 99 100 100 94 94 93 95 85 64 48 34 41 42 42 52 60 68 73 59 46 40 36
12 12 18 23 24 28 29 21 18 24 40 64 99 83 71 34 23 28 52 70 74 88 99 91 84 72 64 71 64 39 29 30 41 43 48 54 61 59 62 58 50 40 34 34
11 16 20 22 26 29 26 20 21 29 42 94 84 98 71 29 21 22 38 72 78 92 87 69 68 67 68 57 43 36 32 42 45 46 46 51 64 66 56 50 41 37 37 40
13 14 19 20 27 23 22 24 21 22 38 93 84 93 58 24 22 25 25 39 43 40 59 64 48 46 38 37 34 37 43 42 41 48 56 61 60 58 50 46 43 41 42 43
14 16 19 22 26 24 26 25 21 20 79 88 83 94 36 24 26 28 32 24 31 47 35 38 38 40 43 46 46 43 39 44 46 47 54 55 52 50 45 38 37 38 37 62
23 19 22 22 23 25 25 23 21 26 81 84 99 85 32 32 33 32 42 41 37 38 44 50 51 47 45 45 47 48 47 46 50 54 52 50 46 44 43 41 38 47 74 62
24 21 25 25 24 25 23 23 21 45 96 98 99 79 34 40 38 36 38 46 48 50 49 46 48 50 54 60 60 56 52 54 53 51 52 51 51 50 52 62 78 83 56 48
26 27 25 24 26 26 22 22 33 60 100 100 99 74 39 44 52 52 49 52 48 45 48 47 48 51 55 62 65 65 57 55 57 57 50 46 42 46 59 80 60 55 61 69
34 33 35 48 41 38 23 46 72 66 100 100 100 69 47 46 54 56 58 69 69 57 56 60 66 63 61 58 58 61 62 61 58 61 63 61 56 55 56 56 60 63 75 83
32 34 40 40 36 33 67 93 93 100 100 100 96 67 52 51 46 65 84 69 62 58 58 60 55 61 70 73 83 86 86 80 74 76 76 75 73 73 71 72 75 72 74 86
60 65 54 46 57 99 100 100 100 100 100 100 93 76 54 48 43 45 54 69 76 72 60 59 68 88 99 100 99 92 85 84 78 68 63 61 60 59 61 65 68 76 81 83
100 100 98 100 100 100 100 100 100 100 100 100 96 83 70 52 48 50 52 56 62 69 84 95 96 91 84 86 84 72 67 63 56 59 69 75 77 77 84 97 99 99 100 97
100 100 100 100 100 100 100 100 100 100 100 100 100 99 90 83 72 76 84 91 97 95 91 88 82 74 72 64 61 59 60 70 82 86 95 98 94 98 99 98 95 89 76 76
100 100 100 100 100 100 100 100 100 100 100 100 100 100 100 100 100 100 97 90 86 83 77 70 62 55 50 58 74 78 81 85 86 86 84 89 97 97 100 93 72 58 50 41
100 100 100 100 100 100 100 100 100 100 100 100 100 100 100 97 88 89 88 84 78 64 63 68 77 84 97 100 100 100 100 95 99 100 95 84 70 61 54 50 46 42 36 32
100 100 97 100 100 98 94 94 95 95 90 91 84 84 85 100 100 97 85 79 80 88 86 93 99 92 84 91 91 86 83 77 74 68 57 49 48 46 40 41 43 41 37 31
100 100 100 100 100 100 100 96 87 76 73 73 83 98 100 94 90 92 97 88 79 81 89 88 80 80 82 78 73 67 61 57 53 53 58 52 42 35 34 32 31 27 26 24
100 98 98 100 100 100 96 98 99 96 90 88 95 92 97 100 96 87 86 86 95 88 80 84 85 73 64 59 61 60 56 53 54 55 47 42 39 35 34 30 23 20 17 16
96 100 94 97 100 100 100 100 99 100 100 97 99 100 93 78 66 67 74 78 80 76 68 55 51 54 56 58 56 54 50 50 47 41 34 31 28 24 21 20 17 16 13 10
75 78 83 76 84 91 99 99 98 100 98 85 68 55 52 56 63 72 85 76 61 59 58 62 62 54 49 43 40 37 36 33 32 26 24 23 19 16 15 14 13 12 11 10
57 65 76 74 72 71 72 66 61 55 58 64 75 78 60 52 72 78 69 60 58 56 51 40 37 37 35 40 42 44 38 34 29 27 25 19 16 13 12 12 10 9 9 8
71 70 73 93 96 82 75 71 80 82 68 52 43 49 59 64 62 60 53 44 39 35 32 30 33 38 44 53 52 40 32 29 21 17 15 13 10 8 8 7 6 5 5 5
75 87 98 100 92 84 77 66 58 62 68 66 59 59 50 44 34 30 33 30 28 28 31 35 42 52 58 55 39 33 21 14 10 9 7 7 7 6 6 5 4 4 4 4
74 74 82 88 78 72 69 64 54 51 52 46 37 27 23 28 29 28 27 27 30 34 44 57 65 61 57 48 27 13 9 6 5 6 6 6 6 6 5 4 4 4 4 4
60 68 68 70 63 57 50 43 35 29 25 27 30 31 35 35 33 31 30 36 44 51 67 83 83 79 58 35 13 6 5 6 6 6 8 7 6 5 5 5 4 4 4 4
62 64 59 60 55 54 58 54 41 44 45 44 44 40 36 31 33 42 46 50 62 88 86 91 86 62 23 15 8 7 7 7 8 8 6 5 5 5 5 5 6 6 6 5

GFSCGP_250_rhum_006.txt.gz
RH
19 18 18 22 26 22 22 24 24 30 28 20 17 31 59 83 88 86 63 24 24 45 36 40 44 52 53 57 64 72 89 100 100 100 82 88 40 40 46 41 50 60 64 74
16 16 21 23 19 21 21 22 25 29 27 18 20 37 80 82 82 78 54 26 22 52 55 72 82 85 89 90 90 94 99 97 89 84 50 32 38 43 51 57 60 61 60 55
18 19 22 22 19 21 21 23 25 29 26 18 24 36 78 83 71 69 51 27 20 36 64 77 93 98 99 98 93 87 84 82 70 52 38 33 39 46 47 50 52 55 56 51
16 20 14 17 18 21 20 23 26 30 26 19 41 61 76 81 72 76 45 27 21 22 41 55 74 91 97 100 100 95 84 69 50 43 41 43 50 41 42 44 44 48 51 48
13 12 12 14 18 20 20 23 26 27 26 19 34 62 81 88 66 68 36 24 24 27 37 47 66 84 98 100 86 53 40 39 38 38 50 57 55 50 45 42 47 49 50 50
13 14 14 18 18 20 21 22 27 27 24 20 23 68 88 85 69 58 32 31 32 34 31 40 64 77 75 47 43 46 49 48 48 49 47 46 47 52 59 64 63 60 55 52
12 12 13 16 17 19 25 23 24 27 26 21 26 93 100 91 68 62 37 34 35 38 37 36 41 44 44 51 53 54 51 47 46 52 59 63 63 61 55 51 50 49 49 50
12 11 13 15 16 20 25 24 21 26 25 22 28 97 100 94 68 67 41 37 35 38 48 51 53 56 55 57 62 57 56 58 58 62 67 76 79 68 67 66 64 64 68 71
12 14 18 18 17 23 27 26 24 27 25 22 43 100 100 99 69 72 48 38 42 47 50 51 54 53 65 80 75 80 85 83 83 77 71 70 76 68 64 68 69 68 66 65
14 15 15 17 21 25 26 25 26 24 23 31 53 100 100 100 95 76 57 44 48 54 53 58 66 79 91 90 86 78 69 67 74 76 78 78 74 74 72 68 65 62 58 54
23 25 24 23 26 29 26 27 27 24 23 42 68 100 100 100 100 90 64 54 49 49 51 57 69 73 76 81 80 76 86 93 82 78 76 72 68 63 63 67 67 66 64 61
25 26 24 24 23 24 27 29 29 29 37 59 84 100 100 100 100 100 82 64 62 60 62 65 65 61 60 67 79 87 85 84 84 78 74 74 76 70 67 67 72 80 90 88
38 35 31 28 30 35 34 37 33 29 60 93 100 100 100 100 100 100 100 92 81 79 91 100 100 97 92 91 88 79 74 68 63 73 75 66 65 67 80 83 92 97 88 73
38 37 42 46 42 36 32 30 41 99 100 99 100 100 100 100 100 100 100 100 100 100 100 100 92 81 71 60 53 60 66 72 63 57 60 67 88 98 100 95 80 64 56 50
90 83 78 66 43 43 49 92 100 100 100 100 100 100 100 100 100 100 100 100 100 91 77 65 59 53 57 69 74 67 62 63 78 97 100 100 89 70 56 52 48 47 43 39
100 100 100 100 97 100 100 100 100 100 100 100 100 100 100 100 100 93 83 72 61 60 58 55 55 60 58 50 44 54 80 88 80 65 53 52 56 49 49 44 44 38 34 32
100 99 100 100 100 100 100 100 100 100 100 100 100 99 92 83 73 63 59 57 56 50 48 55 66 54 44 62 68 65 64 55 52 49 49 48 50 46 44 39 37 34 31 26
100 98 94 96 89 94 94 95 96 94 96 97 93 90 84 83 81 74 66 58 59 72 79 59 48 55 67 77 75 66 53 46 43 43 42 43 43 39 34 32 31 27 23 19
94 95 100 100 100 100 100 100 100 96 94 100 100 98 91 89 83 71 62 69 75 60 51 46 47 50 53 56 48 42 39 37 40 43 44 45 45 42 33 33 28 21 15 11
100 100 100 100 100 100 100 100 100 100 100 99 93 89 79 70 73 79 78 68 48 49 46 42 47 47 41 35 37 36 42 53 56 56 57 44 37 32 20 18 14 12 9 6
85 93 95 99 100 100 100 100 96 89 81 82 76 66 60 64 63 54 45 58 59 50 53 42 37 33 35 41 51 62 62 64 66 61 50 38 23 14 11 8 6 6 6 6
54 68 76 76 74 72 68 62 62 66 68 69 67 61 58 67 74 78 68 61 48 40 38 35 32 33 42 53 56 54 63 76 73 62 36 16 10 8 7 6 7 7 6 4
70 71 66 66 64 76 79 80 80 75 73 75 90 99 93 77 68 55 42 36 36 32 30 29 34 43 60 73 74 78 84 68 59 32 13 8 7 8 8 7 6 4 4 3
86 86 100 90 83 87 94 97 100 99 90 92 91 73 60 53 40 29 27 26 21 26 34 41 48 64 74 81 72 71 73 60 26 12 8 8 8 8 6 5 4 4 4 3
81 90 90 89 85 85 84 94 96 91 76 61 52 46 39 37 28 21 20 22 25 32 45 55 60 69 80 74 77 78 45 22 13 11 9 9 8 6 5 4 4 4 4 3
99 100 100 100 94 88 75 64 60 53 44 42 44 45 43 34 25 27 25 25 38 59 63 60 71 79 92 91 78 46 28 16 11 10 9 8 6 4 4 4 4 5 4 4

GFSCGP_250_rhum_009.txt.gz
RH
20 23 28 34 45 45 32 24 29 27 26 18 15 18 32 32 39 76 88 99 83 56 27 18 27 29 26 27 18 28 35 42 50 65 77 91 100 100 89 89 90 50 40 45
19 21 25 30 37 31 30 28 33 29 27 21 17 22 34 33 64 75 87 94 75 49 26 22 38 37 34 44 47 52 61 70 77 90 94 94 93 92 91 60 37 34 39 42
22 22 22 29 35 34 30 40 36 28 25 24 18 27 34 59 71 68 79 85 73 46 25 22 29 46 56 69 83 94 99 100 100 97 94 94 92 82 60 47 33 33 40 44
22 22 22 27 34 34 31 35 26 24 24 24 22 26 33 36 89 64 59 75 63 43 27 22 21 26 47 54 74 85 89 95 98 95 85 80 76 64 43 35 35 39 47 45
17 19 20 26 31 30 34 25 25 22 22 23 22 27 35 38 66 75 59 66 56 47 26 23 24 25 34 60 81 97 95 100 100 97 90 63 47 44 46 48 51 50 45 43
22 22 21 27 31 29 20 24 26 22 21 26 23 30 37 44 67 68 58 62 56 46 24 25 28 33 31 41 54 73 96 99 81 49 52 60 68 71 73 82 86 86 86 86
20 23 21 26 29 23 20 22 24 23 22 28 22 35 37 44 52 70 59 58 48 51 29 30 31 32 29 27 30 42 51 48 54 62 64 63 64 72 86 85 90 88 89 92
19 14 19 23 24 24 22 20 21 20 21 25 23 37 44 61 63 58 66 57 50 54 42 35 34 35 37 38 40 48 58 61 60 63 62 64 68 66 67 72 80 84 87 91
15 20 24 27 26 22 21 21 21 20 19 23 25 32 38 46 52 56 60 76 71 59 55 44 40 42 43 49 58 58 56 57 61 65 71 76 77 72 68 75 82 80 79 79
15 19 20 20 19 17 16 19 19 18 18 25 27 30 32 38 47 44 58 73 90 71 65 54 48 46 48 52 56 56 57 61 66 68 66 63 68 84 88 82 74 67 58 60
14 15 15 15 15 15 16 17 18 19 19 27 26 28 28 36 45 65 78 70 85 88 80 71 60 56 58 56 53 61 69 70 74 90 97 95 88 70 61 60 62 64 67 74
14 14 14 14 15 15 15 16 16 17 22 29 26 28 27 28 36 49 100 98 85 93 100 90 82 75 72 78 79 77 95 99 87 77 73 61 54 55 57 61 68 80 88 100
19 17 15 14 13 14 15 16 18 17 22 29 26 28 27 26 50 86 100 100 93 99 100 100 100 100 100 99 93 95 91 76 68 63 59 55 58 59 66 93 100 100 98 76
19 19 19 17 19 17 20 21 19 23 30 29 27 28 29 29 74 100 100 100 100 100 100 100 100 100 93 95 100 85 70 62 54 54 56 57 65 90 100 100 88 71 56 48
26 22 22 19 18 17 16 18 24 30 27 26 31 35 29 72 100 100 100 100 100 100 100 100 100 100 90 76 67 58 51 49 52 56 54 63 75 77 58 45 43 38 36 39
32 29 30 30 29 29 29 28 27 26 30 44 38 54 91 100 100 100 100 100 100 100 100 87 78 66 58 54 52 41 42 49 58 61 63 50 41 40 37 48 46 51 49 40
49 55 53 50 42 42 46 48 48 49 46 50 97 100 100 100 99 100 100 99 91 80 67 59 56 56 52 45 43 49 59 66 62 46 38 33 34 44 53 63 66 67 50 40
63 41 52 51 50 47 74 73 75 74 96 100 100 100 97 95 94 98 84 72 65 56 58 57 56 51 48 54 64 71 62 45 43 35 34 43 50 59 73 79 62 47 37 26
100 98 98 90 81 98 88 95 100 100 100 100 100 96 95 87 78 68 69 64 61 65 62 52 49 59 69 66 59 47 36 29 30 36 40 50 63 70 74 58 41 31 20 15
100 100 100 100 100 100 100 98 88 86 84 92 87 88 89 88 83 77 69 65 58 54 57 75 86 74 61 43 35 32 28 28 36 50 57 61 67 71 66 42 24 17 12 10
74 68 80 80 83 96 100 100 95 98 100 99 99 100 100 96 80 68 61 67 84 97 97 81 68 51 44 34 32 34 32 34 51 63 75 75 72 65 38 19 12 10 7 6
100 100 100 100 100 100 100 100 100 99 100 100 95 77 58 57 60 65 86 95 93 86 73 56 47 36 35 37 36 34 44 53 66 74 79 75 56 38 18 11 9 7 7 6
93 98 86 86 97 100 98 96 99 94 87 77 66 68 75 83 92 93 78 79 64 61 55 43 40 49 40 36 38 51 62 71 79 77 64 51 40 18 10 9 7 8 6 4
71 93 100 100 100 81 85 97 82 75 71 74 93 95 88 77 76 76 78 68 58 51 43 49 42 34 30 41 48 57 66 76 81 69 61 49 20 11 9 8 8 6 4 3
62 64 80 86 92 90 97 91 97 98 95 88 84 76 70 78 92 71 58 57 52 48 43 37 32 31 38 42 52 63 75 84 70 65 45 26 12 9 9 9 6 4 4 4
70 96 99 86 77 82 89 96 99 89 81 85 86 94 92 70 57 54 52 51 49 41 32 30 32 35 40 48 57 73 82 70 66 42 24 13 8 8 8 6 5 6 5 4

GFSCGP_250_rhum_012.txt.gz
RH
20 21 27 30 43 41 43 41 33 44 30 26 27 26 23 19 16 22 28 59 100 100 100 88 71 46 24 18 22 30 28 22 25 27 28 40 48 60 71 73 88 96 88 82
19 20 31 33 34 32 28 33 47 40 34 24 24 28 26 20 16 20 28 56 100 100 100 86 68 39 20 17 22 31 34 38 39 44 48 57 72 85 93 92 91 84 72 69
18 22 32 30 36 36 34 42 43 42 36 22 24 29 28 22 17 23 27 65 100 100 95 74 63 35 20 19 22 35 44 54 66 70 70 74 79 89 90 78 74 76 71 61
19 21 29 27 34 35 38 45 42 39 39 24 31 33 29 25 19 21 28 39 99 100 80 68 60 42 23 21 22 25 38 58 66 77 84 94 100 96 81 71 58 45 40 40
18 20 29 24 32 33 39 38 38 37 39 30 30 38 31 26 21 21 29 27 81 100 89 70 55 39 24 21 22 25 35 55 64 65 74 89 88 77 67 47 48 49 49 51
20 20 22 24 30 32 32 33 34 38 38 36 30 43 26 26 22 21 25 28 42 100 89 72 54 42 27 22 27 31 31 34 51 63 78 86 80 58 55 63 65 71 74 82
18 20 23 26 25 27 27 27 34 38 38 37 26 34 32 28 21 23 27 31 35 99 95 72 50 46 35 24 28 33 37 35 34 37 47 49 53 68 66 70 85 87 84 76
20 17 21 21 23 25 26 28 32 35 36 32 24 31 33 28 21 23 30 27 30 90 100 88 56 46 42 34 32 36 39 39 43 50 60 67 62 64 69 65 61 61 59 62
20 25 25 24 24 24 25 26 28 33 31 29 27 28 30 26 22 21 24 29 37 50 100 93 69 63 54 46 43 42 44 46 52 58 57 55 55 57 63 71 77 84 83 85
21 25 26 25 24 25 25 26 26 31 33 30 27 26 26 24 21 20 22 28 35 40 68 94 67 71 71 63 59 58 60 66 71 70 72 76 77 88 90 96 89 72 64 61
18 22 24 23 24 24 26 26 26 29 35 30 28 26 23 22 19 21 23 28 31 44 55 45 73 80 92 86 88 87 89 91 92 95 94 96 100 100 98 75 54 51 62 63
16 17 18 21 23 22 26 26 24 29 33 26 25 25 22 19 17 24 28 28 29 28 30 33 46 99 100 100 100 100 100 100 99 95 100 100 94 82 62 50 56 60 68 77
16 16 17 19 20 21 24 24 25 28 28 23 21 23 18 17 18 26 29 28 28 26 36 62 79 100 100 100 100 100 90 88 92 87 86 86 70 57 56 59 66 73 79 57
17 17 18 21 24 23 23 24 24 25 22 20 20 20 18 18 20 31 30 30 33 34 46 89 100 100 100 100 90 84 96 88 83 85 71 57 62 66 68 72 77 62 39 34
19 19 18 19 19 17 18 18 16 16 17 17 19 19 18 21 26 33 31 32 32 35 83 100 100 100 99 95 99 91 85 77 71 60 68 70 66 67 70 63 43 34 29 33
21 19 17 16 16 15 16 15 15 17 17 18 18 16 20 25 36 36 33 37 44 67 100 100 100 100 100 92 81 72 70 71 65 71 65 64 65 63 40 36 33 30 39 49
26 25 22 20 18 18 19 20 19 19 18 19 24 26 26 35 38 35 40 57 78 77 98 92 100 92 81 77 66 60 60 70 72 66 66 68 47 37 32 31 38 49 55 60
39 38 33 30 25 27 29 23 24 25 27 29 33 35 36 37 42 53 58 68 70 94 100 97 80 69 65 60 56 60 64 71 73 72 57 44 35 30 36 44 49 54 59 59
46 50 41 30 28 34 31 33 34 34 38 39 43 46 45 54 58 71 71 72 100 99 87 70 64 62 60 52 68 84 84 80 67 49 39 30 31 37 43 42 48 60 73 78
65 51 51 48 48 43 37 38 46 50 46 48 44 44 68 79 81 77 83 78 72 70 73 66 67 67 75 89 82 78 71 56 49 34 37 37 36 38 40 48 62 71 71 46
100 100 98 99 93 92 85 68 76 78 98 95 86 93 93 79 74 66 67 78 89 89 72 72 87 89 79 82 72 61 56 43 43 50 44 35 37 40 49 53 65 66 36 19
100 100 100 100 100 100 100 96 93 95 95 87 93 85 86 88 94 92 92 96 98 95 88 86 90 89 80 70 61 51 45 53 49 42 41 37 40 47 61 71 68 47 18 12
70 78 81 79 89 82 82 93 95 100 88 78 76 68 66 79 87 93 99 100 97 81 82 80 81 75 65 55 46 48 54 51 49 44 37 43 53 61 70 66 50 26 14 9
99 100 93 81 84 78 82 79 85 97 89 84 81 88 97 100 100 100 96 74 74 77 85 91 81 66 48 43 44 51 53 50 40 38 45 51 63 70 71 55 30 14 10 7
54 66 83 99 100 100 100 100 97 95 92 92 95 100 100 100 93 78 82 81 83 96 90 74 54 43 48 56 53 43 38 37 39 46 50 60 67 68 57 42 19 11 8 6
51 59 70 69 73 88 100 100 98 96 91 92 98 97 86 75 83 84 87 98 97 82 58 42 45 56 56 46 38 39 41 42 46 51 59 67 70 59 39 22 13 9 8 7

GFSCGP_250_rhum_015.txt.gz
RH
16 16 21 26 31 32 49 39 32 20 45 46 32 20 25 25 22 19 17 16 22 26 45 99 100 100 80 77 46 36 20 20 24 28 31 25 29 26 29 37 42 54 66 76
15 17 24 25 30 27 36 41 32 23 55 49 41 23 23 27 21 20 18 17 21 25 38 80 100 98 80 72 48 30 20 20 24 27 37 48 48 50 51 59 69 85 96 88
16 19 25 22 27 24 34 44 31 25 58 43 42 30 27 25 20 21 18 18 20 24 31 78 100 100 85 66 60 44 26 18 22 29 40 54 64 74 80 86 91 94 87 82
15 24 24 22 28 28 38 45 28 25 46 39 46 38 31 25 24 22 21 20 18 20 29 61 100 100 93 67 50 44 31 22 24 28 50 66 69 74 79 83 82 81 76 64
15 26 24 23 30 33 43 40 30 27 38 33 50 52 39 28 30 31 25 21 21 19 22 34 97 100 92 71 50 41 31 24 26 28 29 35 43 51 58 63 66 60 54 51
18 24 24 25 28 30 32 30 36 34 36 42 43 52 34 35 39 34 26 24 21 17 19 26 40 99 93 89 55 41 36 31 28 29 29 31 32 35 38 42 47 51 59 61
21 32 24 26 27 29 29 33 35 38 40 50 44 53 31 38 33 29 29 25 23 22 21 20 26 43 85 100 81 54 43 38 34 32 37 40 43 47 53 59 66 69 71 70
20 26 27 23 23 30 31 34 39 42 46 47 41 53 40 34 30 29 26 24 23 23 26 24 24 23 30 71 93 78 62 51 49 51 53 55 59 63 68 74 79 82 80 78
24 33 28 24 22 27 28 28 38 39 39 46 41 45 48 36 31 27 26 25 25 24 23 24 22 24 27 30 65 98 87 73 67 69 70 77 83 86 90 91 91 92 97 100
23 31 32 24 20 18 27 29 28 34 34 35 43 39 41 36 30 25 24 26 25 25 22 18 20 22 25 27 46 62 81 82 93 90 92 95 95 98 97 90 85 91 99 98
22 28 30 24 21 21 25 28 28 33 33 33 36 38 33 34 30 28 26 26 25 23 22 18 21 25 25 26 30 64 71 73 84 94 97 98 98 97 87 77 84 92 88 74
22 28 32 27 24 23 23 26 27 27 27 26 28 32 31 32 33 30 28 27 25 22 21 19 25 28 28 30 33 44 69 82 88 94 100 100 97 84 79 79 73 68 58 56
20 23 30 28 25 22 21 23 25 27 29 29 29 37 33 27 27 32 30 27 24 22 20 20 24 28 28 30 30 35 78 84 84 95 100 92 82 85 80 69 61 58 64 62
18 20 23 29 34 35 33 30 28 24 24 28 29 30 27 24 29 34 29 24 22 20 21 21 28 31 31 29 30 34 52 60 87 99 91 87 82 76 71 59 64 65 69 71
16 17 18 23 28 28 29 30 29 26 26 23 27 27 28 31 32 32 26 21 20 21 23 23 26 30 35 35 30 32 53 80 98 94 84 86 78 72 78 65 59 70 67 55
17 18 17 18 20 23 24 24 24 25 26 27 29 29 28 27 28 25 22 20 21 23 24 24 30 39 37 35 34 44 90 99 89 81 80 93 89 68 52 55 60 59 55 47
14 17 20 20 18 18 19 20 20 20 22 25 28 29 26 26 24 21 22 24 24 26 26 31 39 39 36 40 58 93 99 89 84 88 100 81 67 50 58 59 58 52 34 29
19 18 19 19 19 21 20 18 20 22 23 22 24 23 22 21 21 22 23 25 29 38 40 41 40 45 60 82 100 96 87 95 99 89 65 54 54 56 56 52 36 31 34 39
25 26 26 25 26 25 23 22 20 20 19 19 20 22 21 22 24 28 33 39 44 42 42 46 54 72 84 83 88 85 95 98 91 63 54 58 59 56 44 39 35 38 41 43
37 33 28 25 25 26 24 24 24 22 24 25 25 26 24 22 26 31 34 40 41 50 59 73 80 77 68 80 100 99 97 86 59 58 60 58 48 39 38 42 40 40 46 44
73 66 51 48 55 58 47 40 32 29 33 27 31 33 35 38 42 47 49 55 79 87 88 86 77 81 82 97 100 95 75 62 62 62 51 43 39 39 40 41 44 46 45 45
80 74 70 68 68 70 55 50 52 65 69 63 58 69 75 71 72 73 92 100 89 66 72 70 84 96 100 95 87 71 67 64 52 44 41 40 42 42 44 47 50 47 45 54
100 100 94 100 100 100 100 98 82 84 82 91 96 80 85 92 80 68 78 73 68 69 91 93 100 98 89 80 76 67 59 46 43 42 45 42 46 47 49 51 46 48 58 55
98 88 86 100 100 100 100 100 100 100 100 94 85 92 78 76 81 85 69 56 80 92 99 96 89 84 80 69 69 60 55 50 52 49 45 47 51 49 49 50 52 59 48 22
95 93 79 86 90 96 91 82 89 97 89 77 74 70 62 68 68 65 77 89 91 86 87 82 78 70 72 68 61 56 52 51 50 48 50 51 52 49 50 55 62 50 21 10
71 64 66 74 73 83 87 88 84 79 82 82 84 79 80 86 79 78 83 86 86 88 84 84 86 76 67 64 58 53 53 50 50 52 56 51 48 50 56 59 48 23 9 9

GFSCGP_250_rhum_018.txt.gz
RH
11 10 12 16 28 32 39 62 51 47 50 54 50 35 46 34 28 20 18 19 18 17 16 19 27 55 100 100 85 79 63 50 29 32 18 20 30 38 34 31 29 27 30 35
11 10 14 18 31 34 53 59 52 37 51 53 53 33 48 34 27 22 21 20 18 18 15 20 26 40 73 100 96 73 58 55 40 35 22 20 23 36 47 54 55 56 59 68
11 14 13 20 33 32 40 48 43 34 46 53 58 31 34 30 23 23 22 21 21 17 18 17 24 32 80 100 95 79 69 55 43 30 27 27 26 34 41 58 75 80 86 90
12 14 15 24 34 34 41 48 31 34 44 58 57 35 36 28 24 25 22 22 20 20 20 18 17 22 39 61 91 87 84 60 43 33 30 32 30 27 33 43 46 56 61 62
13 12 14 24 32 36 41 41 22 30 46 60 47 48 39 40 32 29 22 25 25 24 20 19 16 17 23 29 71 95 95 91 64 42 36 34 31 30 32 32 32 33 36 39
16 14 19 39 30 35 36 29 20 28 44 57 43 56 29 48 40 34 24 23 29 26 22 21 19 16 17 22 33 66 99 97 95 86 64 47 41 40 37 39 42 44 47 52
17 20 23 39 29 32 28 22 21 24 41 54 46 56 27 53 50 40 36 32 30 26 24 24 22 21 18 16 22 27 38 44 62 93 97 74 68 57 53 55 55 53 54 60
14 15 25 39 29 28 26 25 23 24 44 52 49 67 26 42 43 41 40 36 30 29 28 23 20 21 20 19 20 20 24 27 28 33 57 78 90 88 81 72 70 71 70 77
15 23 28 37 28 26 24 26 24 28 44 50 47 60 37 37 46 42 42 37 32 30 26 25 24 20 20 21 22 24 25 23 24 24 26 43 85 89 89 94 91 95 98 99
15 24 27 29 27 25 27 26 27 30 43 48 41 50 45 42 45 44 41 38 36 32 27 28 24 22 22 21 22 24 25 24 25 28 28 35 63 70 82 90 98 100 100 100
15 18 27 28 27 28 25 26 29 34 39 46 44 45 49 43 40 37 37 35 34 34 35 32 28 25 25 24 23 22 24 28 27 31 31 30 32 40 47 67 87 91 95 90
14 16 20 32 24 25 23 26 30 31 33 44 49 40 38 38 34 33 34 31 30 34 34 36 34 29 26 24 22 22 21 23 30 30 30 30 29 33 36 56 74 90 84 75
20 18 19 28 22 24 22 21 26 31 34 36 42 45 42 36 32 27 26 27 31 34 33 31 34 32 26 22 22 21 21 22 24 28 30 33 34 44 61 88 84 93 83 76
22 21 21 28 42 31 26 24 25 28 32 35 38 39 34 30 26 28 28 30 31 32 30 30 32 32 26 22 21 21 22 22 24 27 35 37 37 55 82 94 98 88 79 76
21 22 22 25 33 36 34 26 24 23 25 25 31 29 30 28 30 31 30 30 29 29 28 29 31 29 24 22 22 23 23 22 26 36 35 41 78 96 97 96 92 92 73 63
21 22 22 23 26 33 37 36 31 28 24 27 30 36 33 27 27 28 31 30 28 29 31 32 31 25 22 23 25 25 23 27 34 36 50 80 93 100 100 97 78 71 60 52
20 21 22 22 23 25 31 39 39 37 33 33 32 35 28 30 31 30 28 28 29 29 28 28 25 22 22 25 28 27 34 38 46 65 76 97 99 94 82 72 61 57 57 40
18 19 20 22 23 25 27 29 35 37 36 37 37 34 32 32 31 29 28 29 28 27 26 24 23 25 27 30 28 39 52 63 70 86 85 78 96 82 58 55 60 52 30 33
16 18 19 20 21 22 22 22 23 24 26 30 32 31 29 27 25 24 24 25 25 24 23 22 24 27 33 41 58 67 77 86 92 81 91 82 62 50 59 62 35 31 36 38
19 17 17 19 21 20 19 21 22 22 23 23 23 23 22 20 20 21 23 23 22 24 27 31 42 51 65 87 82 89 78 87 91 85 68 57 63 64 54 35 38 39 38 40
27 23 24 23 24 22 22 23 23 24 24 24 25 25 25 25 23 23 24 27 30 37 47 64 80 88 92 92 80 78 81 88 82 67 66 70 64 50 43 42 37 38 47 59
60 64 55 54 43 41 40 40 43 43 50 43 41 39 37 36 34 32 35 41 52 77 88 96 92 84 88 80 70 83 91 76 72 71 70 59 44 43 42 41 44 53 52 54
61 48 51 60 53 44 45 44 48 47 49 47 50 49 46 47 50 53 69 97 99 87 72 71 63 75 84 71 74 70 72 74 72 66 50 45 44 43 46 52 52 52 52 51
77 83 89 94 93 82 61 62 58 60 59 61 64 71 79 96 97 98 91 74 63 75 61 60 78 73 68 70 70 77 75 71 57 49 52 52 54 59 60 53 50 48 50 47
99 99 100 95 91 100 95 89 84 87 94 100 99 100 97 93 91 92 91 79 67 63 66 70 74 68 70 76 75 70 60 56 60 58 60 60 68 65 54 51 52 51 44 30
91 97 100 100 100 100 100 100 100 100 100 100 100 98 91 88 88 80 60 60 65 66 65 60 66 73 69 67 59 56 62 61 58 60 72 76 58 52 50 53 46 34 21 11

GFSCGP_250_rhum_021.txt.gz
RH
10 5 11 17 21 24 27 25 35 46 37 54 76 76 75 46 36 32 30 27 24 22 19 19 17 15 18 25 45 100 100 81 82 60 50 40 35 28 30 32 37 39 37 35
3 3 12 16 21 21 26 26 41 49 37 56 69 65 50 48 39 34 30 26 22 19 18 17 16 17 20 28 44 74 90 93 85 69 62 53 39 29 28 30 36 43 52 61
2 5 10 12 19 19 24 29 48 49 37 56 65 56 46 52 45 35 31 25 21 21 18 16 16 17 19 22 42 64 88 91 94 82 76 58 45 35 32 34 35 33 38 51
3 3 7 11 20 19 26 31 46 49 36 61 61 54 49 48 48 37 29 25 23 22 19 20 19 18 17 18 21 27 40 55 73 80 81 82 69 68 51 39 38 34 34 36
3 5 9 13 20 20 28 41 49 46 34 58 64 56 55 50 50 34 30 24 23 21 21 22 21 21 20 16 16 18 22 27 43 62 76 81 61 55 76 76 67 61 52 44
3 7 12 20 19 25 29 44 45 34 35 58 66 60 52 47 48 34 33 26 25 22 24 25 24 23 21 20 19 18 16 15 18 21 24 23 23 27 32 34 38 46 52 54
8 11 19 23 28 28 30 40 39 24 42 64 61 57 45 41 54 47 42 37 31 26 24 24 31 24 23 22 23 21 19 18 18 17 16 16 19 20 22 23 24 32 53 55
17 19 22 22 20 20 31 36 26 25 52 58 65 55 40 44 58 58 48 42 37 32 33 34 31 27 26 25 25 24 21 23 22 20 18 18 20 20 20 22 26 28 29 31
25 26 20 28 27 28 36 34 22 38 60 55 61 52 41 42 57 59 51 44 39 37 36 35 32 31 28 27 27 27 27 26 23 20 19 19 18 18 20 23 25 26 27 29
36 34 26 21 20 34 37 30 33 52 53 48 49 44 32 37 52 54 51 40 39 38 37 38 38 34 31 32 35 34 33 30 26 22 20 19 19 19 19 20 22 25 31 31
50 52 30 21 24 35 28 26 37 49 48 40 41 41 43 34 48 51 47 44 42 40 40 36 36 34 34 33 32 31 32 33 31 26 22 20 20 20 20 20 22 26 30 35
41 51 31 32 32 36 33 34 37 47 43 38 38 40 45 35 38 45 44 43 40 37 37 39 38 33 28 29 30 30 30 30 30 28 24 21 21 20 20 23 24 31 36 37
24 17 29 30 35 32 30 31 38 41 41 40 34 33 34 38 38 41 40 39 37 35 34 35 32 28 28 28 30 31 31 30 29 29 24 22 20 21 23 27 33 37 43 54
23 20 21 27 40 37 34 37 38 40 38 38 33 28 31 34 34 32 34 37 41 41 39 35 34 32 29 29 30 30 28 28 28 27 24 21 22 24 29 34 42 58 64 73
22 21 22 22 32 28 30 31 25 26 30 30 31 29 29 28 32 38 41 42 43 42 40 37 34 31 30 29 28 28 27 27 26 26 23 23 25 29 33 48 66 61 81 82
32 27 23 24 33 33 29 27 26 27 31 33 34 37 37 36 35 34 35 37 38 36 32 29 28 29 30 29 28 27 28 26 25 23 23 27 29 38 47 73 72 88 89 77
27 26 23 26 29 34 34 31 31 32 35 35 36 35 28 31 31 33 33 32 28 26 29 32 32 32 31 28 26 25 25 25 24 25 28 35 53 67 86 82 92 93 77 59
25 20 20 23 23 29 42 45 36 31 31 32 34 30 27 28 27 28 28 29 32 34 34 34 33 31 28 25 24 27 26 25 29 34 49 69 81 81 84 85 78 59 56 59
24 24 21 21 22 24 26 33 39 41 42 43 49 44 44 42 38 38 39 39 38 38 37 34 31 27 25 26 27 26 29 34 46 60 71 71 82 90 66 60 59 61 58 54
22 23 23 23 22 22 22 24 26 29 33 36 40 42 42 42 43 43 40 38 37 34 31 27 25 27 28 26 31 35 51 59 64 67 78 82 66 60 63 62 63 59 55 48
22 22 23 23 22 21 22 23 23 24 24 24 26 28 30 30 30 31 30 28 26 26 27 28 27 32 39 42 53 72 70 68 61 67 77 66 61 60 65 63 56 52 50 48
23 22 22 23 24 23 23 23 24 26 27 28 29 29 29 29 28 27 28 28 29 31 38 42 45 46 56 81 72 66 63 71 84 78 65 61 66 63 53 53 52 51 49 56
42 34 30 27 24 23 24 27 29 28 28 28 27 28 30 29 31 32 34 37 42 49 52 56 64 69 70 65 66 65 68 71 65 61 67 63 57 54 55 56 54 57 60 61
43 46 45 44 41 35 40 39 42 39 38 38 41 43 45 44 49 54 55 56 62 82 88 79 72 76 78 66 58 58 59 58 58 64 53 54 58 61 59 60 63 66 59 51
66 68 74 79 74 65 58 53 52 55 53 52 56 64 66 66 67 71 76 79 91 99 99 91 75 66 59 53 53 51 52 58 58 54 56 61 65 67 69 69 66 58 48 40
98 95 100 96 96 88 84 80 80 87 91 98 99 97 96 98 99 100 100 100 86 79 69 59 54 51 48 49 52 54 55 56 60 62 69 70 70 71 71 65 57 46 38 30

GFSCGP_250_rhum_024.txt.gz
RH
100 89 79 85 70 51 23 22 24 26 26 25 28 51 40 32 34 96 100 100 100 98 76 64 38 28 24 20 19 16 17 18 40 87 83 75 90 67 63 56 41 30 30 34
70 55 78 53 27 17 17 19 25 25 27 25 30 51 39 34 57 100 100 92 86 64 52 30 25 21 20 18 17 17 20 25 46 68 84 83 84 72 76 64 52 40 37 37
31 24 13 12 12 11 17 16 24 23 34 28 30 49 51 35 85 98 84 72 52 34 28 24 21 20 18 17 17 18 20 24 41 51 57 61 57 71 76 74 67 62 67 71
8 12 8 8 7 8 14 17 25 27 28 27 34 54 59 28 79 70 65 41 33 30 26 23 22 21 20 18 20 17 16 18 20 24 27 35 46 54 49 33 27 26 31 38
8 5 3 3 6 7 23 19 24 25 26 37 33 49 54 36 84 74 50 39 34 29 25 26 26 24 22 22 21 18 18 18 17 17 17 17 17 16 16 17 19 20 18 18
3 2 3 4 4 13 25 25 26 30 27 31 35 52 50 42 75 63 54 47 36 32 26 29 26 24 26 26 22 19 20 18 20 21 21 19 19 18 17 16 15 15 16 16
3 3 3 3 7 13 26 42 44 60 28 26 44 55 41 59 62 54 52 50 42 32 28 31 27 28 31 28 26 24 23 23 23 24 24 25 25 22 20 18 17 16 15 16
4 3 4 6 11 19 17 30 35 22 26 31 38 48 38 63 56 51 50 49 45 34 30 31 30 29 27 28 28 25 28 28 29 29 31 30 28 26 24 23 21 19 17 16
5 9 15 22 34 43 39 41 25 29 46 42 48 62 55 65 57 54 53 48 45 39 35 35 37 35 37 34 33 33 33 34 33 30 28 28 26 25 27 28 26 23 20 18
9 19 30 30 51 88 61 32 24 33 41 40 49 53 62 65 62 55 53 53 46 47 45 44 43 39 39 38 38 37 35 32 30 30 29 27 25 25 25 24 25 25 23 22
30 39 63 85 99 91 45 42 35 53 42 48 48 49 60 72 65 55 51 49 48 51 48 43 38 39 38 42 44 39 39 30 28 29 29 28 26 26 27 27 26 26 25 23
38 70 83 83 87 72 34 32 39 44 44 46 45 60 65 63 61 53 51 45 48 49 41 37 42 44 43 43 40 36 32 32 31 29 28 27 27 28 28 27 26 25 23 22
97 100 91 75 62 31 27 31 46 36 53 44 50 60 65 63 60 49 45 44 48 44 39 41 47 48 48 40 36 34 34 34 30 29 29 29 28 26 25 25 25 24 24 24
100 94 80 53 55 26 29 38 34 44 46 42 58 62 61 58 46 43 41 42 45 42 43 46 45 44 42 37 36 39 38 33 30 29 30 30 27 25 25 25 25 23 26 30
99 84 56 39 32 29 31 34 40 59 59 54 55 63 54 47 37 36 37 39 41 41 43 44 45 43 42 42 41 38 32 29 31 32 32 30 27 25 25 26 25 28 31 47
55 57 47 31 28 29 34 34 45 53 47 50 52 54 50 39 42 41 32 33 38 41 46 49 46 44 41 37 37 32 30 33 33 33 33 28 24 25 26 26 29 44 56 62
24 16 24 23 25 30 35 35 44 46 46 54 54 47 35 33 32 35 35 37 38 36 35 34 34 34 35 33 29 33 34 35 37 34 27 25 27 26 29 37 48 54 67 73
25 24 26 26 30 37 34 34 36 39 43 48 48 44 28 36 36 33 34 37 36 36 35 34 34 31 30 33 38 39 40 36 32 25 26 28 28 35 47 52 54 62 58 62
40 31 28 26 26 28 35 38 37 35 37 43 44 40 35 38 35 31 31 32 33 32 32 31 34 39 42 43 42 38 33 26 24 27 30 38 47 57 53 55 60 65 70 62
34 33 32 30 29 28 32 43 48 48 35 37 36 34 36 33 35 36 34 32 35 43 47 48 48 46 44 38 32 26 24 27 33 43 48 57 53 49 51 58 58 57 60 54
30 29 28 28 29 30 29 32 41 52 47 40 37 38 41 44 46 47 48 51 51 47 44 40 36 31 28 26 26 29 40 50 53 57 54 50 52 54 56 56 52 58 48 46
24 26 26 26 25 26 28 30 32 33 38 44 48 51 52 51 47 41 37 32 30 29 28 28 28 27 28 32 48 47 56 59 54 46 54 59 53 50 48 51 49 45 47 50
29 26 26 26 27 25 24 24 26 28 28 28 29 29 29 29 28 28 28 27 27 28 27 29 33 42 51 58 62 66 68 61 61 59 53 52 53 54 53 46 49 52 52 57
38 32 30 29 26 29 30 30 29 30 30 29 28 28 28 28 28 28 29 29 31 36 45 57 63 64 63 78 69 58 62 56 47 46 51 55 58 50 50 53 56 58 64 60
50 46 36 29 26 25 27 27 28 28 28 28 28 28 29 31 36 40 50 61 62 68 71 70 78 81 71 66 53 47 44 46 53 56 56 53 52 54 59 66 66 66 58 48
69 63 63 57 51 51 51 46 42 46 46 53 65 65 64 62 63 68 74 76 89 93 89 79 77 61 59 53 45 49 64 63 58 51 50 56 57 65 70 71 67 57 49 44

GFSCGP_250_rhum_027.txt.gz
RH
78 63 83 92 80 68 56 40 36 37 36 25 22 22 43 22 30 23 40 24 41 30 35 66 97 100 100 100 94 87 68 42 23 18 16 18 23 82 84 73 92 87 84 81
84 92 98 92 75 64 56 46 44 43 35 28 28 26 48 25 30 24 47 32 37 42 44 98 100 100 90 80 59 35 23 20 19 17 19 22 38 53 76 66 64 61 72 66
73 86 86 84 83 80 69 46 58 48 41 28 25 22 35 30 27 26 46 37 33 46 50 100 98 77 50 34 25 22 21 19 18 20 19 20 22 26 30 38 42 42 39 27
68 86 91 78 63 64 59 75 67 54 44 24 28 24 33 36 35 32 49 28 29 84 80 99 77 56 29 24 22 22 21 19 18 18 18 18 18 18 18 18 17 16 15 15
53 60 46 35 39 31 33 28 36 38 37 28 24 22 32 38 26 33 48 34 76 100 84 75 51 30 26 24 23 24 24 23 21 21 20 20 20 20 19 18 18 20 22 21
23 21 20 20 20 15 26 19 19 24 29 19 24 21 40 34 34 48 44 37 72 93 73 42 32 27 30 28 29 26 26 25 25 22 21 23 24 25 23 22 23 23 24 23
8 7 7 8 9 7 8 10 13 18 19 20 28 25 41 31 41 56 35 48 90 73 50 34 31 29 30 34 30 28 28 28 27 26 25 26 29 31 28 26 24 24 24 23
7 6 4 3 4 5 6 8 12 23 24 23 26 28 38 35 41 48 35 51 82 55 41 34 33 31 33 34 30 28 30 29 28 28 30 29 30 29 27 25 23 24 23 23
3 3 3 3 3 4 6 10 21 45 29 23 22 29 35 35 42 50 53 69 77 56 47 39 36 34 35 32 32 34 31 33 34 33 33 32 30 28 28 27 25 25 25 23
4 4 4 6 7 6 9 16 31 33 31 28 32 38 48 57 55 63 71 77 74 57 53 50 41 36 37 35 39 46 40 41 38 34 35 33 27 31 31 28 25 24 25 25
11 10 13 19 19 23 19 40 49 69 82 38 33 34 44 44 54 59 66 70 66 55 55 51 46 42 39 41 47 48 45 40 37 37 35 32 33 33 31 28 25 25 26 27
87 64 93 74 98 97 90 100 100 99 42 40 29 48 65 51 58 60 68 66 58 51 51 49 48 50 47 55 56 52 45 43 43 40 38 38 35 34 31 27 25 28 29 27
100 100 100 100 100 100 100 100 100 46 43 32 31 64 66 52 59 68 71 64 56 56 54 52 49 51 56 56 56 53 48 44 48 49 41 38 36 34 27 26 30 30 30 26
100 100 100 100 100 100 100 100 85 52 35 32 41 67 72 60 67 73 67 64 59 58 53 51 51 55 55 55 56 54 48 49 47 42 40 38 35 31 28 32 33 31 25 22
100 100 100 100 100 100 100 89 58 44 34 35 57 62 60 56 56 67 65 66 65 60 55 49 48 53 54 54 54 50 45 43 43 44 38 35 31 31 33 36 30 24 23 26
100 100 100 100 99 100 50 57 39 33 33 40 54 57 52 55 63 63 63 67 69 61 56 53 50 50 50 48 45 42 43 44 40 37 34 30 31 37 38 31 24 24 28 33
97 95 98 93 70 47 46 44 33 29 26 28 46 50 55 60 59 67 69 71 71 67 57 52 49 48 45 42 41 42 41 38 35 30 31 36 40 38 28 24 26 34 44 47
76 82 68 70 38 40 30 28 27 22 22 37 49 53 56 61 64 61 63 64 65 61 49 46 47 45 39 40 40 39 34 31 33 36 40 40 31 24 24 30 41 50 50 50
62 58 58 53 43 34 31 27 25 32 40 46 47 55 62 64 58 54 54 53 50 49 48 45 40 37 38 38 35 34 36 38 41 42 32 25 26 30 43 52 51 50 52 47
56 59 60 42 43 35 32 30 37 46 59 57 47 52 58 61 60 60 60 54 45 41 38 38 39 38 39 40 33 38 42 40 30 25 26 30 38 55 52 54 55 45 44 45
52 48 44 37 36 29 31 38 51 57 57 52 45 44 47 49 54 55 51 48 46 43 42 43 41 36 36 39 43 38 29 26 27 29 42 56 56 48 50 45 45 47 56 56
49 44 40 37 31 31 33 37 48 53 60 63 58 49 45 47 49 50 47 43 40 41 39 41 45 49 47 34 28 27 27 30 41 50 55 56 52 53 46 50 60 60 46 47
40 36 36 34 29 31 32 32 38 46 52 60 59 56 60 64 61 62 63 62 57 54 56 50 36 29 28 28 28 29 42 52 54 62 49 51 45 45 63 65 49 46 49 54
37 40 38 34 29 28 29 31 33 34 37 39 42 45 48 49 50 50 47 41 35 31 29 29 30 31 32 37 50 52 55 66 60 54 48 46 59 69 55 47 48 53 58 56
38 30 29 28 29 30 31 30 30 30 31 31 32 32 33 34 32 30 29 30 32 33 33 39 49 60 59 53 66 70 63 58 48 44 55 70 60 50 49 55 60 61 59 57
59 50 36 31 30 30 30 28 29 29 30 31 32 33 33 33 34 36 39 42 46 56 68 76 69 55 61 67 64 56 50 44 43 66 63 51 48 52 59 64 66 63 63 64

GFSCGP_250_rhum_030.txt.gz
RH
62 57 69 72 57 58 62 63 54 46 50 38 38 32 39 36 27 23 22 20 18 30 26 24 32 40 53 100 100 99 97 100 100 100 100 100 70 61 24 18 22 31 53 86
64 50 64 62 52 54 63 69 64 55 60 52 41 40 33 44 33 27 25 23 19 28 32 26 24 24 35 56 99 99 100 100 100 99 84 62 27 19 18 23 28 28 30 35
51 56 72 67 66 70 84 84 76 63 60 46 47 37 31 42 38 26 30 26 24 32 32 27 29 30 33 56 71 100 96 86 70 42 24 21 20 22 24 23 22 21 19 19
57 85 75 64 64 72 91 98 86 75 73 60 47 41 32 40 40 27 33 24 36 46 33 24 41 31 50 87 97 83 70 42 26 24 22 22 20 20 20 21 21 19 18 18
60 71 60 54 75 83 85 80 82 81 73 62 47 34 36 44 40 34 34 27 39 55 40 26 51 56 89 100 83 49 34 26 24 25 25 23 20 22 24 24 23 20 21 23
48 48 50 53 61 57 58 71 72 79 80 47 59 30 42 35 43 36 32 29 46 59 46 26 54 71 99 94 60 38 27 25 24 27 26 26 24 26 28 27 25 27 27 25
42 33 29 27 25 22 22 31 33 37 33 18 51 21 40 46 41 34 30 33 53 51 48 29 52 84 97 73 48 35 29 29 29 31 29 27 31 31 31 30 31 30 26 25
32 23 12 6 7 6 6 8 10 12 14 23 42 17 50 52 32 30 30 38 48 44 46 25 74 100 80 59 37 31 33 32 32 32 33 33 33 33 32 34 33 31 28 28
22 8 6 5 5 6 6 5 11 8 11 27 38 31 95 56 27 29 29 48 53 51 47 28 97 88 56 39 34 30 31 34 36 35 32 31 29 33 37 35 32 28 28 29
12 8 6 6 5 4 4 4 4 6 12 21 34 33 76 26 28 30 34 65 50 49 43 49 97 69 47 36 35 34 32 37 40 36 38 37 36 38 37 34 28 28 30 32
16 16 13 10 6 5 4 6 8 9 17 35 26 39 37 30 33 36 44 69 48 39 43 67 85 54 42 39 36 38 40 42 43 41 42 42 42 39 35 31 30 34 35 34
53 97 98 67 34 18 13 7 19 23 28 50 62 50 28 34 32 33 49 52 42 40 45 88 80 54 46 41 42 45 46 46 49 48 49 50 46 40 36 34 37 38 37 30
100 100 100 100 100 100 64 80 30 29 48 72 84 46 38 34 37 40 56 48 45 48 54 91 78 58 53 52 53 53 52 57 58 57 57 50 44 39 36 39 41 38 30 26
100 100 100 100 100 100 100 100 99 74 75 81 51 52 42 39 42 55 59 54 60 57 70 90 75 59 57 55 56 59 60 60 60 58 53 48 44 41 43 40 35 30 28 28
100 100 100 100 100 100 100 100 100 100 100 65 44 45 42 43 54 49 56 62 73 83 83 83 70 55 54 55 57 58 58 56 57 55 52 47 45 42 39 34 32 29 30 34
100 100 100 100 100 100 100 100 100 97 85 51 59 44 43 45 56 50 62 66 73 85 85 78 59 55 56 56 57 56 54 52 53 52 49 46 42 39 35 32 28 32 34 26
100 100 100 100 100 100 100 93 100 100 71 63 47 44 40 52 55 61 67 73 80 90 90 78 60 57 57 58 58 57 54 52 50 49 46 42 38 36 31 29 34 32 25 23
99 92 97 100 100 95 91 84 98 76 54 44 36 41 54 50 64 74 76 80 86 91 91 86 76 71 66 65 64 61 57 52 49 47 40 37 34 30 33 35 30 25 27 43
93 90 88 98 90 82 66 98 95 58 37 36 32 49 67 79 85 82 87 89 91 91 90 84 80 77 76 74 72 66 58 51 47 40 36 32 30 39 33 27 24 35 44 39
67 71 75 79 73 69 64 76 61 38 35 30 36 65 80 79 81 79 84 82 84 87 84 78 77 75 69 62 57 51 45 39 36 33 32 40 40 30 25 26 42 48 44 35
94 94 89 88 81 84 84 52 33 32 30 35 56 77 85 90 90 85 77 78 80 79 79 78 73 64 58 52 44 40 36 33 36 45 45 33 26 24 36 44 52 40 37 54
100 95 81 73 64 66 64 52 34 34 32 43 71 89 91 88 82 74 68 64 64 65 67 64 62 58 52 43 37 38 44 47 46 34 27 25 30 39 54 46 38 41 56 50
67 59 59 55 57 53 49 46 34 32 36 51 68 78 81 80 75 71 69 67 67 64 62 57 49 45 53 63 56 47 40 32 27 25 31 36 50 52 40 40 52 58 48 47
60 61 60 56 50 42 41 39 38 34 40 55 65 70 76 78 75 67 60 56 51 49 54 67 70 64 53 41 33 29 26 27 35 37 44 54 43 38 41 59 53 48 53 64
46 46 47 47 48 42 39 39 37 37 41 54 63 67 67 66 66 65 63 63 62 59 52 45 39 34 30 28 28 32 35 39 50 50 43 37 38 58 56 47 50 61 62 57
41 40 39 37 37 38 34 32 33 35 38 42 47 51 51 49 47 45 40 36 33 32 31 30 30 32 36 36 43 50 52 44 38 36 41 56 63 51 48 60 64 60 59 60

GFSCGP_250_rhum_033.txt.gz
RH
61 50 61 83 69 52 49 54 50 48 47 45 45 38 55 41 24 29 29 26 25 18 19 18 17 22 26 27 32 94 98 88 80 74 94 100 100 100 100 100 100 99 83 47
82 62 69 75 69 68 61 59 54 52 56 45 47 44 54 52 34 27 36 32 29 25 21 20 19 20 23 25 25 61 84 100 100 100 100 100 100 100 100 100 93 80 27 24
77 71 86 71 74 59 52 56 47 48 56 47 43 41 46 57 38 32 41 39 32 31 29 25 25 25 25 26 26 31 44 72 86 99 100 100 100 100 98 74 34 25 26 25
72 94 74 56 53 53 53 50 38 38 45 45 37 38 45 63 47 40 43 47 38 39 34 30 36 32 31 25 26 24 24 50 89 100 100 100 91 65 45 29 29 27 24 22
62 96 84 63 64 47 42 39 36 41 48 48 40 33 49 60 56 48 50 49 45 42 40 39 36 30 39 31 28 23 26 72 92 96 81 58 37 29 28 27 26 24 24 25
51 70 77 64 56 48 39 42 42 43 45 34 43 26 43 70 61 55 50 45 41 42 44 42 41 32 54 36 27 24 52 89 96 66 47 31 31 29 27 28 29 31 28 28
50 54 48 46 46 42 39 39 39 41 37 24 45 33 45 88 68 68 59 48 34 39 41 46 51 36 55 32 24 28 79 100 76 52 34 30 28 29 30 31 36 34 32 31
52 61 48 49 41 35 30 26 24 24 23 21 51 31 37 99 98 98 75 50 36 40 44 50 48 34 52 36 31 42 78 95 67 46 35 30 30 35 34 33 36 32 31 31
63 68 42 23 22 14 8 6 5 4 4 7 15 23 30 73 100 97 87 66 41 41 48 56 54 41 51 49 38 62 85 91 63 48 38 34 35 35 32 33 33 36 35 37
79 37 34 17 9 5 4 4 4 4 6 6 7 13 21 59 100 95 84 77 43 41 48 60 44 41 65 64 54 64 86 76 60 45 35 37 37 37 38 37 37 41 42 41
58 48 32 14 12 7 5 4 3 3 5 6 10 21 39 68 84 89 80 70 40 42 54 74 64 45 82 70 65 91 84 64 52 41 35 40 38 39 41 40 42 48 43 42
84 52 39 90 70 46 7 7 6 5 6 6 10 25 78 72 69 68 69 62 34 42 52 61 51 42 67 77 84 86 72 55 41 39 38 40 46 49 48 52 49 45 45 46
60 58 90 93 100 100 70 40 14 10 8 8 8 30 59 58 77 65 66 48 36 45 55 66 58 52 71 84 82 78 65 51 41 41 43 52 57 56 56 56 52 50 50 45
84 100 100 100 100 100 100 100 59 29 19 18 14 26 36 48 52 66 47 39 36 47 56 63 50 59 74 85 81 71 60 49 45 48 57 62 60 59 60 58 55 53 48 42
98 100 100 100 100 100 100 100 100 75 55 32 30 37 49 51 61 59 39 37 42 48 66 65 56 73 78 76 78 72 56 55 55 61 62 60 60 59 57 54 50 49 46 44
100 100 100 100 100 100 100 100 100 100 100 100 100 94 85 80 65 54 36 45 50 61 70 56 60 72 82 87 83 80 68 63 62 61 60 60 58 57 56 54 51 46 44 38
100 100 100 100 100 100 100 100 100 100 100 100 100 99 88 71 62 54 44 50 60 68 53 59 66 80 88 96 90 80 71 65 60 58 58 58 60 61 60 56 50 44 41 36
98 100 100 99 100 100 100 100 93 100 100 100 100 91 75 63 53 49 40 52 75 65 72 82 89 90 91 87 86 79 66 59 58 59 63 66 70 71 66 52 43 39 33 36
92 79 93 100 98 100 100 100 100 100 100 100 100 84 78 54 56 45 46 73 81 89 98 100 95 96 96 92 87 79 71 69 73 77 77 77 69 52 45 41 34 34 40 30
95 89 65 66 66 96 100 100 100 100 100 82 95 56 57 58 56 50 70 93 96 94 93 97 93 90 93 96 92 88 84 82 78 77 70 57 52 46 37 36 42 33 26 26
92 87 98 100 100 100 100 100 100 99 99 98 76 69 56 51 56 83 97 96 95 96 98 99 96 95 94 89 84 78 76 76 77 70 61 51 44 44 43 34 27 26 34 38
100 100 100 100 100 100 100 100 100 97 69 73 56 52 48 53 68 86 93 97 97 96 93 89 87 86 82 78 78 78 83 76 64 54 49 48 45 35 29 27 35 38 35 34
100 100 100 100 100 100 100 100 100 95 64 51 46 48 51 58 78 89 93 95 94 92 87 82 79 78 81 80 74 69 64 55 54 54 45 37 31 28 36 42 34 35 47 45
100 99 98 100 92 88 95 93 91 73 73 58 50 46 48 62 88 95 95 95 97 92 85 80 75 72 71 66 60 62 62 58 44 37 33 32 38 43 36 35 53 51 46 56
85 84 80 73 65 65 67 72 83 67 48 45 46 44 54 73 85 89 91 91 87 85 84 80 78 77 78 73 59 43 36 34 35 40 48 49 40 36 54 58 46 52 61 62
71 64 53 52 57 57 58 50 54 58 45 40 39 46 57 68 77 84 90 92 88 85 88 90 79 62 48 40 34 36 47 54 55 54 41 33 47 68 54 50 56 60 58 48

GFSCGP_250_rhum_036.txt.gz
RH
100 96 100 100 100 100 90 63 45 48 51 52 42 36 42 44 29 27 31 32 26 24 29 25 26 28 25 22 22 21 25 24 23 29 41 57 53 59 55 80 92 100 100 100
100 100 100 100 98 84 79 78 64 48 52 44 45 33 35 45 40 34 38 38 34 26 28 27 28 29 27 29 26 24 23 27 24 22 25 77 81 96 95 100 100 100 100 100
100 100 100 92 96 92 81 63 59 48 52 45 42 36 33 44 41 38 36 48 42 38 27 33 29 31 29 30 32 27 27 26 27 25 22 67 100 100 100 100 100 100 100 100
81 99 87 77 63 57 51 50 54 56 46 52 50 32 37 37 46 55 53 49 56 46 30 34 36 32 35 30 33 32 32 29 30 26 25 61 80 100 100 100 100 100 96 77
74 64 56 57 66 53 57 63 48 42 43 44 50 24 45 42 45 64 70 63 68 61 41 37 43 38 34 33 33 32 35 31 32 26 25 43 81 99 100 98 94 64 52 38
54 53 64 70 73 60 52 48 41 30 27 20 39 24 30 52 45 59 75 71 71 70 55 38 43 42 35 39 42 37 30 30 34 28 34 45 68 82 91 80 59 45 35 30
84 96 85 75 63 46 30 26 24 25 25 16 22 24 26 42 62 61 75 81 91 79 58 50 51 49 42 39 50 46 31 30 33 31 37 77 84 96 64 50 35 34 32 32
94 78 62 54 54 62 39 36 33 25 21 16 19 17 25 41 45 70 72 99 96 91 61 58 57 56 48 43 50 46 33 37 36 34 54 88 100 68 55 38 37 36 32 36
65 62 72 75 61 40 31 20 19 16 15 12 15 14 22 39 33 50 68 63 93 96 73 59 50 56 51 49 52 52 38 42 37 38 80 94 99 69 54 42 37 35 36 39
71 69 58 54 87 80 38 26 12 5 4 4 4 4 11 26 32 60 77 48 82 90 79 63 52 58 51 51 49 63 50 44 38 46 80 86 98 76 59 47 42 46 41 38
70 73 82 99 78 55 29 26 11 5 4 3 3 3 5 13 29 62 90 76 70 93 78 68 62 64 56 54 54 74 61 46 45 56 81 85 95 78 63 54 43 42 40 39
81 99 100 98 86 66 76 53 12 7 4 3 3 4 4 6 20 60 80 83 81 85 83 74 65 64 57 52 54 77 60 48 48 64 84 90 90 70 62 52 44 41 41 51
100 100 90 78 98 83 68 60 17 8 4 4 3 3 5 5 15 48 70 68 79 86 84 88 66 60 55 53 61 71 59 55 56 68 89 100 77 62 54 47 47 46 50 61
100 99 100 91 82 95 94 67 64 16 9 8 7 4 6 6 17 46 53 59 73 69 80 89 67 53 55 54 59 84 70 55 51 81 100 97 72 58 49 47 48 52 62 62
98 82 76 100 90 99 100 98 81 68 27 26 13 8 7 8 24 52 50 59 70 75 89 85 49 46 50 55 62 83 71 56 79 100 100 89 68 58 52 52 55 63 63 60
83 100 100 100 100 100 100 100 93 78 90 63 67 59 21 29 46 47 60 81 91 87 70 52 39 48 50 63 60 73 76 93 100 100 96 80 65 58 59 61 64 62 61 61
90 100 100 100 100 100 100 100 100 100 100 98 72 52 49 45 43 48 67 75 78 69 56 41 42 45 49 59 68 85 100 100 100 100 96 86 77 73 71 67 64 62 60 72
100 94 100 100 100 100 100 100 100 100 100 99 79 79 77 69 74 79 72 82 65 57 42 41 45 52 74 75 92 100 100 100 100 100 98 91 86 78 72 65 61 69 76 72
65 97 99 98 100 100 100 100 100 100 100 100 100 96 100 100 100 83 85 81 60 45 46 51 60 86 83 95 98 100 100 100 100 100 94 89 83 78 76 78 80 73 66 58
76 84 76 84 100 100 100 100 100 100 100 98 100 100 100 100 100 89 81 58 56 57 58 62 78 93 100 97 100 100 100 100 99 100 97 93 90 88 81 71 70 67 53 52
85 80 98 100 100 100 100 100 100 100 100 94 96 100 100 87 91 91 74 64 64 66 72 90 99 98 97 100 100 100 100 100 98 100 99 93 83 72 72 74 59 55 55 34
97 100 100 100 100 100 100 100 100 100 100 100 89 100 88 89 100 83 63 66 69 81 99 100 100 100 100 100 100 100 100 100 98 93 81 78 79 72 62 61 54 37 31 31
100 100 100 100 100 100 100 100 100 100 100 100 80 99 86 89 92 60 58 63 85 100 100 100 100 100 100 100 100 100 96 87 79 81 77 70 65 70 56 38 34 35 38 34
93 95 100 100 100 100 100 100 100 100 100 85 70 84 90 61 55 54 59 78 95 100 100 100 100 100 100 97 93 85 84 82 76 71 74 79 54 41 38 40 42 34 37 57
94 97 100 100 100 100 100 98 100 86 83 72 59 53 56 51 50 56 67 87 96 99 100 100 100 99 94 94 93 86 84 83 85 79 54 44 44 48 46 38 35 51 59 48
88 91 90 84 92 91 92 100 100 94 69 59 61 52 51 52 52 52 61 80 94 100 99 99 98 98 96 91 89 89 85 70 50 44 54 58 51 44 36 40 61 57 48 42

GFSCGP_250_rhum_039.txt.gz
RH
100 99 83 99 87 76 82 66 68 70 100 100 90 54 40 45 39 45 43 37 37 37 31 25 23 22 26 28 26 25 22 17 18 19 19 20 25 25 37 25 30 35 60 66
100 100 90 77 100 99 84 77 79 87 83 63 66 63 60 56 49 46 50 41 41 44 36 30 26 25 25 29 28 27 26 22 20 19 18 20 23 28 28 24 21 81 87 97
100 100 100 100 100 98 98 96 93 84 82 59 47 43 62 70 59 48 51 51 45 49 42 37 29 29 28 28 33 31 28 26 24 23 21 20 20 30 29 24 29 98 99 99
100 100 97 99 100 100 100 97 83 68 58 60 51 28 56 68 64 59 50 62 61 55 46 41 33 31 36 28 29 36 33 32 29 29 25 22 21 31 33 27 36 91 100 100
100 100 100 100 100 89 78 66 61 52 41 37 42 39 46 52 58 79 69 62 58 58 53 49 39 32 39 29 28 37 41 36 34 31 28 25 23 31 32 30 48 73 88 100
100 100 100 89 75 63 54 50 50 56 49 33 43 38 34 63 76 84 87 74 68 61 59 50 48 35 44 34 27 38 46 40 38 36 31 26 27 32 32 30 62 67 84 87
96 90 83 86 69 56 61 76 66 50 39 30 36 32 23 48 58 59 84 57 58 62 60 52 59 47 55 43 30 36 50 43 43 45 37 28 28 31 31 39 62 72 76 88
86 99 88 78 77 79 64 57 49 35 33 27 31 27 24 28 20 36 62 51 42 51 56 59 59 58 65 50 34 37 54 49 47 47 43 37 35 33 33 51 67 80 90 65
97 95 92 77 77 66 59 52 52 38 28 15 17 16 14 19 26 14 25 65 50 46 54 58 62 62 70 62 41 41 58 57 53 52 51 44 41 41 43 62 79 86 82 63
97 100 80 77 63 58 56 45 57 70 35 20 8 7 8 9 14 16 17 52 90 50 64 59 72 69 73 73 46 49 63 63 60 58 54 50 47 47 52 78 82 91 92 70
89 84 78 68 79 60 58 100 98 64 42 27 5 6 4 4 7 16 15 28 81 49 66 78 76 69 58 69 49 47 67 65 62 58 52 53 54 53 57 79 94 100 100 93
73 87 72 83 60 100 97 78 57 51 32 22 6 11 2 2 3 11 16 22 49 60 58 72 63 78 62 72 56 43 60 64 64 64 61 63 60 59 62 84 100 100 100 96
72 76 73 85 100 92 75 76 94 52 63 26 8 4 3 2 3 3 12 21 36 61 49 65 62 72 76 74 68 50 58 68 63 62 69 66 60 59 73 86 94 100 100 86
80 66 100 95 84 75 80 85 87 76 29 16 10 6 4 3 3 3 5 17 35 61 51 68 68 80 74 77 75 54 58 67 65 74 83 70 64 66 79 84 97 100 99 82
70 100 97 70 75 100 90 99 100 95 50 21 9 6 6 8 6 5 5 18 36 59 50 70 75 99 86 77 79 58 53 66 63 77 79 74 73 77 88 92 98 100 95 79
85 100 97 59 84 100 93 100 100 91 91 76 36 16 9 13 14 9 8 19 40 58 52 58 72 95 90 79 79 56 49 60 60 88 89 80 83 98 95 95 92 91 89 84
100 88 76 69 94 100 93 90 100 88 95 99 88 66 40 32 28 18 17 36 60 64 70 84 84 91 92 88 76 47 48 58 76 97 87 88 100 100 95 91 96 96 100 97
94 89 83 91 100 98 100 100 95 100 96 98 100 92 81 80 76 74 87 98 100 98 96 86 88 90 88 85 67 44 51 60 72 99 100 100 100 99 98 99 99 100 98 87
92 85 72 96 100 100 98 79 100 92 100 99 87 97 100 95 87 93 100 100 100 100 97 87 83 79 77 75 53 45 55 65 90 100 100 99 100 100 100 100 98 91 90 84
88 92 68 84 100 100 100 100 100 85 96 100 100 100 84 97 100 98 100 100 89 78 97 89 83 73 61 47 47 56 67 92 100 100 100 100 100 100 100 93 91 87 83 85
98 90 91 100 100 100 100 100 100 100 94 96 100 100 100 100 99 100 100 100 100 100 99 83 64 52 48 52 60 70 100 100 100 100 100 100 100 97 93 91 91 91 81 70
89 94 100 100 100 100 100 100 100 100 100 100 100 100 100 100 100 100 100 98 100 96 88 72 62 59 61 66 89 100 100 100 100 100 100 99 94 94 94 94 85 75 66 58
80 92 100 100 100 100 100 100 100 100 100 100 100 100 100 100 100 100 91 81 73 72 69 68 69 72 90 100 100 100 100 100 100 100 100 99 98 96 90 78 72 63 58 43
86 98 100 96 100 100 100 100 100 100 100 100 100 100 100 100 100 100 98 91 79 83 75 79 96 100 100 100 100 100 100 100 100 100 99 97 95 84 78 70 64 49 37 43
100 97 96 87 91 88 95 96 92 99 98 98 98 100 100 97 76 86 79 89 89 86 88 100 100 100 100 100 100 100 99 100 100 99 96 90 85 78 69 54 40 43 43 38
100 98 80 81 88 93 92 93 97 100 97 96 79 80 75 79 81 78 80 84 85 89 98 100 100 100 100 100 100 99 100 98 95 94 88 78 69 52 45 48 45 40 48 62

GFSCGP_250_rhum_042.txt.gz
RH
100 100 100 88 86 83 83 78 74 100 78 68 69 75 94 100 100 100 84 68 52 47 41 42 38 32 29 31 30 24 21 21 21 21 19 18 17 16 16 19 25 30 24 23
100 100 98 98 95 87 85 87 78 78 78 62 69 61 63 73 86 100 100 94 81 61 50 39 46 40 34 35 40 28 21 20 20 22 22 21 19 17 18 25 30 24 19 22
100 100 100 100 100 98 92 91 100 96 80 69 85 56 64 67 79 99 99 91 72 60 51 45 46 48 40 34 41 38 24 22 19 21 24 24 24 20 19 20 22 22 23 25
100 100 100 100 100 100 100 100 92 80 83 72 67 45 67 83 100 100 91 83 68 54 41 34 44 41 48 38 35 42 27 22 20 19 24 26 25 24 25 23 26 24 25 27
100 100 100 100 100 100 100 87 80 81 78 74 70 50 60 94 98 86 74 55 51 57 53 39 42 52 51 45 39 43 31 27 22 20 24 29 27 27 26 30 31 27 27 28
99 100 100 94 96 92 76 70 88 89 90 69 80 56 50 72 58 55 52 48 38 39 51 57 62 57 48 51 43 46 39 32 28 25 26 30 28 30 32 40 34 29 32 30
73 76 83 83 76 79 80 88 86 77 59 49 52 55 57 56 41 37 39 40 40 35 38 45 53 53 53 57 56 48 43 34 32 28 32 36 32 33 66 61 37 39 38 36
89 89 97 100 89 82 88 80 68 57 71 79 73 66 60 48 38 39 36 38 44 45 41 45 50 58 56 57 58 54 45 37 36 32 34 46 38 34 38 48 49 45 49 44
100 100 98 87 78 70 67 72 90 88 69 50 50 48 44 42 33 17 14 18 22 29 40 43 61 63 82 68 62 62 52 39 39 35 38 54 46 41 44 48 52 49 47 47
100 100 88 77 75 83 100 89 70 60 54 54 46 42 59 32 23 8 8 12 14 20 25 30 49 61 80 84 68 68 56 47 47 41 43 64 55 49 53 53 58 55 52 52
95 95 100 82 89 91 83 80 77 71 56 47 46 58 31 18 10 4 6 8 9 14 19 24 34 54 93 76 69 74 65 51 46 49 48 68 66 56 59 61 65 61 56 54
100 100 90 88 90 83 72 80 65 66 60 47 38 66 10 6 6 7 4 5 6 13 15 16 30 54 97 74 68 79 77 63 59 57 54 74 72 64 65 73 76 67 64 62
96 96 86 91 74 75 67 59 62 60 54 81 59 26 9 5 5 4 4 3 4 10 16 14 26 66 84 80 74 77 83 71 77 70 54 75 71 71 73 75 83 77 76 70
86 89 97 73 72 67 64 82 56 84 85 74 33 15 8 4 5 3 3 2 3 9 20 20 30 78 86 85 78 78 75 77 97 81 63 66 73 74 76 77 84 86 81 79
91 96 73 68 80 69 61 60 98 98 85 63 31 13 10 8 6 3 3 3 4 12 27 25 47 90 99 81 88 83 72 85 100 89 72 59 73 71 75 80 87 90 94 92
98 72 68 80 85 71 56 100 90 100 93 76 56 25 11 9 6 5 4 4 8 28 38 43 78 98 78 79 83 83 76 84 92 88 75 58 66 68 76 84 91 97 99 100
68 74 62 85 64 59 82 99 100 100 96 91 59 49 25 13 10 9 8 12 36 53 60 69 83 81 76 82 85 88 89 96 99 94 83 64 61 63 68 81 94 100 100 100
77 57 91 76 95 99 73 92 100 100 100 88 84 70 69 76 78 72 56 61 80 83 88 82 90 91 97 100 100 100 100 100 100 98 81 58 57 63 68 86 98 100 100 100
68 60 93 73 100 100 100 100 99 100 100 87 96 93 91 100 100 100 100 100 100 100 100 100 100 100 99 100 100 98 99 95 92 89 74 52 59 65 76 99 100 100 100 94
59 95 92 79 100 100 100 100 100 100 100 100 92 98 100 87 100 100 100 100 100 100 100 100 100 100 100 93 100 100 99 89 89 84 63 56 63 71 90 100 100 96 99 100
72 100 94 85 77 100 100 100 100 100 85 100 100 93 100 100 100 90 100 100 88 91 100 100 99 99 97 93 92 91 93 90 81 58 58 66 74 92 100 100 100 100 98 87
100 100 97 76 76 100 100 100 81 100 93 88 100 100 87 100 100 100 100 100 99 95 90 94 97 94 92 90 88 75 62 57 61 65 75 95 100 100 100 100 99 88 85 84
100 100 92 86 100 100 100 100 99 97 100 99 95 100 100 100 100 100 100 100 98 100 100 96 92 83 82 81 80 73 73 74 86 99 100 100 100 100 98 94 96 90 88 87
100 91 91 91 100 100 99 90 98 96 99 100 94 100 100 100 100 100 100 100 100 100 100 100 98 90 88 87 88 93 100 100 100 100 100 100 99 99 100 93 90 88 89 87
77 82 100 98 85 100 93 84 100 98 99 100 100 95 99 100 100 100 100 100 99 100 100 100 100 100 100 100 100 100 100 100 100 100 100 100 100 97 95 94 90 85 70 61
98 98 93 83 77 83 82 81 91 100 98 96 100 100 95 87 93 82 87 90 88 96 100 100 100 100 100 100 100 100 100 100 100 100 100 100 100 98 89 78 66 60 56 52

GFSCGP_250_rhum_045.txt.gz
RH
100 100 100 100 100 100 100 100 100 100 100 100 98 65 76 87 89 77 68 74 87 93 79 76 64 60 49 31 28 29 29 27 27 24 21 17 17 20 26 33 28 16 15 15
100 100 100 97 100 100 100 100 100 100 97 85 78 67 66 75 88 88 84 76 78 90 99 100 100 85 72 40 29 29 29 29 24 23 23 23 20 25 21 24 33 34 20 20
100 100 100 100 96 96 98 91 89 82 76 76 72 70 74 73 72 86 84 72 70 73 77 77 70 84 90 79 53 34 30 32 32 28 25 22 24 22 22 24 24 26 30 53
100 100 100 100 100 99 98 94 82 72 72 73 76 67 78 88 92 95 79 69 71 77 68 65 65 64 58 75 80 56 42 33 37 33 30 26 26 24 23 23 26 29 36 55
100 100 100 100 100 100 96 96 95 90 83 75 77 64 72 100 100 100 99 99 79 53 48 56 65 65 63 60 66 67 50 42 53 37 36 31 29 29 25 23 26 32 36 32
96 100 100 100 100 100 100 99 94 88 83 68 85 91 100 100 98 75 69 68 50 51 56 51 46 52 53 52 50 54 59 57 56 58 41 38 32 31 28 26 29 38 37 47
99 100 100 100 100 100 100 100 96 89 88 91 92 90 89 79 69 58 59 55 59 62 59 52 47 55 69 60 54 55 68 71 61 66 51 44 40 34 31 28 35 44 44 58
100 100 100 100 100 100 100 100 100 84 92 92 68 68 88 69 90 50 44 42 42 43 40 41 46 46 46 50 54 55 55 73 86 73 55 54 49 40 39 32 41 45 54 63
84 91 98 100 100 99 98 90 75 67 60 52 62 71 66 67 66 55 48 38 33 32 35 41 42 42 40 43 42 49 61 66 75 78 61 66 59 43 42 37 43 55 54 72
60 60 66 71 71 61 58 83 76 66 63 73 76 72 66 59 54 50 50 34 18 10 11 16 28 34 43 40 44 51 58 62 73 85 78 78 66 53 48 40 40 52 52 54
91 98 95 79 62 64 66 78 81 74 78 71 62 69 54 46 43 42 31 16 10 9 10 12 15 23 31 30 39 48 58 60 88 100 100 89 76 61 56 46 52 58 62 52
88 88 72 58 74 91 99 74 91 77 72 70 65 56 37 44 38 31 9 12 8 8 6 8 13 16 25 29 32 41 56 70 84 100 100 89 88 70 66 53 48 68 68 60
89 81 76 85 99 95 94 90 76 72 73 56 66 68 56 41 30 14 8 7 5 3 3 4 7 12 20 22 31 37 61 81 84 100 94 90 96 77 74 64 52 80 74 66
87 93 100 88 93 94 87 78 63 58 69 70 82 75 62 27 14 10 8 7 4 3 3 3 4 13 12 21 34 37 61 85 96 100 84 92 93 88 90 70 55 74 82 77
100 100 97 98 100 86 77 58 68 85 91 91 100 81 37 17 13 10 6 3 3 3 2 3 4 8 18 34 38 44 76 95 100 97 81 97 90 96 88 77 60 64 83 85
97 95 100 98 73 59 54 76 79 84 100 100 100 63 52 24 10 7 5 4 4 4 4 6 11 21 30 38 46 82 100 100 100 86 96 98 100 90 95 88 80 75 71 80
94 100 93 76 54 60 69 70 74 81 100 100 98 72 63 35 35 14 8 7 7 10 13 18 30 38 40 55 91 100 100 100 89 97 100 95 86 91 99 92 86 78 65 70
100 98 80 64 68 80 74 96 89 83 100 100 96 77 96 90 93 96 70 54 50 48 44 41 42 67 97 100 100 100 100 100 100 100 99 92 97 97 99 98 93 79 66 66
100 88 64 64 79 100 100 100 98 73 100 96 96 79 94 100 100 100 100 96 82 66 68 80 99 100 100 100 100 100 100 100 100 100 100 100 100 100 94 93 88 80 65 66
98 81 59 67 66 100 100 80 63 80 92 99 100 89 91 100 100 100 100 100 100 100 100 100 100 100 100 100 100 100 100 99 100 100 100 96 90 97 93 96 92 66 65 68
95 82 73 94 75 91 99 81 76 72 72 91 100 100 94 100 100 85 97 100 100 100 100 100 100 100 100 100 99 100 98 99 100 99 91 90 87 91 97 74 70 74 83 90
97 83 78 79 76 72 81 100 100 78 86 71 99 100 100 100 100 100 98 100 100 100 100 100 100 99 99 99 97 98 97 96 90 90 94 93 83 77 83 92 99 100 100 100
97 98 91 62 71 70 89 100 100 86 92 73 91 94 100 100 100 100 100 100 100 100 100 95 96 100 100 98 99 100 98 90 81 78 84 94 99 100 100 100 100 100 100 100
100 100 83 66 66 80 92 99 100 89 99 98 80 92 99 100 100 100 100 100 100 100 100 84 97 97 94 86 88 86 99 100 100 100 100 100 100 100 100 100 100 100 100 100
98 92 87 70 70 75 78 83 82 100 93 100 98 90 98 83 89 97 92 90 94 97 100 100 100 100 100 100 100 100 100 100 100 100 100 100 100 100 100 100 100 100 100 97
90 80 75 74 80 65 60 69 82 92 100 100 98 98 97 95 99 92 98 100 100 100 100 100 100 100 100 100 100 100 100 100 100 100 100 100 100 100 100 100 100 94 90 81

GFSCGP_250_rhum_048.txt.gz
RH
100 94 92 88 100 100 100 100 100 100 100 100 92 89 100 90 90 76 59 52 57 63 58 61 62 72 64 55 47 44 36 41 32 28 27 28 23 26 38 29 21 20 22 27
100 100 91 80 85 100 100 100 100 100 100 100 100 100 100 99 82 81 95 99 88 71 65 54 59 61 66 70 82 95 94 72 63 34 30 25 30 35 27 26 26 25 23 22
92 100 94 95 89 81 96 100 100 100 100 100 98 96 98 100 100 98 91 82 72 69 65 64 54 52 56 72 80 86 91 84 76 55 36 34 34 40 30 28 28 28 28 23
89 100 100 100 100 91 84 90 100 100 100 100 100 100 100 86 100 98 88 76 76 74 72 69 69 67 59 56 60 71 81 79 61 74 50 41 35 41 41 47 54 59 44 30
82 88 91 96 100 100 90 92 89 84 84 75 77 72 66 82 75 74 68 74 79 71 71 74 73 80 79 61 57 59 65 73 66 65 58 56 44 53 63 58 46 37 35 34
67 64 70 70 76 90 96 91 87 87 82 79 78 70 62 82 77 71 68 68 68 73 80 83 83 70 58 55 68 77 62 72 70 62 62 62 65 56 60 45 35 35 36 37
43 46 41 45 56 76 95 99 100 98 96 94 96 95 92 92 73 84 89 84 77 77 76 71 67 67 56 52 47 50 64 56 58 61 59 59 62 59 55 58 48 39 40 38
73 54 44 47 52 71 100 97 98 100 97 100 90 94 100 100 100 78 68 77 89 76 59 48 40 38 44 43 48 52 46 46 58 68 70 61 71 65 74 71 58 54 43 43
86 79 64 67 74 84 91 90 97 94 98 96 100 99 99 99 95 94 77 69 64 45 34 38 40 41 41 45 46 44 44 52 58 62 58 64 77 72 68 82 73 68 52 50
99 98 95 93 89 89 98 99 100 96 88 93 91 100 97 92 76 64 47 42 40 36 34 34 34 32 34 34 39 40 36 38 39 41 46 56 60 62 59 91 90 88 63 57
91 100 100 96 96 100 100 100 100 99 96 90 72 62 58 60 53 60 64 47 35 28 28 25 20 20 21 19 20 27 40 37 42 42 50 58 66 66 75 95 100 98 75 68
82 78 77 84 85 82 75 66 63 60 65 71 60 74 81 77 57 40 36 28 20 17 13 11 12 13 13 18 21 21 27 36 38 43 60 64 69 69 81 96 100 98 83 76
60 54 51 47 62 69 75 70 69 81 93 94 80 64 53 47 42 38 35 27 15 9 8 8 7 6 8 12 15 21 20 49 37 45 48 58 66 71 79 100 100 97 90 84
64 57 59 73 94 97 71 84 88 87 85 79 76 67 64 78 52 42 21 9 7 5 5 5 5 4 5 5 9 17 25 49 36 41 48 56 68 76 100 100 100 98 91 89
63 68 83 100 100 84 85 83 85 70 72 73 98 62 92 84 58 50 16 8 6 5 3 3 3 5 6 9 14 18 26 34 30 42 51 64 78 98 100 100 100 98 98 100
82 87 77 91 90 82 91 82 65 72 71 90 80 94 82 81 82 66 32 16 9 5 4 4 4 6 6 7 13 27 30 30 40 52 64 90 100 100 100 100 98 100 99 100
80 80 84 79 89 96 68 74 64 78 96 100 86 86 78 100 100 90 68 48 29 19 15 9 7 12 16 30 27 29 40 55 62 73 95 100 100 100 100 100 98 96 100 100
83 79 85 96 99 66 64 63 62 78 98 98 100 93 85 100 100 100 100 87 62 53 49 40 35 38 50 56 62 68 68 75 95 100 100 100 100 100 100 100 100 100 100 100
81 93 100 95 78 70 100 91 58 65 85 100 88 91 75 98 90 100 100 100 100 99 96 88 86 84 88 86 80 97 100 100 100 100 100 100 100 100 100 100 100 100 91 95
93 99 100 84 58 75 100 80 61 64 90 89 96 94 79 100 83 92 100 100 100 100 100 100 100 100 100 100 100 100 100 100 100 100 100 100 100 100 100 97 90 94 96 92
100 100 96 80 60 97 76 72 68 77 95 98 89 100 100 98 95 97 95 78 87 98 95 100 100 100 100 95 98 100 100 100 100 100 100 100 100 70 71 91 92 94 87 81
100 96 92 83 68 77 62 73 97 100 81 100 96 97 87 95 100 100 100 81 86 100 100 100 100 100 100 100 100 100 100 98 100 100 100 100 100 100 99 99 91 88 98 100
98 98 96 80 69 78 73 70 93 100 73 100 97 89 84 96 90 92 99 100 100 90 69 76 93 100 100 100 100 100 100 100 100 100 100 100 100 96 93 100 100 100 100 100
100 100 97 77 65 66 74 79 81 95 92 100 100 88 77 94 100 100 95 93 94 100 100 92 91 97 90 86 90 95 97 95 93 90 88 94 100 100 100 100 100 100 100 100
100 93 100 85 78 70 60 57 66 79 97 100 100 99 77 84 97 100 90 96 98 100 100 100 100 88 90 94 93 88 88 94 99 99 100 100 100 100 100 100 100 100 100 99
88 100 100 93 83 68 56 58 59 71 82 100 100 89 96 85 86 100 99 94 90 98 100 100 100 96 100 100 100 100 100 100 100 100 100 100 100 100 100 100 100 98 92 87

GFSCGP_250_rhum_051.txt.gz
RH
90 81 96 80 96 100 100 100 100 100 100 100 100 100 100 100 100 100 100 100 100 99 76 69 67 58 56 50 58 62 54 51 49 48 43 42 36 32 34 57 44 36 32 39
100 100 84 90 83 88 100 100 100 100 100 100 100 100 100 100 100 100 100 92 93 84 93 100 92 67 65 76 83 68 60 60 62 60 54 66 75 56 51 50 59 74 55 32
100 100 100 85 78 81 90 100 100 100 100 100 100 100 100 100 100 100 92 82 83 81 85 90 80 74 88 84 83 84 70 60 59 49 52 59 74 79 80 64 72 66 49 44
100 100 100 90 88 79 76 85 98 100 100 100 97 100 100 100 100 100 100 100 100 100 98 100 93 79 74 82 74 70 75 67 68 63 60 52 54 68 78 76 63 64 75 56
100 100 100 100 94 92 86 88 86 87 100 100 100 95 100 100 100 100 100 100 100 100 99 93 81 67 63 73 71 68 71 77 77 77 73 66 49 56 68 72 66 75 85 75
93 100 100 98 99 100 99 80 73 75 77 88 100 100 100 100 100 100 99 97 93 89 83 74 66 64 73 77 73 68 71 74 70 68 70 62 54 46 61 66 72 69 69 68
96 90 97 100 91 97 92 99 95 75 81 83 83 89 100 100 100 99 91 85 82 77 72 71 69 64 64 64 64 63 61 62 60 54 55 54 44 39 57 72 76 79 68 69
79 77 71 82 80 77 73 78 87 94 89 75 72 84 93 78 63 74 90 91 85 76 72 72 75 72 72 73 62 52 50 52 51 51 55 57 51 42 45 64 79 93 95 70
50 62 67 69 72 71 76 68 66 62 60 63 69 86 100 100 81 58 53 61 69 74 66 54 52 59 60 54 51 60 65 56 49 50 41 41 50 57 72 72 86 82 74 76
42 42 46 49 46 50 54 58 53 53 58 69 96 100 100 95 87 86 80 70 67 66 71 72 68 50 44 48 41 36 39 38 30 31 35 42 57 67 85 97 87 71 75 78
64 63 60 52 53 67 75 79 75 74 70 82 96 100 97 93 85 84 87 87 80 57 41 33 35 45 35 26 24 29 30 29 31 39 41 47 53 61 71 78 77 72 67 66
100 91 80 99 100 100 100 91 83 80 87 93 85 100 100 99 97 87 79 61 41 32 30 26 28 30 32 29 30 29 29 24 26 35 54 56 62 64 57 58 61 68 69 75
100 99 100 100 100 99 88 88 98 100 99 86 83 80 84 94 84 62 51 50 44 32 20 12 11 12 12 14 15 18 22 24 28 29 34 43 48 53 54 59 63 74 80 83
91 91 89 94 92 88 84 78 73 72 65 93 88 93 82 61 52 44 51 64 64 28 8 5 4 4 5 6 6 6 8 8 13 28 32 36 42 47 51 50 60 70 87 96
79 71 69 70 75 69 67 77 79 91 97 88 82 63 71 57 63 74 78 61 68 31 10 4 3 3 3 3 4 6 8 7 8 13 27 42 53 56 50 56 76 76 96 100
62 73 78 87 76 77 92 95 100 87 77 75 67 61 63 97 64 80 74 68 63 35 12 8 4 4 4 6 6 6 7 9 10 23 39 54 68 61 56 72 97 100 100 100
71 72 88 91 95 89 93 89 72 78 82 67 53 71 82 73 88 91 79 86 63 63 51 19 8 7 7 9 8 12 15 21 30 44 52 56 62 67 81 100 100 100 100 100
77 82 86 85 82 71 73 72 83 68 65 72 66 67 76 98 92 91 89 91 89 87 64 43 30 28 28 31 31 39 38 46 52 54 63 70 84 100 100 100 100 100 100 100
75 81 78 69 72 78 84 100 66 64 65 89 72 70 77 90 80 91 80 64 88 100 100 98 86 80 73 69 71 72 73 79 96 98 99 100 100 100 100 100 100 100 100 97
81 76 66 72 82 92 81 80 77 70 82 98 94 97 96 88 82 97 80 89 95 100 100 100 100 100 100 100 100 100 100 100 100 100 100 100 100 100 100 100 99 97 81 82
80 71 70 77 97 90 80 71 64 78 78 100 100 100 100 96 94 74 86 81 90 86 100 100 100 100 100 100 100 100 100 100 100 100 100 100 100 100 100 100 100 85 79 79
77 76 73 91 98 96 78 62 60 76 99 100 100 100 100 94 100 90 87 78 88 82 97 88 91 69 99 100 100 100 100 98 100 100 99 96 80 79 69 72 79 94 97 100
82 78 86 93 100 83 77 59 76 85 90 96 99 100 100 84 89 100 100 86 87 100 90 75 82 92 80 82 77 84 68 91 88 93 94 89 100 97 96 100 100 100 100 100
88 93 93 95 100 91 73 68 59 77 86 86 100 100 100 82 80 92 100 100 97 91 91 99 100 100 99 88 75 97 98 84 96 100 100 100 100 100 100 100 100 100 100 93
95 90 88 91 100 94 70 58 61 70 73 88 100 89 98 95 74 87 82 100 99 99 98 99 95 100 100 100 100 100 100 100 100 100 100 100 100 100 100 97 91 88 88 92
95 99 100 97 97 98 80 62 59 56 67 76 90 83 92 78 76 82 79 95 92 86 92 89 94 90 96 97 95 97 97 100 100 100 100 96 90 88 92 92 89 92 94 96

GFSCGP_250_rhum_054.txt.gz
RH
92 83 91 97 94 100 100 100 100 100 100 100 100 100 100 100 100 100 100 100 100 100 96 90 95 85 83 79 70 64 54 52 51 51 41 36 46 58 81 74 76 80 80 59
100 94 99 90 87 87 100 100 100 100 100 100 100 100 100 100 100 100 100 100 100 100 100 100 95 94 100 97 82 73 69 65 64 61 61 49 49 60 64 75 87 95 87 100
100 90 92 92 85 90 88 100 100 100 100 100 100 100 100 100 100 100 100 100 100 100 100 99 98 100 100 95 91 88 78 83 83 83 67 69 62 63 68 74 80 100 95 94
98 90 84 84 97 93 95 96 100 100 100 100 100 100 100 100 100 100 100 100 100 100 100 100 97 95 89 88 85 87 92 92 92 96 95 96 88 71 54 45 43 54 56 57
100 100 100 100 90 85 100 96 92 98 100 100 100 100 100 100 100 100 100 100 100 100 100 100 100 100 100 98 96 100 100 100 99 100 100 84 62 64 62 56 70 73 66 84
87 82 90 94 100 100 97 87 81 79 84 99 100 100 100 100 100 100 100 100 100 98 100 100 100 100 100 100 100 100 100 100 99 99 86 72 57 66 71 73 70 76 73 67
86 98 99 94 90 100 100 95 85 86 92 91 88 98 100 100 100 100 100 94 92 86 84 90 100 100 100 100 100 100 91 87 82 72 65 63 63 67 76 74 67 67 75 82
55 71 90 98 99 100 100 100 83 83 80 87 92 91 84 96 100 100 100 100 100 99 97 95 89 84 80 79 79 78 76 74 69 65 58 54 54 58 62 64 63 61 65 74
44 59 88 88 96 100 100 97 99 94 89 87 97 100 90 80 78 92 99 100 97 95 97 97 98 93 84 77 70 64 58 55 52 50 46 44 44 44 48 51 50 55 65 67
54 69 60 80 99 100 100 100 98 86 88 87 88 100 92 85 63 62 68 71 74 74 74 73 74 72 70 65 57 50 49 51 47 43 47 48 46 42 46 58 68 62 59 61
60 63 78 88 100 99 100 100 92 82 82 78 77 73 67 62 60 53 54 57 61 64 68 60 52 58 56 45 38 33 28 29 32 37 43 56 65 61 59 56 54 50 70 81
52 66 88 95 96 93 97 88 72 71 84 78 77 82 66 50 51 54 66 71 62 54 43 44 45 43 40 35 31 25 22 21 26 26 32 42 49 42 41 42 48 60 63 65
59 64 76 74 81 78 77 77 72 73 70 60 87 74 76 78 80 82 85 69 61 74 66 48 37 26 22 19 15 16 21 25 26 26 26 32 39 43 45 47 49 59 67 75
95 100 100 100 90 82 80 85 95 97 80 92 91 100 81 93 95 81 60 67 68 55 45 38 25 18 12 10 6 6 6 8 9 11 16 21 28 39 40 42 48 58 59 70
92 100 96 92 95 95 100 100 91 86 100 86 81 95 89 80 71 68 57 52 54 59 61 44 23 16 7 5 3 3 4 5 5 7 10 13 20 28 40 53 63 66 62 64
95 95 98 100 100 99 99 89 78 83 99 88 82 86 74 63 52 54 61 82 89 79 68 55 25 15 9 4 4 4 4 4 4 6 9 11 14 18 39 52 76 80 71 63
98 92 91 85 74 70 83 92 98 95 96 83 74 61 56 50 60 71 73 85 99 79 67 68 46 30 14 8 8 9 9 9 10 13 16 18 22 36 70 91 100 94 73 70
74 76 78 66 76 98 99 97 97 91 79 72 69 62 52 65 69 78 74 100 100 86 82 81 70 53 38 25 24 28 28 17 29 27 28 40 54 84 100 99 98 97 100 100
69 76 74 84 89 95 88 93 88 75 84 76 63 56 56 62 70 66 81 100 100 68 67 94 80 76 73 60 58 59 62 69 66 67 70 74 94 100 100 100 100 100 100 100
84 82 82 85 88 93 79 74 98 85 69 67 62 65 62 70 85 95 71 100 100 75 65 84 95 90 94 96 82 91 90 100 100 100 100 100 100 100 100 100 100 100 100 100
83 81 80 74 80 78 72 95 93 75 79 80 88 75 76 84 100 96 72 100 100 100 82 79 75 77 98 100 95 88 100 100 100 100 100 100 100 100 100 100 100 100 99 91
80 80 74 75 86 85 84 99 78 73 79 89 100 77 75 90 95 96 90 86 97 97 100 79 75 89 69 72 99 100 58 71 95 100 100 100 100 98 82 92 89 76 69 68
79 77 69 77 78 93 88 90 74 76 84 92 97 100 85 98 98 88 98 83 100 100 100 89 89 80 74 88 67 68 77 73 69 71 79 81 79 81 86 78 75 77 89 90
78 74 65 74 71 86 86 98 76 59 74 85 88 97 100 74 95 97 100 85 82 92 98 92 84 100 85 64 67 66 70 72 74 79 79 87 91 89 88 91 97 100 100 100
79 70 70 70 70 91 100 92 88 70 60 75 78 84 96 87 83 92 96 92 92 96 92 97 87 79 94 100 93 80 92 100 100 100 100 100 100 100 100 100 100 100 100 100
84 80 71 76 72 98 100 100 81 69 62 62 65 80 81 78 71 90 75 82 87 95 98 98 94 94 93 97 100 100 100 100 100 100 100 98 96 93 96 100 99 92 82 78

GFSCGP_250_rhum_057.txt.gz
RH
68 73 67 83 89 100 100 100 100 100 100 100 100 100 100 100 100 100 100 100 100 100 100 100 100 98 98 96 89 94 87 83 73 64 64 52 51 64 57 64 60 66 59 53
72 100 81 94 90 77 99 100 100 100 100 100 100 100 100 100 100 100 100 100 100 100 100 100 100 100 100 99 96 90 87 83 83 80 80 71 61 60 62 63 75 75 80 70
95 100 95 62 70 62 79 92 100 100 100 100 100 100 100 100 100 100 100 100 100 100 100 100 100 100 100 100 99 92 88 83 84 100 100 96 84 73 80 79 73 84 77 56
90 100 99 71 99 86 78 84 87 100 100 100 100 100 100 100 100 100 100 100 100 100 100 100 100 100 100 100 100 96 88 84 96 100 100 100 92 88 81 81 76 72 69 73
82 100 100 97 86 97 98 88 86 82 100 100 100 100 100 100 100 100 100 100 100 100 100 100 100 100 100 100 100 100 100 99 89 87 93 95 85 85 100 100 92 82 71 77
58 80 100 100 90 96 100 100 94 87 80 97 100 100 100 100 100 100 100 100 100 100 100 100 100 100 100 100 100 100 100 100 100 100 96 100 100 100 100 100 100 96 83 79
93 91 92 95 90 96 100 95 87 82 78 86 98 100 100 100 100 100 100 100 100 100 94 90 93 93 92 92 98 100 100 100 100 100 100 89 80 83 99 100 98 99 100 95
100 100 100 100 100 100 91 86 90 88 96 97 95 91 100 100 100 100 98 100 100 100 100 96 89 86 87 90 90 90 92 89 87 90 93 94 99 91 89 91 96 91 84 85
54 93 100 100 100 100 95 100 96 100 100 99 100 99 90 98 100 100 100 96 96 100 100 99 94 96 98 95 90 86 84 83 81 77 75 74 71 69 70 73 75 82 82 77
40 60 96 100 100 98 98 100 100 100 99 100 100 94 90 87 78 86 93 97 92 83 81 88 96 99 100 100 99 96 87 83 82 77 76 71 69 78 85 79 67 61 60 63
51 59 77 90 98 97 95 99 100 93 96 100 100 86 77 72 62 66 70 70 63 64 68 73 76 74 68 64 63 65 63 58 52 49 46 45 47 48 49 52 51 53 59 62
57 62 67 82 96 100 98 100 100 96 96 100 99 88 78 66 59 51 50 48 57 64 70 60 53 57 55 51 49 48 42 32 27 24 21 21 26 30 37 47 52 58 68 64
81 74 85 87 93 97 91 91 93 100 100 98 98 78 68 58 65 65 62 60 65 65 60 53 55 57 58 47 30 20 19 22 25 25 24 24 25 29 31 33 36 44 56 61
78 80 87 91 85 84 79 88 97 99 89 91 88 82 71 78 72 62 58 60 58 59 68 79 68 54 43 34 26 18 14 14 13 13 16 16 18 22 34 43 46 44 54 58
75 69 64 74 87 96 96 93 97 92 98 82 79 70 78 81 85 78 74 82 76 71 60 58 50 41 35 24 14 10 8 8 7 6 7 9 12 16 33 48 53 68 82 84
92 98 99 89 86 90 96 97 88 82 97 84 98 99 83 93 86 85 78 58 50 54 62 79 72 65 48 30 21 10 6 4 4 4 5 5 7 10 14 24 42 69 86 96
100 100 100 98 100 100 100 95 90 99 100 90 96 100 90 78 64 51 53 56 62 81 83 92 77 74 56 38 23 17 10 7 6 6 6 6 8 9 12 18 35 70 90 96
96 100 100 100 100 100 100 100 99 93 90 96 95 86 69 59 52 54 61 70 86 87 89 90 78 88 72 55 47 36 20 13 10 11 10 11 13 14 19 47 78 97 99 100
100 100 100 100 100 93 84 82 84 97 100 88 74 68 63 57 52 57 69 79 86 91 100 89 71 68 76 63 63 54 47 45 37 40 32 28 50 54 68 95 100 100 100 100
100 93 80 72 76 89 91 94 96 99 96 84 78 68 64 58 56 70 70 69 84 94 93 83 85 68 59 53 57 57 59 58 69 81 84 94 98 100 97 88 100 100 100 100
67 65 67 87 100 96 92 90 98 96 84 86 77 67 57 54 63 67 83 77 94 98 100 100 88 84 82 71 52 48 43 43 48 48 50 64 70 76 86 86 93 88 90 95
64 73 88 89 84 80 83 90 88 97 94 84 77 73 66 62 74 70 86 84 91 98 92 96 100 95 96 90 89 66 60 57 68 74 70 70 68 72 85 100 94 95 88 90
76 80 86 81 74 80 81 80 92 97 93 89 84 97 94 78 82 87 79 89 84 92 92 76 79 84 76 85 92 83 71 77 95 90 96 99 100 100 100 100 100 100 100 100
86 87 86 79 76 76 89 92 79 92 91 80 84 79 88 97 100 95 84 92 95 76 86 99 96 88 77 69 76 70 74 77 97 87 97 100 98 100 100 93 91 90 75 69
84 84 88 82 75 85 96 98 95 95 100 74 62 73 76 80 89 92 98 88 94 90 87 80 88 100 100 85 79 94 94 94 96 96 94 96 97 97 97 96 94 95 99 100
87 85 80 77 72 81 92 94 100 99 98 89 73 60 65 66 81 80 83 93 78 85 86 96 99 100 99 95 78 83 89 86 83 87 95 100 100 100 96 96 95 94 93 93

GFSCGP_250_rhum_060.txt.gz
RH
32 56 33 78 89 99 100 100 100 100 100 100 100 100 100 100 100 100 100 100 100 100 100 100 100 100 100 99 100 100 94 94 84 93 91 91 97 97 99 99 97 100 98 88
24 56 59 63 78 89 97 100 100 100 100 100 100 100 100 100 100 100 100 98 99 100 100 100 100 100 100 100 100 97 98 100 98 97 100 100 97 98 100 98 97 91 84 83
32 76 94 82 88 98 100 100 100 100 100 100 100 100 100 100 100 100 100 97 98 100 100 100 100 100 100 100 100 100 100 100 100 100 100 100 100 100 97 99 93 87 80 78
38 100 77 59 81 89 90 97 96 100 100 100 100 100 100 100 100 100 99 98 100 100 100 100 100 100 100 100 100 100 100 100 100 100 100 100 100 99 96 92 85 88 88 80
36 85 100 57 73 81 67 71 83 84 100 100 100 100 100 100 100 100 100 100 100 96 99 100 100 100 100 100 100 100 100 100 100 100 100 100 100 100 100 100 100 98 92 93
41 30 81 100 75 97 74 79 77 76 91 97 100 100 100 100 100 100 100 100 100 100 99 94 93 94 96 100 100 100 100 100 100 100 100 100 100 100 100 100 100 100 98 94
30 26 69 100 68 73 96 90 88 94 72 84 95 100 100 100 100 100 100 100 100 95 96 100 100 98 99 100 100 100 100 100 98 93 92 93 96 100 100 100 100 100 100 100
55 59 75 100 100 83 87 85 97 98 99 90 81 80 91 100 100 100 100 100 100 100 100 97 100 99 90 86 84 86 90 99 100 100 99 97 92 88 87 89 93 98 100 100
30 44 72 88 100 100 83 100 97 100 100 100 100 97 85 92 91 99 100 100 100 100 100 100 96 90 92 96 95 96 97 92 84 80 86 84 74 66 62 55 51 60 81 99
33 59 74 86 96 96 90 100 100 100 100 100 99 91 87 80 77 79 89 97 99 95 93 100 100 100 100 98 99 99 99 98 94 89 92 96 90 78 70 68 74 81 89 93
52 71 90 94 97 100 100 100 100 100 100 100 94 84 84 76 78 76 72 79 86 87 89 90 92 95 100 99 96 93 93 93 89 83 78 73 73 77 79 81 82 85 88 89
50 56 85 95 100 100 96 96 100 100 100 99 85 87 77 76 81 92 90 83 84 81 78 82 80 74 70 68 67 66 61 58 50 43 36 29 24 20 21 28 33 40 52 62
56 53 62 90 100 100 100 100 91 100 100 98 92 84 81 84 92 80 78 77 74 74 71 64 55 53 56 52 51 52 46 36 30 23 18 17 21 24 24 24 24 27 35 45
65 61 70 78 86 85 100 100 100 100 96 94 88 90 75 86 85 77 79 85 75 72 78 76 63 62 57 55 55 36 37 31 25 21 19 19 19 15 15 19 23 26 30 38
73 69 67 67 76 93 100 100 100 100 99 91 89 74 77 78 76 72 79 85 83 72 68 75 81 74 61 50 37 30 28 22 18 12 9 8 8 8 10 11 16 22 32 38
67 71 76 77 81 89 97 99 96 97 96 77 84 69 78 81 90 94 88 75 92 91 77 75 59 44 45 50 41 35 32 26 18 9 6 5 5 5 5 7 11 20 33 45
69 65 64 75 82 92 94 93 91 94 87 75 82 91 88 87 99 98 90 79 74 54 50 54 48 62 61 72 60 44 38 29 26 13 8 7 6 5 6 8 11 22 34 48
78 78 77 75 79 85 89 87 86 86 84 86 93 97 96 94 86 86 73 53 52 51 57 66 68 65 94 81 73 54 54 44 37 26 19 12 8 7 10 17 27 38 47 62
87 89 93 91 96 97 92 90 99 100 99 100 98 96 89 88 78 59 51 54 59 66 94 89 83 76 76 85 82 68 57 55 47 51 36 25 20 25 30 47 63 81 83 83
100 100 100 100 100 96 94 96 99 96 90 85 96 100 87 70 57 58 64 61 70 76 67 88 95 72 72 85 85 85 63 67 60 51 50 52 62 67 75 77 67 93 100 100
99 98 97 96 96 94 86 82 81 92 100 100 97 84 72 58 61 65 67 67 76 74 68 82 79 84 93 84 76 71 80 71 70 81 80 76 65 60 55 59 57 56 56 59
100 98 90 79 75 71 76 86 95 99 92 92 86 83 71 66 63 61 62 66 78 84 88 77 74 86 87 94 78 64 68 79 76 62 64 80 86 76 68 70 76 83 89 95
71 59 65 67 73 85 98 98 98 96 97 84 87 96 80 70 67 69 76 84 80 86 76 69 62 66 71 76 70 68 64 72 80 87 82 84 85 95 96 95 96 98 98 100
58 61 73 83 88 90 91 92 94 92 92 80 95 99 86 80 76 94 96 90 100 97 91 79 73 78 89 93 94 83 82 82 85 91 94 100 100 100 96 97 100 100 100 100
65 74 83 80 88 89 92 92 95 94 92 87 89 97 96 81 74 79 79 84 94 99 89 78 96 91 93 95 95 77 79 87 89 86 86 91 93 99 100 100 100 100 100 100
75 82 81 97 94 86 80 76 74 94 100 99 100 93 77 67 60 66 66 78 83 93 90 77 81 96 97 99 98 95 94 87 91 99 96 100 100 100 100 98 93 96 93 90

GFSCGP_250_rhum_063.txt.gz
RH
13 11 11 13 16 25 98 100 100 100 100 100 100 100 100 100 100 100 100 100 100 100 100 100 100 100 100 100 98 94 90 93 88 85 85 86 90 89 94 96 98 99 100 99
15 12 13 14 14 18 26 100 100 100 100 100 100 100 100 100 100 100 100 100 92 95 100 100 100 100 100 100 100 100 100 100 95 97 100 96 93 100 100 99 100 100 98 98
20 16 15 16 17 18 32 64 100 100 100 100 100 100 100 100 97 98 99 100 100 100 100 100 100 100 100 100 100 100 100 100 98 99 100 100 99 100 100 100 100 96 98 100
21 21 21 27 20 20 29 43 100 100 100 100 100 100 100 91 90 85 86 87 88 88 95 95 98 100 100 100 100 100 100 100 100 100 100 100 100 100 100 100 100 100 100 100
23 22 27 26 18 26 30 40 53 100 100 100 100 100 100 100 100 91 99 97 87 82 86 92 92 100 96 100 100 100 100 100 100 100 100 100 100 100 100 100 100 100 100 99
24 30 37 64 25 26 31 38 39 73 100 100 100 100 100 100 100 100 100 100 96 91 91 91 91 87 80 80 87 96 100 99 98 100 100 100 100 100 100 100 100 100 100 100
25 30 39 63 44 35 62 37 51 66 86 100 100 100 100 100 100 100 100 100 100 100 97 100 98 82 80 78 84 93 94 99 100 100 100 100 100 100 100 100 100 100 100 100
24 25 31 58 60 24 44 58 55 78 86 98 98 100 100 100 100 100 100 100 100 100 96 99 87 81 84 88 92 93 92 94 90 86 86 86 84 85 93 98 100 100 100 100
25 29 30 45 43 28 22 41 60 70 77 98 100 83 78 88 89 90 100 100 100 100 100 100 97 90 92 97 93 86 84 81 86 96 100 100 100 91 86 89 87 83 87 90
27 29 43 51 61 56 47 47 77 96 100 100 96 94 84 77 75 75 75 86 100 100 100 100 100 100 100 100 100 98 100 100 100 99 96 93 92 86 82 80 75 72 72 77
28 38 34 58 66 68 73 51 84 93 100 100 98 98 96 93 94 89 74 69 75 85 95 100 100 100 100 100 100 100 97 96 94 90 83 80 78 73 72 70 68 68 68 75
34 41 55 61 71 58 65 72 87 86 100 100 100 100 100 96 91 87 81 76 72 67 64 64 74 81 86 100 100 96 88 83 82 78 70 67 66 63 51 38 33 32 34 39
39 44 58 73 82 90 89 88 75 72 90 95 92 92 98 99 97 98 85 79 76 70 66 64 75 85 89 88 83 75 75 72 65 56 49 48 41 32 23 16 14 16 17 19
54 46 53 71 89 91 94 100 96 96 98 86 84 95 85 100 100 80 77 76 79 73 72 85 90 87 80 77 73 65 61 54 44 47 44 39 31 24 22 19 17 14 12 14
63 52 52 56 77 95 100 100 100 97 94 91 96 96 100 95 87 80 84 78 70 77 80 76 73 72 75 69 57 58 62 52 43 40 34 28 23 21 17 16 15 13 13 14
85 74 65 60 71 95 100 100 100 100 100 93 87 77 88 85 83 91 93 76 80 80 83 78 81 78 66 55 73 53 48 43 40 28 25 18 14 9 10 9 9 8 8 8
80 85 85 76 82 84 89 98 97 90 83 80 81 92 94 99 92 87 79 80 78 89 88 94 97 81 58 50 56 54 50 62 51 46 30 18 11 11 8 8 8 9 9 10
75 79 88 88 88 90 88 88 92 91 81 84 88 89 93 89 96 97 89 85 92 94 82 65 54 47 52 54 78 56 65 80 69 56 56 50 36 24 16 18 13 16 22 38
65 67 64 69 78 87 94 97 98 95 93 94 95 92 95 98 100 100 98 91 77 56 50 51 54 52 59 69 73 65 82 70 81 63 64 61 67 52 42 36 31 46 61 66
78 83 80 77 76 76 77 79 84 94 100 98 100 100 97 95 96 95 74 62 55 52 53 60 60 59 64 76 72 71 86 68 84 77 69 68 72 72 70 70 59 55 60 59
95 97 96 97 93 88 94 98 100 100 95 100 98 97 98 94 84 68 59 60 60 63 62 65 66 67 70 76 75 74 63 62 66 83 82 78 81 78 81 77 73 79 81 80
100 100 100 100 100 100 97 95 98 96 97 92 92 90 92 86 70 59 58 63 65 64 69 73 84 81 69 68 78 71 67 64 68 72 76 82 81 86 87 81 78 85 91 93
98 92 94 100 100 98 90 84 86 98 99 100 100 97 87 81 69 64 64 65 76 85 80 80 81 80 80 74 69 84 82 70 66 84 81 88 95 92 91 92 95 96 95 96
99 90 90 80 79 76 83 91 97 97 100 100 100 97 86 89 86 82 82 86 88 91 99 88 88 82 82 78 86 87 84 69 66 70 80 84 82 79 86 91 91 95 99 100
80 64 64 63 69 83 88 91 94 96 97 99 100 85 84 89 93 89 88 84 78 76 79 87 99 80 90 88 84 85 80 70 71 71 73 71 78 86 91 89 88 92 98 98
54 55 58 68 77 75 88 92 92 95 100 97 90 99 86 90 98 89 71 64 68 67 76 86 94 75 76 86 88 84 81 82 83 82 83 90 98 100 100 97 98 97 92 80

GFSCGP_250_rhum_066.txt.gz
RH
9 10 10 10 9 10 10 47 100 100 100 100 100 100 100 100 100 100 100 100 100 100 100 100 100 100 100 98 95 81 77 84 88 91 84 87 83 83 81 75 83 85 83 80
9 12 11 11 10 10 10 17 82 100 100 98 100 100 100 100 100 100 100 100 100 100 100 100 100 100 100 100 100 100 94 99 96 93 94 91 90 94 95 92 93 99 87 80
13 15 12 11 11 11 11 13 32 98 100 100 100 100 100 100 100 100 100 100 100 100 100 100 100 100 100 100 100 100 99 96 85 84 83 96 99 100 100 100 100 97 98 100
15 17 14 12 11 12 12 12 17 52 100 100 100 100 99 100 100 100 100 100 100 100 100 100 100 100 100 100 100 100 100 100 99 95 93 98 100 100 100 100 100 100 100 100
19 19 16 14 13 15 15 14 16 21 56 100 100 100 100 100 98 100 100 100 100 100 100 100 100 100 100 100 100 100 100 100 100 100 100 100 100 100 100 98 96 100 100 100
23 22 19 16 16 15 15 16 16 18 28 97 100 100 100 100 97 95 99 100 100 100 100 99 99 98 96 100 100 99 96 97 97 100 100 100 100 100 100 100 100 100 100 100
23 24 18 15 15 15 15 16 16 18 22 83 100 100 100 100 100 98 91 90 92 90 85 86 87 85 86 86 84 75 76 82 96 94 95 91 74 79 92 100 100 100 100 100
26 23 24 18 17 16 17 16 15 16 19 38 95 100 100 100 100 100 96 88 79 74 73 73 70 69 76 77 71 64 69 76 71 76 87 74 74 81 94 96 100 100 100 100
23 24 21 18 16 15 15 17 17 20 23 24 34 67 100 100 100 100 100 92 92 94 100 98 91 74 72 73 69 66 70 74 74 77 73 74 81 92 87 88 91 85 82 85
24 23 22 19 21 17 18 17 19 22 28 30 40 49 93 100 100 100 100 100 100 100 100 100 89 81 84 83 83 84 81 75 75 78 83 82 76 73 79 85 91 90 91 89
27 29 32 30 28 25 19 29 32 36 42 51 46 48 64 99 100 100 100 100 100 100 100 100 98 100 100 100 100 100 100 100 100 100 100 100 99 92 96 99 97 93 94 100
29 28 30 34 39 35 29 24 45 70 85 76 71 69 70 74 82 100 100 100 100 100 100 100 100 100 94 90 92 91 92 97 97 97 99 98 88 77 73 76 83 78 64 58
31 33 40 43 35 35 39 45 48 54 69 96 99 100 100 97 91 98 93 80 75 79 84 81 70 60 63 71 72 70 72 70 67 64 61 59 64 61 52 45 36 23 17 15
36 35 39 47 56 48 59 66 70 67 75 92 97 100 99 100 100 100 92 90 98 86 77 77 83 83 80 77 73 65 60 60 64 64 60 58 55 48 43 30 17 18 16 15
37 38 37 38 50 83 80 81 81 82 71 79 87 100 100 100 100 100 100 100 98 93 86 83 88 80 74 72 63 63 67 64 58 53 60 59 50 43 36 27 19 16 16 17
57 53 40 41 43 45 66 78 85 85 85 85 91 86 91 97 96 100 92 96 99 90 81 80 79 76 76 70 69 64 56 51 63 68 55 50 44 32 27 19 13 12 12 11
74 80 69 60 57 60 73 89 95 96 99 100 99 96 95 91 91 94 91 94 90 88 83 84 74 70 66 64 60 56 74 69 53 56 56 51 46 36 31 35 30 31 33 31
74 82 78 71 71 82 84 89 92 97 98 96 97 94 92 97 99 100 97 98 99 88 80 78 74 72 72 76 73 64 54 52 56 62 61 58 54 46 46 56 54 61 53 49
76 82 86 73 71 76 79 81 86 86 84 90 94 96 98 97 95 98 97 88 85 85 91 91 92 87 80 59 52 52 58 62 62 66 69 70 60 59 56 58 67 66 67 65
68 71 80 93 93 85 77 83 85 88 96 99 98 100 96 89 83 78 80 89 96 100 98 88 62 56 51 52 58 64 69 69 67 76 67 67 71 69 68 76 70 65 68 63
80 76 73 73 82 88 93 97 99 100 99 100 100 95 94 90 88 99 100 100 92 74 62 60 55 52 56 68 66 68 75 75 76 77 62 64 65 74 79 90 85 82 76 74
99 100 99 100 97 94 94 98 97 95 99 100 100 100 100 100 100 97 88 76 64 63 60 59 60 67 68 75 84 71 77 91 87 86 72 64 64 73 74 72 71 73 72 77
92 94 99 99 99 100 100 100 100 100 100 100 100 100 100 95 93 84 70 65 65 67 71 72 76 77 79 82 81 78 81 86 97 96 81 64 66 67 76 80 78 88 97 98
88 88 89 95 89 95 96 100 100 100 93 83 89 100 100 100 96 76 72 78 81 88 91 87 86 92 94 91 86 84 87 92 89 72 66 67 71 76 79 77 84 95 99 98
96 94 96 94 94 92 87 90 81 84 83 89 98 100 100 98 92 82 78 87 84 83 83 76 75 77 85 90 82 80 82 85 81 76 77 77 73 75 79 76 85 99 99 89
92 90 88 84 84 78 73 72 79 86 91 92 96 99 99 95 87 88 96 92 87 80 67 66 70 71 78 87 82 81 86 85 85 80 75 76 78 79 79 91 95 94 91 90

GFSCGP_250_rhum_069.txt.gz
RH
10 9 9 10 13 11 9 12 17 86 100 100 94 100 100 100 100 100 94 98 100 100 100 99 100 100 100 100 100 95 94 91 82 78 80 84 74 70 82 82 83 86 90 88
7 12 12 11 11 11 9 10 13 43 98 100 100 100 100 100 100 100 100 94 100 100 100 100 100 100 100 100 99 100 99 100 98 95 100 99 92 97 90 89 86 88 83 76
12 17 15 12 12 12 11 9 11 16 55 97 100 100 100 100 100 100 100 98 100 100 100 100 100 100 100 100 100 100 100 100 100 100 94 100 100 100 96 98 92 81 76 78
14 17 16 14 12 10 12 10 10 14 19 56 100 100 98 98 100 100 100 100 100 100 100 100 100 100 100 100 100 100 100 100 100 100 100 90 89 93 91 83 81 80 72 78
18 19 18 16 12 10 12 11 10 12 15 28 100 100 100 100 100 100 100 100 100 100 100 100 100 100 100 100 100 100 100 100 100 100 95 94 82 80 74 66 64 58 67 76
23 26 24 17 13 11 12 12 11 12 12 16 26 100 100 100 100 100 100 100 100 100 100 100 100 100 100 100 100 100 100 100 100 100 97 87 73 73 81 75 72 73 66 66
28 25 22 16 14 11 11 13 13 12 12 13 16 84 100 100 100 100 100 100 100 100 100 100 100 100 100 100 100 100 100 100 100 100 100 93 88 86 91 82 76 75 80 84
32 26 22 17 15 14 12 13 13 12 13 13 15 35 100 100 100 100 100 92 98 100 100 100 100 100 100 100 100 100 100 99 100 99 97 91 88 90 86 76 68 66 70 74
28 28 20 16 15 14 12 12 13 14 14 15 14 15 69 100 100 100 100 100 98 91 90 96 100 100 100 99 98 100 100 97 99 95 85 74 70 68 74 65 63 61 61 63
23 19 16 16 15 15 13 13 14 14 14 14 14 15 20 58 100 100 100 100 100 100 100 94 86 86 86 86 81 79 78 77 77 72 60 52 44 46 52 54 60 66 76 84
25 21 21 18 19 18 17 15 16 16 16 16 17 15 18 23 71 100 100 100 100 100 100 100 100 92 83 76 79 66 64 61 54 53 63 64 74 83 95 98 99 98 100 100
28 28 25 24 22 21 21 21 21 21 20 19 19 22 22 24 45 70 100 100 100 100 100 100 100 100 96 96 85 66 79 78 76 88 96 92 99 100 97 90 87 83 80 73
30 30 30 30 28 24 24 26 27 30 27 26 25 30 34 37 43 74 98 100 100 100 100 100 100 100 100 100 100 97 98 100 100 100 94 93 84 62 49 52 63 52 46 38
32 32 35 35 35 30 32 35 49 50 53 55 43 47 53 63 79 79 73 88 100 100 100 100 100 100 100 100 100 99 100 96 85 79 68 60 57 58 58 57 52 43 43 26
35 35 36 39 40 40 38 40 38 60 71 71 84 91 91 90 88 89 82 78 99 100 100 100 100 100 100 100 99 87 72 64 68 67 68 65 61 59 51 51 48 43 40 32
45 41 38 40 38 35 39 40 46 50 56 71 80 94 100 98 100 100 100 92 90 100 100 97 89 88 84 73 69 70 72 70 67 64 57 58 59 61 56 51 45 40 34 33
38 38 40 40 43 50 47 50 68 69 62 74 87 99 98 90 89 91 100 100 99 96 97 98 94 98 98 87 81 73 70 67 65 60 62 67 66 57 49 47 49 49 40 36
48 50 49 47 38 39 44 52 60 74 90 80 78 81 82 80 84 98 96 96 100 100 100 97 100 94 86 83 78 70 68 63 62 69 71 56 54 55 52 48 49 55 52 47
78 79 79 80 69 52 49 59 69 83 90 87 91 98 95 94 93 92 94 100 98 94 94 97 82 83 81 75 69 64 66 76 73 55 50 54 64 62 60 54 53 61 57 49
86 79 74 79 73 72 65 77 86 90 97 100 100 100 100 100 99 100 99 91 93 96 97 97 91 75 79 75 79 90 72 55 56 57 60 68 65 63 63 60 59 64 59 54
81 88 84 80 84 79 74 79 85 97 96 97 95 98 98 98 96 96 94 93 84 76 76 79 82 88 90 89 67 58 55 57 62 68 66 68 70 61 53 56 60 69 64 67
78 74 72 81 89 96 89 87 92 96 95 94 99 98 99 100 99 96 88 87 84 82 91 96 99 85 67 60 58 62 65 71 71 70 74 74 66 58 58 56 62 64 73 71
89 94 100 94 85 77 80 83 93 96 95 95 98 99 97 96 95 98 99 99 99 100 98 73 68 63 60 63 70 76 79 79 79 77 70 68 74 82 62 58 63 78 78 74
99 97 89 92 95 96 92 95 96 95 91 92 90 96 95 100 100 100 100 100 94 74 72 70 78 83 89 92 97 98 98 90 80 74 74 81 87 78 67 71 80 79 77 79
97 96 98 97 91 90 96 98 96 97 93 94 98 99 100 100 100 100 96 78 76 80 89 85 86 85 78 77 77 75 89 86 82 78 77 81 81 73 80 86 81 80 85 93
99 90 88 91 96 90 95 90 93 95 94 97 100 100 100 100 95 98 95 81 79 82 82 81 80 75 76 70 70 72 81 88 79 80 83 81 78 83 86 85 85 89 91 91

GFSCGP_250_rhum_075.txt.gz
RH
7 10 9 14 17 12 12 12 14 15 16 12 12 26 66 100 100 100 100 99 98 89 99 90 78 90 90 93 92 91 91 76 74 77 77 76 74 70 70 69 80 78 80 89
6 11 13 14 14 12 11 11 14 14 13 11 15 16 25 72 100 100 100 100 98 93 98 100 98 99 100 100 100 99 86 88 85 79 78 76 75 85 94 99 100 93 99 100
8 14 16 14 15 14 13 13 13 13 14 14 14 18 14 40 97 100 100 100 100 98 100 100 100 100 100 100 100 100 96 92 96 94 88 87 95 100 100 100 100 100 100 100
11 10 15 16 15 15 14 14 11 12 13 14 14 16 18 18 72 100 100 100 100 100 100 100 100 100 100 100 100 100 100 100 100 100 100 100 100 100 100 100 100 100 100 100
13 11 13 16 20 16 16 12 10 11 12 13 13 13 15 17 22 62 100 100 100 100 100 100 100 100 100 100 100 100 100 98 95 98 98 100 100 100 100 100 100 86 100 100
13 12 13 19 21 17 16 13 11 11 10 10 12 12 14 16 19 24 47 83 97 100 100 100 100 100 100 100 100 100 100 99 95 95 100 100 100 100 100 98 100 98 83 92
14 13 16 18 19 19 16 15 12 10 8 10 12 12 12 12 15 20 20 40 71 97 100 100 100 100 100 100 100 100 100 100 100 100 98 100 100 98 96 97 100 100 95 85
12 13 16 19 20 21 18 15 12 10 11 11 11 11 12 12 13 17 23 20 47 74 100 100 100 100 100 100 100 100 100 100 100 100 100 100 100 100 97 99 98 91 89 83
9 11 13 16 19 20 16 14 13 12 11 10 10 12 13 12 12 14 20 28 26 60 83 100 100 100 100 100 100 100 100 100 100 100 100 100 100 93 94 91 95 85 99 95
12 13 15 16 18 18 17 15 14 12 13 14 12 12 13 13 13 14 19 32 31 38 77 87 98 100 100 100 100 100 100 95 95 98 98 100 96 93 99 97 96 98 100 100
11 12 16 20 17 16 18 20 20 16 13 15 14 14 14 14 14 14 14 18 32 29 56 98 100 97 98 100 100 100 100 100 100 100 100 100 100 100 100 100 100 100 100 100
12 12 12 14 17 24 23 23 19 17 20 23 17 16 14 14 15 14 14 16 24 29 28 35 76 93 92 96 98 100 100 100 100 100 100 99 100 100 100 100 100 100 99 81
20 22 24 27 28 27 26 25 28 26 22 22 20 19 16 13 14 15 14 14 15 21 24 27 26 42 91 100 100 100 100 100 100 100 100 100 100 100 100 100 91 84 78 67
34 39 38 40 40 38 38 35 33 30 26 24 22 20 17 15 14 15 16 16 15 17 20 25 30 30 45 89 100 100 100 100 100 100 99 100 99 92 82 91 80 79 75 87
35 39 44 43 48 48 43 40 36 30 26 26 24 23 19 16 16 16 16 16 16 17 20 21 25 32 36 40 49 61 64 70 84 93 86 91 90 92 91 90 78 92 100 92
33 34 35 36 38 40 49 46 41 37 35 32 27 26 23 20 18 17 17 17 18 19 22 29 34 38 40 43 52 64 67 95 99 90 100 100 100 100 94 99 100 100 100 100
32 32 34 34 36 34 38 41 44 41 46 52 52 34 34 26 22 20 18 19 19 20 21 27 51 72 87 96 100 85 83 91 98 96 98 99 100 100 100 100 100 100 99 88
34 34 33 34 34 31 28 35 44 44 62 61 63 55 52 45 26 26 23 22 22 23 23 22 30 84 98 100 100 100 100 100 100 100 100 100 100 100 100 100 100 92 77 69
38 42 43 43 34 33 32 34 32 36 43 55 68 75 63 48 55 46 31 27 28 29 32 33 40 56 71 96 100 100 100 100 100 100 100 100 100 100 91 80 84 80 78 64
63 55 45 47 46 36 37 33 35 37 43 56 57 69 73 64 71 80 76 60 57 52 49 48 53 58 55 68 78 82 95 98 95 81 89 89 80 83 87 85 85 69 77 72
78 77 68 69 58 39 52 46 43 40 42 46 47 51 70 69 71 84 96 91 87 87 84 82 82 89 89 88 89 91 83 84 84 90 92 96 98 97 88 73 80 76 58 52
67 72 77 74 66 66 62 58 54 46 41 54 60 58 62 64 66 65 70 70 69 75 75 77 87 93 93 92 94 96 100 100 99 100 99 96 92 79 80 74 58 52 56 56
54 52 65 64 78 80 73 76 77 65 53 49 52 54 62 70 66 69 76 77 78 82 90 94 94 94 100 100 100 100 99 99 90 92 91 82 84 69 55 54 57 61 60 60
53 54 56 58 65 79 79 75 78 77 73 66 68 68 70 79 86 84 88 89 94 95 95 93 95 97 100 99 97 98 98 98 89 89 88 66 58 60 64 68 70 75 74 78
56 59 67 68 72 72 70 74 85 87 80 76 82 85 85 92 97 97 99 99 90 86 85 87 90 88 87 89 91 94 98 99 90 69 62 68 71 72 73 80 84 85 77 82
56 62 65 70 73 70 69 72 84 80 91 90 88 91 94 92 94 93 92 90 87 86 84 88 89 93 98 100 99 87 79 74 71 72 74 71 71 71 72 75 82 78 75 79

GFSCGP_250_rhum_078.txt.gz
RH
6 8 7 8 12 13 14 13 13 14 16 18 21 19 22 57 71 78 65 47 77 100 100 84 60 75 100 100 77 82 97 100 99 100 97 93 89 84 86 84 83 86 81 88
6 9 11 11 13 14 14 13 13 13 15 16 20 18 18 19 44 59 68 55 54 89 100 100 85 85 86 100 100 99 97 100 100 100 100 100 97 95 92 90 87 88 88 85
8 11 13 13 14 14 14 14 14 13 14 16 19 21 15 14 22 39 67 71 52 68 98 100 100 99 97 94 100 100 97 81 83 92 99 100 100 100 100 99 98 97 100 98
9 10 13 13 16 15 15 16 14 12 13 16 17 20 18 16 15 24 52 72 70 63 80 100 100 100 100 100 100 100 100 100 89 82 85 91 100 100 100 100 100 100 100 100
11 13 15 12 18 16 16 15 15 13 13 14 15 17 16 16 15 15 35 57 70 77 74 88 100 100 100 100 100 100 100 100 100 100 100 92 91 99 100 100 100 100 100 100
12 14 16 18 20 17 16 16 16 14 13 13 15 14 16 15 16 17 20 22 46 67 85 86 98 100 100 100 100 100 100 100 100 100 100 100 100 95 88 86 86 89 92 93
11 14 15 19 18 17 17 16 15 14 12 14 14 14 21 15 15 16 17 19 16 19 52 87 89 98 100 100 100 100 100 100 100 100 100 100 100 100 100 100 100 100 97 87
11 12 12 13 16 24 17 16 17 18 16 15 12 14 19 16 16 16 17 20 18 17 18 60 96 98 100 100 100 100 100 100 100 100 100 100 100 100 100 100 100 100 100 100
17 15 16 15 20 25 26 18 17 16 16 14 13 14 17 15 16 18 17 21 22 24 18 19 43 88 100 99 100 100 100 100 100 100 100 100 100 100 100 100 100 100 100 100
15 20 17 19 20 17 22 24 17 14 14 14 15 16 18 15 16 17 18 20 27 23 19 18 18 21 52 89 92 85 88 97 99 100 100 100 100 100 100 100 100 100 100 100
10 12 11 12 15 20 22 18 18 16 14 16 16 17 17 17 15 16 16 16 16 17 18 18 18 18 20 28 49 76 81 84 90 94 95 95 100 100 100 98 100 100 100 100
14 17 16 16 14 18 21 18 17 19 18 18 21 19 18 18 18 14 15 15 15 15 16 16 16 17 17 19 20 21 26 44 73 82 84 80 90 90 92 85 89 100 92 100
13 15 18 20 19 22 28 27 30 25 25 32 26 22 19 17 17 16 14 15 15 14 14 15 15 15 15 16 18 19 20 24 39 68 94 95 100 96 90 96 91 96 75 100
21 21 19 20 21 27 23 26 32 30 30 38 36 26 21 19 18 17 15 14 16 16 16 15 15 14 13 13 16 19 22 24 36 47 56 86 96 93 92 100 98 95 89 100
20 30 38 38 40 43 42 48 47 49 43 40 38 36 26 23 19 18 16 15 14 15 16 16 15 14 14 16 19 24 28 30 37 48 65 96 100 100 100 98 100 100 91 89
28 34 39 49 58 62 61 59 53 41 38 36 31 28 22 21 19 17 17 16 15 16 16 17 17 17 16 17 19 22 25 26 28 33 34 45 64 62 75 89 80 76 74 94
26 27 33 37 40 47 51 48 46 45 40 36 42 32 27 22 19 17 16 16 16 16 17 17 18 18 18 18 18 23 26 29 38 42 43 58 72 74 89 78 88 78 100 100
29 29 31 35 39 39 43 41 46 50 56 62 58 48 33 28 24 18 17 16 16 16 16 17 18 18 18 18 22 32 46 59 59 62 75 74 81 100 83 80 100 100 100 100
26 28 30 32 33 35 37 34 29 30 40 51 58 61 58 45 32 28 24 20 19 18 17 18 19 20 23 30 51 52 74 77 97 97 97 100 100 100 100 100 100 100 100 100
30 27 29 31 32 32 35 38 42 48 42 30 39 50 50 49 42 31 28 26 25 22 21 20 20 21 24 31 52 62 88 100 99 100 100 100 100 100 100 100 100 100 100 91
43 39 35 33 33 32 40 36 37 40 44 48 42 38 40 46 46 53 43 37 39 41 36 33 32 30 28 30 35 47 69 95 98 98 100 100 100 100 100 100 98 83 87 80
53 59 52 48 47 46 43 40 37 38 37 42 48 57 59 55 48 52 56 46 50 52 51 53 59 61 69 70 69 65 60 62 63 71 86 93 96 95 87 80 96 88 85 70
44 47 62 67 69 62 60 54 49 46 43 40 39 44 47 52 61 59 61 66 59 58 62 67 71 86 92 89 89 91 91 88 89 92 97 98 95 95 100 95 85 75 73 61
44 48 52 60 68 67 71 71 68 66 62 61 46 41 50 60 69 76 91 72 62 73 72 75 79 81 82 90 94 97 100 99 100 100 96 96 92 91 90 79 78 66 60 73
51 52 54 56 60 49 60 71 77 76 81 82 74 63 56 62 75 82 87 90 89 92 89 94 93 91 88 89 91 92 94 92 90 96 99 99 96 88 87 78 62 72 74 74
54 63 62 62 52 50 54 67 70 75 84 87 81 74 71 70 67 75 76 80 89 92 96 96 95 95 96 95 95 93 92 94 94 94 93 96 98 90 73 74 77 74 74 70

GFSCGP_250_rhum_081.txt.gz
RH
6 6 7 7 9 10 13 16 16 16 15 15 14 16 14 20 20 40 18 19 78 75 93 100 100 100 97 97 94 85 100 100 100 100 100 100 100 100 100 100 100 100 100 98
6 7 8 9 11 12 13 14 14 15 14 14 14 15 15 20 20 24 29 15 24 77 64 88 98 100 100 94 100 100 100 100 100 99 100 98 98 100 100 100 100 100 100 95
8 9 10 9 10 12 13 17 15 14 14 14 14 15 15 19 20 21 24 18 14 30 78 64 89 100 100 100 100 100 100 100 100 100 96 96 99 100 100 100 100 100 100 100
8 10 9 9 11 14 15 17 17 14 13 16 14 17 17 19 22 21 33 21 21 20 59 84 81 85 100 100 100 100 98 100 100 100 100 100 100 100 100 100 100 100 100 100
8 10 12 10 11 13 17 16 18 19 15 16 17 16 18 19 20 22 23 19 17 17 36 77 90 84 82 100 100 100 100 89 93 100 100 100 100 100 100 100 100 100 100 100
9 12 13 14 13 16 17 17 15 19 17 15 16 16 18 20 21 21 21 20 20 17 17 44 70 82 78 96 100 100 100 100 98 98 97 100 100 100 100 100 100 100 100 100
8 14 18 17 15 17 15 14 13 16 16 19 15 16 18 18 21 20 20 16 17 17 16 22 50 66 84 77 89 100 100 100 100 100 100 99 97 96 98 100 100 100 100 100
12 17 20 16 15 16 16 12 14 16 19 19 16 17 19 16 18 20 20 19 16 16 17 18 30 72 73 81 79 85 98 100 100 100 100 100 100 100 95 90 89 99 100 100
8 14 18 17 17 19 17 14 16 20 19 22 18 19 18 16 17 19 17 18 19 17 16 18 18 26 64 89 94 89 90 100 100 100 100 100 100 100 100 100 100 100 100 99
10 12 12 16 19 20 19 23 22 19 18 19 20 22 23 17 16 17 19 19 17 17 17 18 18 18 18 28 62 89 87 86 90 93 98 100 100 100 100 100 100 100 100 100
9 12 15 19 24 32 39 42 40 35 26 22 22 23 22 21 18 17 17 18 18 18 17 17 17 16 17 17 17 25 44 60 72 83 89 88 93 100 100 100 99 100 100 100
9 12 14 22 23 28 30 27 26 30 45 36 24 24 23 22 22 20 18 16 16 15 14 16 18 18 18 18 18 17 16 16 18 26 41 64 83 91 93 89 87 87 90 93
11 12 12 14 17 18 26 38 44 36 38 35 35 75 27 21 20 21 21 18 15 14 14 15 16 16 16 17 18 17 16 16 16 16 16 20 38 60 69 77 86 89 87 86
11 13 14 14 16 22 27 25 30 32 36 52 71 74 35 21 21 21 22 22 20 15 14 14 15 16 17 17 16 16 16 17 16 17 17 17 17 18 19 22 24 25 24 27
12 14 14 14 16 18 22 25 33 47 60 51 74 68 38 32 30 23 20 20 21 19 16 15 16 16 16 16 15 15 16 17 18 18 18 19 21 21 22 22 22 25 33 42
16 18 22 23 23 26 32 25 31 51 57 66 61 61 34 24 24 23 20 20 19 18 17 16 15 16 17 17 17 16 16 15 15 15 16 17 18 19 22 26 30 34 45 63
23 19 24 31 35 31 34 31 36 44 54 63 63 48 37 33 27 24 21 19 18 17 16 15 16 16 15 16 16 16 15 14 14 15 15 16 20 24 30 38 46 48 52 69
25 25 24 30 31 38 38 46 48 53 47 48 45 40 33 30 26 25 23 20 19 17 16 16 17 17 17 17 16 16 16 16 15 15 18 22 27 29 32 45 68 71 56 75
25 28 27 30 30 33 34 42 41 42 40 42 44 42 34 32 28 26 23 22 20 18 18 18 18 18 19 19 18 18 17 17 17 26 35 33 47 48 49 56 69 75 73 86
29 27 30 32 36 32 36 40 42 38 34 34 40 43 37 38 35 29 26 21 22 21 19 18 19 19 18 18 18 19 20 20 21 25 33 41 44 49 70 65 65 76 94 100
39 34 31 30 31 35 35 38 39 42 45 44 39 38 34 34 38 41 28 24 25 30 29 29 26 22 22 21 21 21 20 22 29 33 50 61 77 98 100 100 100 100 100 100
43 43 40 35 33 33 36 38 37 38 40 45 53 62 54 45 41 37 35 33 34 31 31 35 34 32 31 26 26 26 28 32 38 47 67 74 90 100 100 100 100 100 100 100
40 48 53 57 55 47 43 42 39 37 40 42 43 47 54 62 52 53 54 38 44 43 48 46 42 43 43 41 40 40 43 43 48 57 75 87 100 100 100 97 98 100 100 98
32 54 60 61 60 65 68 68 60 54 43 41 45 50 48 48 52 54 59 70 68 62 69 59 59 62 64 67 77 75 74 74 77 82 85 85 83 84 92 99 100 100 100 99
22 39 59 60 61 62 68 74 77 73 66 59 52 51 55 51 48 51 51 61 72 80 81 82 77 72 75 82 88 93 100 100 100 98 98 98 100 100 99 99 100 100 100 92
19 27 42 53 54 53 60 58 57 66 80 83 75 69 70 65 54 50 52 60 64 72 83 89 83 84 82 86 84 83 84 85 87 88 91 97 100 100 100 100 100 96 94 91

GFSCGP_250_rhum_084.txt.gz
RH
6 5 6 7 8 8 12 13 13 17 21 23 18 16 15 14 17 16 18 17 19 18 17 55 90 100 100 100 70 74 97 100 100 100 100 100 100 100 100 100 100 100 100 100
5 8 7 7 9 9 11 13 12 11 15 20 20 18 16 15 16 16 19 20 16 18 17 17 78 100 100 100 100 74 72 90 100 100 100 100 100 100 100 100 100 100 100 100
7 9 9 8 9 10 11 13 15 12 13 17 16 15 15 15 15 15 17 19 16 16 19 17 26 87 100 100 100 97 90 67 92 100 100 100 100 100 100 100 100 100 100 100
9 9 11 12 9 9 11 14 14 12 11 16 15 16 14 14 15 16 17 20 18 17 18 20 19 63 98 100 100 100 98 100 96 89 99 100 100 100 100 100 100 100 100 100
8 8 10 12 11 10 12 12 12 11 14 18 19 17 17 15 17 18 18 20 19 16 17 18 20 20 81 100 100 100 100 100 100 97 98 100 100 100 100 100 100 100 100 100
5 7 11 14 12 11 12 11 12 13 13 16 19 18 18 18 20 19 18 20 21 19 18 14 16 21 34 95 100 100 100 100 100 100 100 100 96 93 97 97 98 100 100 100
4 5 10 16 13 13 14 12 12 12 12 18 18 19 20 18 18 19 19 20 20 22 21 17 15 17 23 44 96 100 100 100 100 100 100 100 100 100 100 99 100 100 100 100
4 6 11 15 17 16 12 13 13 14 18 18 16 22 23 18 17 18 20 20 22 22 26 21 19 17 17 22 53 89 100 100 100 100 100 100 100 100 100 100 100 100 100 100
5 7 13 20 21 18 15 15 15 16 18 18 19 25 24 18 18 17 18 20 22 23 22 21 18 17 15 16 18 52 90 94 98 100 100 100 100 100 100 100 100 100 100 100
4 6 13 19 21 20 16 16 18 20 20 20 19 28 26 21 20 21 19 20 22 22 21 21 20 18 17 15 16 18 30 72 84 90 94 98 100 100 100 100 100 100 100 100
8 10 12 15 18 20 19 19 23 26 22 20 27 33 31 22 22 23 23 22 22 23 21 21 21 20 18 16 17 17 18 19 32 67 87 90 90 93 95 99 100 100 100 100
6 7 11 19 23 27 29 24 29 46 45 40 48 42 36 25 24 29 26 26 22 21 21 19 20 22 21 20 20 20 19 19 18 18 26 55 87 100 99 99 100 100 100 100
7 9 11 16 25 29 30 31 40 43 43 49 56 71 75 41 23 28 27 24 24 21 20 19 17 17 18 18 19 21 21 21 20 19 20 19 21 34 52 70 79 94 96 95
8 8 13 16 24 28 38 42 45 41 49 56 73 97 52 43 32 28 26 27 27 25 24 21 19 17 15 16 17 18 18 19 19 19 20 19 19 20 19 19 20 21 22 22
9 9 12 15 19 23 26 32 37 54 78 69 84 90 83 51 41 37 29 27 28 28 23 20 18 17 16 15 14 15 15 15 16 17 17 18 18 19 20 20 19 20 20 20
13 10 10 14 14 20 30 35 43 49 57 81 94 100 80 61 40 34 30 27 25 26 24 21 18 18 16 16 16 16 16 16 16 17 17 18 18 18 18 18 19 19 22 19
18 15 12 11 13 16 25 31 44 46 49 55 75 63 72 66 34 24 23 23 20 21 21 20 19 18 17 17 16 15 14 14 14 14 15 15 16 16 17 17 18 24 22 23
22 22 20 16 15 16 15 21 26 31 39 58 67 67 57 52 31 23 20 20 20 19 19 18 18 17 17 16 15 14 13 13 13 13 14 15 16 16 17 16 17 18 19 20
28 26 25 26 25 23 19 20 22 23 25 40 48 43 38 40 36 31 23 24 21 19 21 17 17 17 16 15 15 15 16 15 14 14 15 16 17 17 17 17 18 22 24 28
32 29 28 28 26 27 34 33 31 33 33 39 41 39 36 38 39 32 31 35 32 26 23 23 20 18 19 19 17 15 17 18 18 18 19 19 18 18 18 19 22 30 50 54
32 39 32 30 30 31 36 40 40 42 40 41 38 36 34 31 33 37 37 35 32 31 27 25 24 23 22 22 22 21 20 20 20 20 19 19 19 20 22 29 34 53 55 58
22 36 41 38 33 30 32 34 35 38 38 39 41 43 40 37 39 47 42 36 39 30 35 30 29 23 22 23 24 24 23 22 21 21 21 21 21 22 22 23 30 54 61 92
22 31 45 49 48 41 37 35 38 41 42 43 44 47 43 41 43 52 56 55 51 44 40 48 42 38 33 31 28 27 26 25 25 25 24 22 23 28 42 65 71 79 86 94
21 25 32 51 59 61 61 54 49 44 44 47 44 45 45 40 37 38 53 62 66 70 72 62 72 66 55 46 46 43 44 44 37 31 32 39 43 55 60 63 77 81 97 100
16 23 29 38 56 65 72 76 78 72 69 67 62 54 53 50 44 41 41 50 63 69 76 72 74 78 85 68 59 57 62 70 73 72 72 72 73 77 85 89 93 99 100 99
17 22 25 32 46 58 71 72 78 81 88 96 88 81 70 61 61 60 55 49 46 51 63 78 73 77 90 88 87 86 89 94 96 93 91 94 98 98 96 98 100 100 100 100

GFSCGP_250_rhum_087.txt.gz
RH
3 5 6 6 4 6 9 10 12 14 17 20 19 16 15 16 18 17 14 15 16 19 25 54 80 75 96 97 100 100 99 78 92 100 100 100 100 100 100 100 100 100 100 100
3 6 8 6 5 7 8 11 11 12 16 18 21 20 15 15 17 17 15 16 17 18 19 28 47 58 82 99 100 100 100 100 72 85 98 100 100 100 100 100 100 100 100 100
3 4 8 8 7 6 8 11 14 13 13 15 18 21 15 15 16 16 17 16 18 19 22 20 19 19 40 90 94 100 100 100 100 87 95 99 100 100 100 100 100 100 100 100
3 3 5 10 8 8 8 12 15 14 14 15 15 18 19 16 16 16 16 16 19 21 20 22 20 18 17 54 94 100 100 100 98 97 85 100 100 100 100 100 100 100 100 100
4 4 7 14 14 9 10 12 13 13 13 13 13 17 21 21 17 17 16 16 16 21 21 21 22 19 18 17 42 98 100 100 100 100 76 80 100 100 96 100 100 100 100 100
3 4 7 16 16 14 11 11 11 12 13 15 15 19 21 23 22 18 16 17 15 16 19 21 22 22 21 20 18 34 96 99 100 92 100 83 100 97 100 100 100 100 100 100
3 4 8 18 18 14 12 11 10 11 12 14 16 20 22 19 19 20 19 18 17 15 16 18 20 21 21 20 19 19 22 59 86 87 95 97 96 98 96 97 100 100 100 100
4 4 7 11 15 16 16 13 12 12 14 16 15 21 22 20 18 17 18 18 18 18 17 17 20 18 18 21 19 18 18 19 38 78 90 99 100 100 100 99 95 95 90 90
5 4 6 9 8 11 16 14 13 15 15 17 17 22 21 18 18 18 16 16 16 17 18 18 19 17 17 16 20 19 19 20 20 25 81 98 100 100 100 100 100 100 100 100
6 6 6 7 8 20 21 20 17 16 18 20 19 21 20 17 20 19 18 17 19 20 18 19 22 22 19 17 15 16 19 19 20 20 24 74 100 100 100 100 100 100 100 100
6 8 9 12 20 23 25 25 20 20 20 22 26 22 19 16 20 22 21 22 23 23 21 21 23 23 23 21 16 13 14 16 18 20 21 24 57 100 100 100 100 100 100 100
5 6 9 11 18 21 24 24 20 21 29 35 37 27 22 19 23 28 24 22 22 23 22 22 22 23 22 20 20 16 15 15 16 19 21 20 21 34 87 98 100 100 100 100
6 8 11 18 25 30 33 32 31 32 31 41 44 39 28 22 21 24 27 26 24 21 21 22 21 21 22 22 21 19 16 14 15 16 17 20 21 22 29 42 75 96 100 100
6 8 16 20 24 33 29 32 43 43 64 67 69 54 37 23 22 22 31 34 31 24 20 20 20 20 19 19 19 19 20 19 17 16 17 18 19 20 21 26 31 35 47 62
7 8 12 16 22 28 29 31 36 43 47 56 64 57 36 26 25 33 40 38 31 25 23 21 21 21 20 19 20 19 20 21 21 20 19 18 17 18 20 21 21 22 24 24
12 9 9 15 18 22 29 35 39 43 50 78 86 83 46 34 40 50 42 32 33 34 28 25 19 16 16 17 17 17 19 21 21 20 20 19 18 18 18 18 19 21 21 21
14 14 11 11 14 24 34 38 52 67 73 76 82 63 68 53 50 51 40 31 32 33 32 29 24 20 17 17 18 17 18 18 18 17 17 17 17 17 19 19 19 21 21 22
16 16 16 12 13 16 22 36 49 62 74 84 81 73 71 76 64 52 33 27 29 32 32 32 30 25 22 20 18 17 17 17 16 15 16 16 16 16 15 16 17 17 18 21
17 18 19 19 15 14 15 24 34 43 52 62 65 58 56 56 62 47 31 26 23 19 19 18 19 19 20 20 19 18 18 18 18 18 18 17 16 16 16 17 18 18 19 19
20 21 21 21 20 21 20 18 20 24 34 40 33 34 40 39 37 27 34 28 20 23 22 22 20 19 18 18 18 17 17 17 17 18 18 18 17 17 18 18 20 20 20 20
19 30 30 26 25 24 24 26 27 25 22 22 23 25 27 30 34 36 32 30 30 29 28 30 30 27 25 23 20 19 19 20 21 20 21 19 19 18 20 21 22 21 21 23
17 25 35 37 33 33 31 32 32 37 36 37 36 34 34 33 32 33 35 34 34 35 33 34 33 30 33 30 25 23 23 25 24 24 24 24 22 21 21 22 23 22 22 22
17 21 32 41 43 42 40 39 38 41 41 42 43 41 40 39 39 38 40 42 47 51 51 40 40 38 35 32 33 29 26 27 27 26 26 25 26 25 24 24 24 24 24 24
16 17 22 34 44 46 48 44 46 43 44 46 51 50 46 44 40 40 42 45 50 53 57 55 58 58 60 50 46 45 39 31 28 26 26 26 26 25 26 28 29 29 29 35
18 18 20 27 35 44 54 58 60 60 55 54 56 54 49 46 40 37 38 40 44 48 55 62 66 66 77 89 86 75 68 54 44 41 38 37 35 34 35 36 44 55 62 71
15 19 19 19 27 38 54 63 77 75 76 85 88 87 82 74 62 52 43 40 41 43 46 54 62 69 66 69 87 88 90 84 82 76 69 68 60 61 58 60 65 67 72 76

GFSCGP_250_rhum_090.txt.gz
RH
2 3 5 6 5 5 6 8 12 22 20 19 18 18 16 14 14 14 14 14 17 20 19 19 17 17 37 58 85 77 76 94 100 100 100 98 100 100 100 100 100 100 99 90
2 3 6 5 5 6 7 9 11 15 19 20 17 18 17 15 15 15 14 14 16 20 21 21 17 16 18 49 61 85 77 93 100 100 100 99 100 98 100 100 100 100 100 100
2 3 3 6 6 6 6 9 12 14 19 21 21 18 17 16 15 15 15 14 15 19 21 20 19 17 17 22 33 73 90 83 100 100 99 85 100 91 100 88 98 100 100 100
2 2 4 6 8 6 8 8 12 14 17 19 21 22 17 17 17 16 16 16 17 18 20 20 19 19 16 17 18 34 85 92 99 100 100 100 100 100 100 100 90 100 100 100
2 2 4 5 7 8 9 10 12 14 14 14 19 20 18 18 18 18 17 17 17 18 17 20 21 20 18 17 16 23 69 94 100 100 100 100 100 100 100 100 100 100 100 100
2 3 4 4 8 12 10 10 12 12 13 14 15 18 18 21 22 19 16 16 16 17 17 18 20 20 19 19 19 18 44 91 99 100 100 100 100 100 82 97 100 98 100 100
3 3 4 5 8 15 12 11 12 12 13 15 14 16 22 24 22 20 17 16 16 18 19 19 19 19 20 20 20 17 22 57 94 100 100 100 100 100 100 100 100 94 100 100
4 4 5 5 9 16 13 11 11 12 15 17 16 18 22 20 21 16 15 17 17 17 19 21 21 21 22 21 20 20 18 25 53 78 94 100 100 100 100 100 100 100 100 100
4 5 4 5 7 14 16 13 12 14 15 20 20 25 23 17 18 17 15 16 17 16 19 20 21 21 21 22 22 22 20 19 20 20 23 53 100 100 100 93 81 85 100 100
4 5 6 6 7 12 16 17 15 16 16 18 19 22 23 18 19 18 19 17 17 17 17 20 20 20 20 22 22 23 23 22 20 18 19 19 36 93 100 100 100 90 85 90
4 6 7 6 6 14 20 20 17 17 18 21 22 21 20 17 18 18 18 19 18 16 16 18 21 21 21 21 22 22 23 23 22 20 18 19 19 20 32 66 86 95 95 99
4 6 7 8 12 24 30 30 25 20 19 23 24 24 24 22 17 21 23 23 22 19 17 16 17 21 20 21 20 19 19 20 20 21 21 21 20 20 20 21 21 23 30 52
5 8 9 10 17 27 28 32 33 30 27 25 26 28 26 23 16 17 23 24 23 22 20 18 18 17 20 20 20 21 20 19 18 18 19 19 20 21 21 20 20 21 22 23
5 9 14 15 16 28 29 30 30 29 30 33 34 26 23 23 17 19 24 26 26 25 23 22 19 18 17 16 16 16 17 19 19 20 20 18 19 18 18 20 21 22 22 24
6 9 13 22 27 32 34 34 36 36 35 38 36 33 30 32 25 20 23 26 26 28 24 22 21 20 18 18 18 18 18 18 18 18 18 19 19 18 18 19 20 20 22 24
9 7 16 19 26 29 32 34 33 38 42 44 40 39 26 25 26 24 26 24 28 30 25 22 20 19 19 18 17 16 17 17 17 17 17 17 17 17 17 17 19 20 20 22
14 10 9 18 23 24 31 35 35 33 35 42 46 37 33 33 30 34 30 29 29 27 24 24 23 20 19 18 18 17 16 17 18 18 19 18 16 17 17 18 17 19 20 21
17 16 12 12 18 26 32 38 39 38 40 45 46 48 50 49 42 40 43 37 31 24 24 26 28 24 20 17 16 16 15 16 17 18 18 18 19 18 16 17 17 18 19 21
11 18 20 15 14 18 26 38 43 49 59 61 58 62 66 63 55 43 39 35 32 24 23 31 33 31 30 26 21 17 16 15 16 17 18 19 19 19 19 18 18 17 20 21
10 16 21 22 19 16 18 28 33 38 47 55 58 54 57 64 57 49 48 39 34 33 28 25 32 31 30 33 28 26 23 21 18 18 18 18 19 20 20 19 19 19 19 21
11 11 17 24 24 23 21 22 26 33 44 39 40 44 52 54 46 52 54 46 42 37 31 28 31 27 26 24 22 22 21 20 20 19 18 18 19 19 20 20 21 23 22 24
13 14 14 18 27 28 27 29 31 32 29 31 40 42 48 50 48 44 43 41 38 42 38 34 32 28 32 33 30 27 25 24 25 24 23 22 21 22 23 25 26 27 24 23
12 15 16 17 25 28 31 29 28 31 35 38 38 36 36 37 36 36 38 38 39 44 48 46 43 44 43 41 40 36 36 30 28 28 26 26 28 27 28 27 27 28 27 27
11 14 17 20 26 30 33 37 36 34 35 34 35 38 40 42 44 48 50 49 50 50 50 50 53 56 64 57 53 60 49 46 43 41 33 30 29 29 31 30 28 27 27 28
10 14 17 19 25 32 35 43 46 43 40 41 43 43 43 41 42 44 46 47 48 47 47 48 51 51 60 64 77 80 74 63 63 60 58 49 38 32 31 31 30 33 37 35
9 13 16 21 23 30 36 43 51 55 55 52 54 56 58 54 50 48 47 49 47 43 43 43 43 48 54 57 70 82 84 81 81 81 79 73 63 60 52 46 44 44 45 47

GFSCGP_250_rhum_093.txt.gz
RH
1 2 3 4 5 6 8 8 9 13 13 17 21 20 15 17 14 14 18 19 17 18 18 17 17 17 17 31 69 86 100 94 94 82 69 85 100 100 100 100 100 100 100 100
2 2 3 5 5 5 8 10 9 10 12 18 21 20 17 17 14 14 16 18 17 18 19 17 18 17 17 16 26 63 81 91 84 81 90 81 98 100 100 100 100 100 88 86
2 2 2 4 5 5 7 9 10 12 14 17 23 21 19 20 16 14 15 15 16 17 18 17 20 18 17 16 16 43 66 81 86 71 85 98 96 100 100 100 100 100 100 99
1 2 2 3 5 5 6 9 10 10 14 16 24 25 24 21 18 17 16 16 17 16 17 16 22 20 19 18 16 20 45 57 62 84 92 96 100 100 100 100 100 100 100 100
2 2 2 3 5 7 7 8 8 9 13 16 20 25 28 21 19 19 17 16 17 16 15 15 20 21 20 21 20 18 18 20 28 76 89 100 100 100 100 100 100 100 100 100
2 2 2 3 4 9 8 8 9 10 13 14 18 26 24 26 27 22 20 18 15 14 15 15 18 21 19 22 21 19 19 18 18 24 77 100 100 100 100 100 100 100 100 100
2 2 3 3 5 9 9 8 9 10 11 15 18 23 29 32 32 26 22 18 17 15 16 16 18 21 19 21 22 20 19 19 19 16 19 54 99 95 95 100 100 100 100 100
2 3 3 3 4 9 12 9 9 11 12 14 17 20 27 31 29 28 25 21 19 18 16 18 18 18 18 18 22 22 22 21 20 18 15 17 42 100 97 100 100 100 100 100
3 4 4 4 6 11 14 12 10 11 12 15 17 25 28 25 30 30 28 27 22 18 17 19 20 19 19 18 19 22 23 24 22 21 19 17 19 52 80 100 100 100 100 100
3 4 4 5 7 9 14 15 13 11 13 16 21 23 20 22 28 30 31 30 25 22 19 18 20 20 21 19 20 21 24 24 24 23 21 19 19 20 38 89 100 100 100 100
3 4 5 5 5 10 18 19 14 12 13 17 21 20 22 23 21 26 29 27 20 20 21 20 20 20 22 23 20 19 21 24 24 24 24 23 22 21 21 33 77 100 100 100
4 5 6 7 8 16 22 23 20 15 15 19 20 21 23 27 24 26 28 23 17 14 15 17 20 21 22 23 24 23 20 23 24 23 22 21 20 21 21 20 20 55 100 100
4 5 7 9 13 18 24 28 26 21 18 20 23 24 25 34 32 27 27 22 18 17 15 15 16 18 20 23 25 25 24 23 24 25 23 22 22 22 21 22 22 21 28 53
5 5 7 14 24 23 25 27 28 24 20 23 22 22 23 27 30 26 29 24 24 24 21 19 17 17 19 20 20 22 25 25 22 21 22 22 22 23 22 23 22 22 21 22
8 6 7 12 27 32 33 35 33 30 24 22 22 20 22 32 41 31 26 23 27 29 24 21 19 17 16 15 17 17 18 21 24 22 20 20 21 21 22 21 22 22 22 22
12 9 8 8 15 18 25 30 32 35 33 29 24 23 25 32 36 32 29 26 28 31 27 24 22 19 18 16 15 15 15 14 15 18 21 21 20 20 20 21 22 23 23 22
15 14 12 10 12 14 16 24 28 34 32 32 30 24 27 32 46 44 33 26 26 31 32 28 24 22 19 18 17 16 14 14 14 14 15 15 16 17 19 20 20 21 21 23
11 18 17 16 13 14 18 22 27 33 37 36 34 34 36 33 35 35 29 25 24 32 33 32 29 24 22 19 17 17 16 16 16 15 15 15 15 15 15 17 18 18 19 20
12 13 20 18 17 21 22 26 30 32 39 42 38 35 35 40 35 31 38 40 40 40 36 30 28 24 22 21 20 20 17 16 16 16 16 16 16 16 16 17 17 17 18 18
11 13 16 22 21 21 25 31 32 38 42 45 41 40 44 45 42 46 43 46 48 43 38 36 32 27 27 26 24 22 20 18 16 16 14 14 15 15 16 16 15 16 16 15
11 12 18 20 22 25 24 26 35 38 52 41 45 51 54 60 52 50 49 43 43 41 40 34 32 33 34 34 35 31 29 26 26 24 21 20 17 18 18 18 18 19 19 19
15 11 14 18 26 30 27 26 25 29 35 33 39 42 45 47 50 52 51 44 46 48 48 43 37 38 43 44 41 39 38 34 32 28 24 21 20 22 22 21 21 22 21 22
15 11 12 16 22 28 34 33 32 30 30 32 33 36 40 45 50 54 53 52 53 56 55 50 48 43 43 42 41 39 39 34 31 28 26 26 23 21 20 22 22 22 24 25
12 12 10 14 18 23 31 42 40 36 39 38 39 37 35 35 37 42 49 56 55 48 42 43 46 47 47 49 49 49 44 40 42 43 40 36 34 31 28 26 24 23 23 24
10 10 9 11 16 20 25 29 37 43 42 39 40 43 46 47 49 52 56 60 63 63 60 57 50 45 44 44 45 44 48 52 51 56 58 52 55 49 46 37 32 29 28 30
14 9 9 10 14 19 23 28 31 40 49 50 46 40 40 42 43 46 49 49 51 51 52 49 48 49 48 48 49 52 55 59 69 74 78 70 71 61 59 61 52 44 42 38

GFSCGP_250_rhum_096.txt.gz
RH
2 2 2 2 3 3 5 8 12 17 16 15 22 29 20 22 22 21 19 17 15 23 27 19 18 18 73 58 54 66 77 81 87 84 76 60 68 81 89 97 100 100 100 100
2 1 1 2 3 4 5 6 10 13 14 14 18 19 17 19 24 21 22 21 19 21 29 25 21 18 18 39 50 51 53 60 73 81 89 71 57 58 77 100 100 100 100 100
2 1 1 2 2 4 4 7 9 12 13 14 20 20 19 15 22 24 24 20 17 16 19 24 27 19 18 17 23 18 25 27 41 59 66 76 71 67 72 90 92 100 100 99
2 2 2 2 2 4 6 7 9 11 14 18 20 18 19 17 23 24 24 23 21 19 21 23 28 27 19 18 17 21 30 17 22 29 39 79 86 81 72 88 100 100 100 100
1 1 2 2 2 5 7 8 8 12 15 19 14 18 24 19 21 32 31 28 26 25 24 22 23 32 25 20 18 18 31 21 16 16 16 18 90 100 85 82 100 90 100 100
2 2 2 2 3 4 7 8 10 12 15 14 12 17 16 19 26 28 26 28 26 24 23 21 18 26 28 25 20 22 19 25 26 19 19 18 23 79 89 80 95 99 89 100
2 2 2 2 3 3 8 8 9 11 10 12 13 14 15 19 24 26 29 31 27 23 22 21 19 22 25 26 24 21 24 22 20 20 20 19 18 24 35 74 84 92 92 99
2 2 2 2 3 4 5 10 9 10 11 10 12 14 15 17 26 27 34 31 26 28 27 20 20 24 23 22 24 24 22 23 23 22 21 21 21 20 52 68 89 75 82 69
2 3 3 3 3 4 6 13 10 11 10 11 12 14 16 19 30 25 28 31 33 30 26 22 22 25 21 22 21 22 22 21 21 21 21 22 23 24 20 23 51 81 72 86
3 3 3 3 4 4 9 16 12 10 10 11 13 13 16 17 21 26 29 36 39 35 32 29 26 23 25 24 22 20 21 21 19 20 22 24 26 25 23 24 21 25 34 50
3 4 4 5 6 8 13 16 16 12 12 13 14 13 16 20 23 26 34 45 43 38 31 30 28 23 26 28 21 23 21 19 18 18 20 23 25 26 25 24 22 23 26 33
4 4 5 5 7 14 19 21 19 15 12 14 12 13 17 18 21 23 28 38 39 38 38 37 33 26 26 28 25 24 24 21 20 20 21 20 21 27 28 26 24 24 25 26
5 5 6 8 10 16 17 24 25 22 16 13 12 13 16 17 21 24 28 31 36 42 40 38 34 26 28 27 24 24 24 24 22 21 20 20 19 20 23 25 25 25 24 24
8 6 6 8 10 13 15 20 26 26 21 16 14 14 17 18 20 26 26 30 36 39 38 36 33 31 30 28 26 26 26 24 24 23 22 21 20 20 20 20 23 23 26 24
10 9 7 7 10 14 18 22 27 26 23 19 16 17 21 25 29 28 30 36 38 36 32 24 22 22 21 20 21 22 22 24 25 24 23 23 22 21 20 20 20 20 22 23
10 12 11 9 13 19 20 27 34 31 27 19 16 17 22 27 33 36 40 42 46 43 34 24 20 20 19 18 17 16 16 16 16 17 20 22 23 24 24 23 22 22 22 23
9 14 14 13 10 14 26 33 34 36 33 28 22 19 28 28 34 37 37 37 42 42 35 27 28 26 21 18 18 16 15 15 15 15 15 16 17 20 22 23 22 22 22 22
17 10 15 17 16 15 17 24 33 37 37 34 31 27 25 28 29 29 32 38 43 42 33 28 33 31 26 22 19 18 16 15 15 16 16 17 16 16 16 17 18 20 20 21
16 15 12 19 20 20 20 20 27 29 34 36 35 32 30 30 32 34 45 45 40 50 46 38 33 31 26 24 21 18 16 15 15 15 14 14 14 16 17 18 17 16 16 16
14 13 13 14 21 26 24 26 26 30 34 37 38 40 38 35 32 42 42 38 50 46 42 38 34 31 35 31 28 26 23 22 19 17 16 15 14 14 15 14 15 16 16 16
16 14 13 10 17 25 25 30 33 36 44 35 36 42 43 44 45 51 46 47 47 48 44 44 43 41 37 33 31 34 31 30 29 26 25 23 20 18 15 14 14 14 14 15
12 12 11 12 12 19 26 28 30 37 40 41 49 50 54 56 57 58 56 65 68 65 62 54 51 49 48 43 44 45 42 42 42 42 38 33 28 24 22 19 19 18 18 18
15 12 9 11 11 12 17 26 32 33 39 40 44 46 46 48 52 54 53 47 46 48 53 54 53 52 51 54 55 56 52 54 55 52 50 42 36 35 32 28 26 24 21 19
24 20 13 7 11 11 14 20 27 34 34 33 30 34 41 46 43 48 58 60 58 64 64 64 67 73 74 70 64 58 53 56 52 50 44 42 40 36 29 26 25 21 20 20
47 20 15 12 8 10 12 16 21 32 40 40 33 30 30 34 36 42 50 50 53 54 52 56 57 52 50 52 50 53 51 50 50 49 45 42 39 37 36 36 32 30 32 30
55 30 12 11 7 8 10 12 16 25 34 45 48 45 38 38 38 38 37 38 43 48 51 54 56 60 55 52 47 48 49 46 43 42 39 38 40 44 45 52 50 50 50 50

GFSCGP_250_rhum_099.txt.gz
RH
2 2 1 2 2 3 3 4 8 11 17 21 33 37 30 40 32 31 14 25 41 38 46 33 26 28 44 50 57 57 91 100 100 100 100 89 76 74 96 88 74 65 77 68
2 1 2 2 2 3 4 4 5 10 15 18 29 39 33 42 29 27 20 11 28 32 32 44 47 34 27 32 43 51 50 51 95 100 100 100 100 94 85 81 87 81 79 70
2 2 2 2 2 3 5 5 5 9 17 18 25 32 34 36 39 34 19 16 28 36 31 36 43 45 41 31 26 26 25 41 63 70 74 85 84 85 85 90 100 94 96 91
2 2 2 2 2 2 4 6 7 10 12 20 23 30 23 32 32 36 24 22 29 39 34 30 32 37 40 42 38 31 28 22 31 64 71 60 67 72 99 100 88 100 100 100
2 2 2 2 2 2 3 6 7 9 13 18 22 27 35 29 24 28 30 28 27 32 40 35 31 30 29 34 40 40 29 28 24 37 69 86 86 87 82 100 91 100 100 100
2 2 2 2 2 2 3 7 8 9 12 18 30 24 24 29 25 22 24 22 23 25 34 43 40 34 29 25 29 39 40 28 23 26 46 70 74 57 73 98 100 98 92 100
2 2 2 2 2 3 3 8 9 9 10 15 19 27 28 22 25 23 21 22 30 30 36 39 40 39 35 28 27 29 39 38 33 25 33 41 50 32 31 36 43 52 63 94
2 2 2 2 2 3 4 7 10 10 10 12 16 20 22 19 22 30 30 23 24 38 41 43 44 42 37 34 30 24 32 31 35 34 29 26 31 62 33 33 31 19 19 29
2 2 2 2 2 3 4 5 10 10 11 12 15 20 16 19 19 20 17 22 35 36 34 40 49 52 42 36 32 27 21 24 29 36 35 31 26 27 26 22 29 22 27 19
2 3 3 3 3 4 4 4 8 10 11 12 15 16 13 16 20 24 30 28 33 42 38 47 50 49 41 34 33 32 27 23 24 27 30 32 31 28 26 27 28 26 23 22
3 3 4 3 4 4 5 7 8 12 11 11 13 13 13 14 20 25 29 29 36 44 47 44 52 52 44 38 38 33 27 26 26 24 24 25 26 28 30 28 28 28 26 25
4 4 4 4 5 6 7 8 9 14 14 13 16 15 16 15 16 18 22 23 29 43 47 45 45 47 48 48 35 30 31 29 26 25 24 23 23 22 23 26 28 27 27 27
6 5 5 5 5 7 8 12 14 18 19 15 16 15 14 15 16 17 18 20 27 32 39 38 43 54 56 47 36 32 32 30 28 25 24 23 23 22 21 22 24 26 27 28
7 7 6 6 6 6 8 12 15 18 20 19 15 13 14 15 17 19 20 20 22 26 27 39 58 60 54 39 36 35 33 31 29 26 24 24 23 22 22 21 21 21 22 23
8 9 10 10 8 9 10 11 17 20 23 21 18 15 16 16 17 18 18 19 22 25 29 36 42 43 42 45 41 34 31 29 31 30 29 27 25 24 23 23 22 21 21 22
13 10 10 13 12 12 13 13 17 25 31 28 23 19 17 17 17 17 18 18 20 24 27 31 32 32 36 41 42 37 32 31 30 29 30 29 28 27 25 23 22 21 21 23
13 14 12 13 16 16 17 18 19 23 27 31 31 27 20 19 18 18 19 20 21 22 25 29 32 37 42 38 35 29 27 24 21 22 22 22 22 21 22 23 24 24 24 24
12 12 14 14 13 17 20 23 24 28 30 32 33 32 27 22 20 21 21 22 25 26 31 35 40 43 39 36 32 26 23 21 19 18 18 19 19 17 16 16 16 17 18 19
23 14 10 14 13 17 20 20 21 27 33 31 37 35 30 27 25 27 26 26 28 30 31 34 37 37 38 34 30 26 27 24 19 18 18 18 18 19 19 18 18 17 17 18
26 20 14 10 13 12 18 23 27 25 30 34 37 37 39 36 29 27 34 35 35 37 40 43 47 44 41 43 39 35 30 23 20 20 19 18 16 15 15 16 16 16 16 16
44 41 20 13 10 12 15 21 27 31 31 29 34 40 41 40 42 39 33 31 31 39 46 54 67 73 62 50 41 39 38 32 28 28 26 24 22 20 20 20 18 16 14 13
67 42 29 15 12 8 12 16 21 27 30 31 36 41 45 49 50 50 48 43 44 45 51 57 61 64 59 55 56 56 51 46 42 40 34 36 34 36 35 32 26 20 18 16
73 49 44 15 12 9 9 13 16 23 26 30 37 44 48 60 64 69 69 63 62 63 64 62 61 62 62 60 59 61 62 67 61 57 59 57 53 46 47 37 32 31 28 28
70 60 55 21 12 10 7 10 12 17 22 30 32 36 45 50 66 72 71 69 63 65 67 69 73 76 76 75 74 73 78 79 73 75 76 67 63 56 52 44 40 38 36 32
64 68 57 36 14 10 7 7 10 12 16 26 33 37 40 42 46 49 56 57 60 67 66 67 65 64 67 72 78 82 82 77 77 72 72 60 54 50 44 41 40 41 41 39
59 69 65 56 28 13 8 6 7 10 12 15 23 32 40 42 41 36 34 40 48 56 59 54 52 56 61 68 70 66 64 61 59 49 42 34 33 34 38 40 41 41 44 45

GFSCGP_250_rhum_102.txt.gz
RH
2 2 2 2 2 2 3 3 8 14 19 23 28 32 45 24 29 29 22 33 42 48 57 56 76 90 81 71 92 64 57 82 99 96 100 100 100 99 95 100 100 100 100 100
2 2 2 2 2 3 3 4 7 14 22 28 35 29 34 21 22 21 28 28 36 42 41 55 59 56 83 81 73 84 74 81 100 100 95 93 94 100 91 85 94 98 97 100
2 2 2 2 3 3 4 4 8 11 23 32 37 22 25 28 29 44 54 34 25 34 51 45 54 54 48 47 89 64 79 75 77 87 100 98 85 99 100 100 100 100 97 100
2 2 2 2 3 3 4 4 4 13 18 25 25 22 30 32 42 50 43 52 23 25 39 48 44 51 56 53 41 66 56 40 54 80 97 100 100 93 86 100 100 100 100 100
2 2 2 2 3 3 4 4 4 11 22 22 22 29 38 40 33 42 50 69 58 22 25 44 48 50 71 60 57 48 49 46 34 49 72 79 82 84 90 91 73 89 100 100
2 2 2 2 3 3 4 5 6 8 19 19 26 33 50 40 45 65 45 63 49 41 25 27 43 46 48 55 66 64 53 58 50 35 49 57 52 52 50 60 89 100 100 100
2 2 2 2 2 2 4 5 8 8 14 25 30 27 46 79 66 55 49 46 49 32 36 35 32 41 58 58 59 70 71 61 70 66 52 50 54 50 43 38 56 63 95 97
2 2 2 2 2 2 3 5 8 9 11 18 26 28 31 49 63 56 74 83 37 26 33 29 32 42 42 47 49 55 49 66 80 72 82 67 61 61 58 36 35 40 72 85
2 2 2 2 2 3 3 4 8 10 13 17 22 28 28 33 33 37 49 62 62 48 38 35 26 26 42 47 51 49 50 48 54 69 69 70 59 56 64 62 45 32 48 69
2 2 2 2 3 3 3 4 6 9 12 14 22 26 28 30 42 37 37 36 39 43 42 39 37 34 40 48 50 51 51 52 53 53 54 46 43 42 40 42 50 46 34 29
3 3 2 2 3 4 4 5 7 13 16 16 17 21 23 32 36 44 35 33 32 42 43 40 46 51 45 56 60 58 48 48 48 50 45 46 40 38 34 31 33 40 41 39
4 4 4 3 3 4 5 6 6 9 18 18 18 20 21 27 27 22 26 32 29 29 35 42 48 54 58 60 61 61 50 45 45 48 44 39 36 36 34 33 32 31 32 36
5 6 4 5 4 4 5 8 8 11 20 19 18 19 20 20 22 26 24 25 30 36 39 38 42 41 50 57 60 56 54 55 55 49 43 40 36 33 31 30 28 27 26 26
9 6 7 6 6 7 6 6 10 13 18 21 19 18 17 16 17 20 26 30 32 27 25 26 28 36 48 60 64 61 69 67 59 49 41 36 32 31 31 30 28 26 26 24
7 10 9 9 7 8 10 8 8 14 17 21 20 16 16 18 18 18 21 25 26 28 32 36 43 47 51 57 59 64 63 64 55 50 44 37 36 33 31 30 29 28 27 25
12 8 8 10 11 9 11 12 15 16 18 20 22 20 17 16 15 16 18 20 23 27 30 31 34 38 43 40 40 44 52 54 51 44 41 42 41 38 35 33 32 31 29 28
22 16 10 8 11 10 11 13 15 16 17 22 28 29 25 19 16 16 16 16 18 19 21 23 26 26 30 36 37 42 48 47 46 46 48 44 36 33 32 31 30 29 29 28
34 21 16 11 9 11 12 14 15 19 22 22 30 30 30 25 20 18 16 15 16 19 21 23 25 28 30 33 36 41 45 49 46 42 36 30 28 27 29 27 26 24 23 24
56 27 19 13 10 9 12 15 18 16 20 26 29 33 33 33 28 21 17 16 16 17 18 19 22 24 28 31 34 36 37 35 36 35 30 27 26 26 22 22 21 22 21 20
64 58 31 19 13 11 9 13 16 21 20 23 31 35 37 37 39 34 28 23 19 19 20 23 24 25 25 26 33 39 43 52 43 37 36 31 29 25 24 22 21 22 22 21
71 66 49 27 18 13 10 10 14 15 21 27 24 31 42 42 40 39 36 32 28 24 23 25 30 30 30 31 31 31 34 35 38 38 37 32 30 27 23 22 20 20 20 19
67 70 71 58 25 13 10 9 9 14 17 23 31 31 32 39 47 50 44 38 36 37 32 32 32 35 38 40 41 37 36 37 38 39 40 40 36 32 28 29 28 27 28 29
60 64 74 75 41 21 10 11 8 8 12 17 26 33 37 37 38 45 55 58 52 48 47 49 51 50 51 55 57 56 55 60 59 58 55 52 51 54 56 52 47 40 39 35
54 61 69 74 67 30 16 8 10 7 9 12 14 21 33 39 42 43 46 47 55 64 65 63 58 56 61 66 70 73 76 76 74 79 81 76 78 83 74 67 58 48 45 44
49 58 68 69 78 62 47 16 9 8 7 8 12 14 21 32 39 46 50 55 53 56 62 67 75 80 80 77 73 71 75 78 75 72 77 77 83 82 79 68 54 47 45 46
41 57 61 68 72 76 60 42 11 8 8 7 8 12 14 19 30 38 45 50 59 62 58 60 69 74 77 79 81 79 74 74 76 81 85 82 76 72 65 54 47 50 45 37

GFSCGP_250_rhum_105.txt.gz
RH
1 1 1 2 2 2 3 3 4 5 7 13 20 27 39 90 36 31 33 40 38 52 48 91 100 93 100 100 100 100 100 100 100 100 100 100 100 100 100 100 100 100 100 100
1 2 2 2 2 3 3 4 4 5 6 14 14 34 40 77 40 25 29 38 42 44 39 56 94 100 100 100 100 100 98 100 100 100 100 100 100 100 98 100 100 89 98 100
2 2 2 3 3 3 4 4 4 5 8 10 18 37 38 37 34 93 34 25 45 42 42 53 67 88 93 92 92 93 87 89 100 100 100 100 100 100 100 100 100 100 100 100
2 2 2 3 3 3 3 5 5 5 7 11 16 34 61 62 49 70 35 35 33 40 44 50 66 79 72 96 100 100 99 100 100 100 92 100 100 100 100 100 100 90 78 79
2 2 2 3 3 3 4 4 5 7 9 11 16 28 61 78 70 70 53 22 34 39 40 48 57 73 74 86 77 93 100 82 97 90 87 100 100 100 100 98 100 94 96 73
2 2 2 3 3 3 4 5 6 8 16 18 22 26 54 92 76 80 50 53 33 39 47 54 66 63 73 72 81 71 78 66 82 76 78 91 98 100 100 100 100 85 93 100
2 2 2 2 3 4 4 5 6 7 14 25 26 39 54 50 55 100 89 54 35 34 38 52 53 66 68 83 83 81 95 73 84 87 72 65 71 66 76 100 100 100 100 100
2 2 2 2 2 4 4 6 6 6 9 19 27 39 49 51 71 79 82 45 33 44 35 35 66 70 65 78 78 80 71 79 99 92 98 74 59 48 52 50 67 87 98 100
2 2 2 2 2 3 4 6 8 10 12 17 34 47 54 45 51 66 72 64 68 98 76 61 36 41 74 79 68 79 86 84 79 65 73 92 82 91 57 59 73 71 64 50
2 2 2 2 2 3 4 5 9 14 13 26 35 47 56 54 50 61 73 79 100 100 99 74 48 36 35 45 57 81 60 69 81 87 81 89 85 99 99 80 86 100 85 75
4 3 3 2 2 3 4 6 6 12 18 26 33 50 69 66 74 68 56 61 68 92 96 82 78 53 40 34 31 43 64 78 77 70 73 79 84 100 100 97 96 87 99 91
4 4 3 3 3 3 4 6 7 10 15 20 36 43 58 85 73 78 78 60 51 54 66 97 64 71 54 37 36 32 32 42 53 57 57 68 76 72 80 70 72 65 68 88
6 6 5 4 4 4 5 6 6 8 17 20 26 37 52 60 77 86 86 72 70 69 84 91 85 65 49 33 30 28 30 36 38 50 59 64 83 77 64 58 58 57 53 51
7 7 7 7 5 5 5 7 9 13 25 25 25 29 41 45 49 63 70 64 69 74 70 65 57 64 58 52 52 45 43 46 58 61 70 72 64 64 61 55 54 55 51 47
10 8 8 8 9 6 6 6 9 10 18 23 23 25 32 40 38 37 35 50 55 55 59 58 62 67 69 80 89 85 75 66 59 60 63 55 51 48 46 45 44 44 44 43
13 11 10 9 10 11 8 9 8 10 12 22 30 26 23 21 26 28 28 26 28 32 36 41 44 47 52 61 67 67 62 61 56 51 49 43 39 40 43 43 46 42 44 38
26 17 13 12 11 11 14 12 10 11 12 16 26 30 29 26 24 24 28 28 29 31 35 48 48 47 45 43 41 38 41 44 45 40 41 41 46 46 49 49 44 42 43 40
46 30 18 13 9 10 10 15 15 14 16 17 20 26 29 28 24 22 23 24 27 31 35 38 36 34 34 37 33 32 35 40 41 42 42 46 51 58 58 60 48 44 42 43
65 56 35 23 13 10 8 10 14 18 17 17 20 25 27 31 29 24 20 20 22 23 26 29 31 33 34 37 38 40 47 46 39 36 36 38 47 57 56 50 46 45 42 34
66 70 66 39 29 15 8 8 9 13 18 19 21 21 26 31 32 31 26 22 20 20 22 26 26 26 28 30 32 30 28 30 35 36 40 46 46 44 43 43 42 34 27 25
63 76 82 68 42 28 16 11 7 8 11 16 20 22 27 28 33 37 34 31 26 22 20 20 25 28 29 29 28 29 29 30 35 38 42 43 46 46 42 36 30 33 31 34
56 68 82 88 74 53 22 14 8 7 7 8 13 20 23 23 29 33 35 36 36 32 27 23 22 23 25 26 26 28 30 30 27 26 30 34 38 41 36 36 49 51 48 40
53 61 74 81 87 64 37 24 15 10 7 7 7 11 16 25 26 28 36 40 40 41 37 32 29 26 25 26 27 27 30 33 34 37 41 46 47 54 66 59 56 55 52 47
50 52 63 70 81 86 57 34 27 21 10 7 7 7 9 13 24 34 32 36 40 44 49 44 39 35 32 33 34 40 47 50 50 53 62 67 68 67 60 51 48 51 54 62
49 52 55 63 72 76 88 78 40 32 21 12 8 7 7 9 13 17 29 37 40 45 44 46 54 55 52 49 48 50 52 53 54 56 56 58 58 61 65 65 70 77 76 73
52 47 47 57 67 68 78 95 77 79 51 18 11 8 8 8 8 12 18 28 34 40 47 55 53 57 65 68 70 70 68 70 71 72 73 74 74 74 76 80 83 85 81 73

GFSCGP_250_rhum_108.txt.gz
RH
2 2 1 1 1 2 1 2 2 3 5 9 13 16 28 52 41 21 28 28 44 30 66 94 100 100 100 100 100 100 100 100 100 100 100 100 100 100 100 98 100 100 100 100
2 1 1 1 1 2 1 2 3 4 6 12 17 23 35 80 41 25 27 29 53 35 46 71 100 100 100 100 100 100 100 95 100 100 100 100 100 100 100 100 100 100 100 100
2 2 2 2 2 2 2 2 3 6 8 14 18 34 57 95 66 34 39 30 59 43 47 56 96 100 100 100 100 100 100 100 90 100 100 100 100 100 100 100 100 99 99 100
2 2 2 2 2 2 3 3 4 5 8 12 17 38 96 91 100 41 41 35 52 58 39 43 83 100 99 100 100 100 79 90 98 100 97 100 100 100 100 100 100 100 100 100
2 2 2 2 2 3 3 4 5 6 7 10 11 37 64 87 82 62 48 46 50 48 50 42 74 96 99 100 100 96 100 100 100 94 100 100 100 99 100 100 100 81 100 100
2 2 2 2 2 3 4 5 5 6 7 9 18 33 60 65 100 97 62 44 57 55 58 48 52 100 100 96 100 100 100 100 100 100 99 100 100 100 100 100 100 100 97 74
2 2 2 2 2 4 4 5 5 6 9 9 15 29 52 74 100 100 99 97 62 69 51 77 58 55 100 100 85 100 100 100 100 100 100 100 100 100 100 100 100 100 100 100
2 2 2 2 3 4 5 6 5 7 8 12 11 19 34 84 100 100 100 100 70 67 63 61 91 75 67 100 100 100 100 100 100 100 100 100 100 100 100 100 100 100 100 100
2 2 2 2 3 5 6 6 6 8 10 12 14 21 34 48 97 100 100 100 90 56 83 87 71 68 78 100 100 100 79 86 94 100 88 99 94 100 100 100 100 100 100 100
3 2 2 2 4 5 6 8 7 8 10 12 15 28 52 49 79 100 100 100 100 85 48 95 100 100 82 96 100 100 100 82 65 95 99 100 100 96 97 96 100 100 100 100
4 3 2 3 3 5 8 8 9 11 12 14 20 32 52 73 72 86 100 100 100 100 85 58 76 96 90 92 96 90 100 99 90 100 89 84 100 100 98 98 74 90 100 100
4 4 3 3 4 5 7 10 11 13 14 14 25 43 55 69 96 86 100 100 100 100 96 75 66 79 91 91 86 72 69 100 100 100 100 87 99 100 100 94 100 100 100 100
5 5 5 4 4 5 5 7 12 12 20 24 30 43 46 60 70 70 100 100 100 100 100 84 73 50 70 81 75 76 74 78 78 81 97 100 100 100 99 94 88 83 82 76
8 7 7 6 5 5 5 7 10 16 21 30 42 52 78 77 79 76 80 100 99 100 100 92 82 68 58 62 51 58 73 72 72 84 86 89 100 93 95 96 98 96 95 98
12 8 7 7 8 6 5 5 9 16 31 31 38 58 66 76 84 91 82 86 97 100 100 99 91 94 75 76 50 39 35 37 50 67 72 77 89 93 100 98 89 99 100 99
15 14 8 6 7 10 8 6 7 13 22 30 42 54 63 65 64 70 86 85 83 95 100 100 94 88 71 61 57 47 41 36 28 35 34 35 42 52 53 61 69 76 78 80
24 18 15 13 8 8 10 11 8 9 12 16 28 42 47 57 68 66 56 79 79 77 72 81 89 94 91 93 88 76 72 63 42 43 48 43 48 57 53 53 51 54 55 58
41 34 21 18 15 11 9 10 13 13 10 11 14 22 30 38 40 35 36 36 46 59 57 50 54 63 61 64 61 69 64 62 67 63 58 69 58 60 53 62 59 47 46 44
59 52 41 27 18 15 10 8 10 13 16 17 17 17 18 26 30 32 35 33 30 30 39 40 50 51 54 56 58 71 84 86 93 86 79 80 75 66 59 54 50 43 38 36
75 71 63 49 29 24 16 13 8 9 12 17 19 21 22 23 26 32 34 32 30 34 31 36 41 40 38 53 65 83 91 89 91 81 68 68 51 46 43 45 41 41 48 47
76 82 79 70 64 45 28 20 17 10 9 9 14 19 22 26 29 30 33 36 35 32 32 38 37 25 21 29 42 44 43 37 35 35 39 41 41 44 58 48 47 53 52 50
59 70 73 78 73 85 55 41 23 25 13 8 9 11 19 22 23 32 36 33 34 32 29 28 29 25 23 23 27 26 28 32 33 33 31 35 44 48 51 50 46 42 42 52
51 56 61 68 76 80 80 60 44 41 26 17 11 8 10 14 24 27 30 38 40 39 36 32 29 28 28 30 33 32 34 34 32 31 36 36 35 34 34 32 37 43 49 50
54 54 51 56 67 67 71 80 55 49 45 29 29 12 8 9 10 19 30 34 42 46 47 43 39 36 35 34 33 34 35 34 33 32 34 37 38 39 39 41 49 54 55 53
60 59 54 49 56 72 73 72 75 66 64 49 41 26 13 9 7 9 12 25 37 39 45 46 46 46 44 42 38 33 30 31 32 32 33 36 40 42 44 48 56 57 57 59
58 61 50 51 50 65 69 72 70 69 67 59 76 53 41 16 11 8 8 9 13 30 43 47 46 48 50 54 52 48 47 45 41 38 39 42 48 51 53 60 66 68 67 73

GFSCGP_250_rhum_111.txt.gz
RH
3 2 1 1 1 1 1 1 1 2 2 2 2 3 3 4 8 8 6 7 17 68 100 100 100 100 100 100 100 100 100 100 100 100 93 75 63 60 59 60 58 58 67 92
2 1 1 1 1 1 1 1 2 2 2 2 2 3 4 7 12 11 10 8 18 44 98 100 100 100 100 100 100 99 100 100 91 89 71 59 64 68 74 96 100 100 100 100
2 1 1 1 1 2 2 2 2 2 2 3 3 4 6 8 18 15 11 8 19 49 92 100 100 99 100 100 99 100 100 100 63 65 98 98 100 100 100 100 100 100 100 98
1 1 1 2 2 2 2 2 2 2 4 4 5 7 8 12 16 15 11 9 20 42 58 98 100 100 100 100 100 99 90 100 100 100 100 100 94 83 92 81 92 100 100 100
1 1 2 2 2 2 2 2 3 4 6 8 8 8 14 18 18 15 18 14 24 41 48 95 100 100 100 100 100 100 100 100 100 100 100 100 100 100 100 100 77 82 99 76
2 2 2 2 2 2 2 3 4 5 6 6 12 16 20 41 40 29 32 27 29 43 76 78 98 100 100 86 100 100 100 100 100 100 100 100 100 100 100 100 100 100 100 100
2 2 2 2 2 3 3 3 4 5 8 9 13 27 35 32 51 75 58 76 47 51 52 92 100 100 100 81 91 100 100 100 100 100 100 100 100 100 93 100 100 100 100 100
2 2 2 2 2 4 4 4 6 6 8 8 16 30 38 47 59 63 52 100 99 53 56 62 78 100 100 100 100 100 99 97 94 100 100 100 100 100 99 100 100 100 100 100
2 2 2 2 3 5 6 6 6 6 8 15 17 26 51 68 64 83 61 99 100 98 50 44 62 100 100 94 100 100 100 99 100 100 100 100 100 100 99 100 100 100 100 100
3 2 2 2 3 4 6 8 10 10 14 16 24 34 47 86 100 100 100 76 71 95 80 44 44 69 99 100 100 100 90 100 100 100 100 99 100 100 100 100 100 100 100 100
3 3 2 2 3 4 7 9 11 13 18 19 22 37 53 71 69 85 100 98 100 100 99 56 50 55 70 100 100 100 100 83 100 100 100 100 92 100 100 100 100 100 100 100
3 4 3 3 4 4 7 8 11 16 22 23 48 49 64 74 72 94 99 100 100 100 100 100 79 55 63 86 100 100 100 100 88 100 100 100 100 100 100 99 94 89 96 100
4 5 4 3 3 5 5 10 12 17 16 28 33 45 57 75 68 87 100 100 100 100 99 100 100 72 53 98 99 100 100 100 100 93 100 100 100 100 99 100 100 96 82 93
6 5 6 6 5 5 6 9 16 17 17 20 27 46 72 72 80 79 83 97 100 100 96 88 100 84 74 81 99 100 100 100 100 100 100 100 100 100 80 80 99 91 100 99
12 9 6 6 7 5 6 9 11 16 20 25 29 38 44 57 79 86 100 99 95 100 100 91 66 95 81 80 81 76 100 100 100 100 100 100 100 100 100 100 100 100 100 100
16 16 12 7 6 9 7 7 9 9 13 26 35 41 52 52 56 82 99 100 100 94 91 100 68 53 74 83 62 72 74 84 100 100 100 100 100 100 100 100 100 100 100 100
29 22 16 14 11 7 9 10 8 8 10 15 27 40 46 51 69 76 80 67 89 91 100 85 100 86 67 72 75 75 71 78 87 98 100 100 100 100 100 100 100 100 100 100
47 36 30 19 18 17 8 8 12 11 10 10 13 19 30 44 49 63 79 92 82 99 99 97 88 85 73 64 53 54 60 77 83 87 83 91 100 100 100 100 100 100 99 98
66 61 48 34 29 25 16 12 8 9 15 16 15 15 19 26 35 54 56 62 74 67 75 84 93 88 87 85 73 65 57 52 54 59 67 81 90 83 78 79 81 92 85 78
71 73 68 55 44 40 29 25 19 14 10 8 13 16 16 23 32 38 55 59 60 66 66 59 84 92 97 94 97 98 87 69 69 74 65 54 53 60 55 55 54 52 49 51
76 71 68 62 62 46 44 34 28 26 22 16 10 10 16 22 22 24 27 33 53 54 48 66 72 73 77 84 84 90 96 99 97 92 96 90 77 68 71 81 77 71 57 52
53 55 66 69 63 69 56 45 42 30 29 28 25 14 10 10 14 19 21 23 33 44 43 40 52 57 65 77 75 65 70 63 64 75 74 74 75 74 63 54 61 53 55 46
53 54 55 70 68 72 65 56 52 51 44 36 31 26 26 16 10 10 15 23 26 28 32 32 34 41 53 57 53 40 41 49 49 49 47 51 55 71 63 53 44 50 41 39
57 57 53 59 67 67 70 68 78 69 67 63 52 33 29 31 26 13 9 10 16 27 31 33 37 41 42 40 34 33 36 35 29 33 35 35 40 45 42 40 41 47 42 40
62 61 56 60 59 77 71 74 71 61 70 57 61 74 45 32 38 31 19 10 8 9 12 22 28 31 34 35 37 36 32 28 25 25 29 32 30 30 30 29 28 28 29 30
57 54 61 59 56 64 70 75 74 88 80 81 61 67 58 58 42 37 34 24 12 10 9 10 12 24 32 37 40 40 38 36 34 31 29 28 28 24 23 24 26 28 30 32

GFSCGP_250_rhum_114.txt.gz
RH
9 5 3 2 2 1 1 1 1 1 1 1 1 1 1 1 1 1 2 3 6 8 100 100 100 100 100 95 100 100 100 100 100 59 71 100 100 100 100 100 94 92 90 84
5 3 2 2 1 1 1 1 1 1 1 1 1 1 2 2 1 2 3 6 6 81 100 98 93 100 100 100 100 100 97 100 94 53 73 100 100 100 84 74 54 44 50 56
4 2 2 1 1 1 1 1 1 1 1 1 1 1 1 2 2 3 4 8 11 100 100 100 100 100 100 100 100 100 100 100 98 76 49 79 78 74 58 48 88 93 81 98
2 1 1 1 1 1 1 2 2 2 2 1 2 2 2 2 2 3 6 12 14 100 100 100 100 99 100 100 100 100 100 100 100 100 69 44 58 86 96 92 94 100 100 100
1 1 1 1 1 1 2 2 2 2 2 2 2 2 2 2 3 3 9 15 15 65 100 100 100 97 100 100 100 100 100 100 100 82 57 51 82 100 100 100 100 93 100 100
1 1 1 2 2 2 2 2 2 2 2 2 2 2 3 2 3 4 9 23 17 44 100 100 100 100 100 100 100 100 100 100 91 100 85 91 100 100 100 100 83 100 100 100
1 1 2 2 2 2 2 2 2 2 2 2 3 3 3 4 4 4 10 21 19 45 100 100 100 100 100 100 100 100 100 99 97 100 100 100 100 100 100 100 100 100 100 86
1 2 2 2 2 2 3 3 3 3 3 3 3 4 5 6 6 5 10 23 25 29 100 100 100 100 100 100 100 100 100 100 100 100 100 100 100 100 100 100 100 100 100 100
2 2 2 2 2 3 4 4 6 5 5 6 8 8 12 8 7 8 11 25 39 100 79 98 100 100 98 92 100 100 100 100 100 100 100 100 98 100 100 100 100 100 100 100
2 2 2 2 3 4 4 5 7 8 7 7 7 21 24 15 11 14 16 27 33 88 100 100 100 100 100 100 100 99 100 100 100 100 100 100 100 100 100 100 100 100 100 100
2 2 2 2 3 4 5 8 10 11 10 10 12 24 36 46 30 33 17 27 34 57 100 100 100 88 100 96 90 100 100 100 100 100 100 100 100 100 100 100 100 100 100 100
3 3 2 2 3 4 7 8 15 20 17 18 21 34 50 57 61 48 48 38 36 35 78 100 100 100 100 100 100 100 100 97 100 100 100 100 100 100 100 100 100 100 98 100
3 4 4 3 3 5 8 12 20 25 25 28 31 40 54 64 71 66 51 56 50 44 69 100 100 100 100 100 100 100 100 100 86 94 100 100 100 100 100 100 100 99 100 100
4 4 5 4 3 5 8 16 22 24 30 30 41 47 78 79 81 81 59 49 47 44 53 81 96 100 100 100 100 100 99 92 100 98 100 100 100 100 100 100 100 100 100 100
10 6 4 6 4 4 6 11 19 30 31 34 45 51 49 75 79 68 66 71 56 56 57 63 57 88 100 100 100 100 100 100 100 100 100 100 100 100 100 100 100 100 100 100
17 18 12 5 7 8 6 8 13 16 23 26 31 39 55 70 60 73 66 73 78 72 50 54 53 65 94 100 100 100 96 100 100 100 100 100 100 100 100 100 100 100 100 100
17 22 21 19 11 7 10 10 9 11 22 25 39 53 47 55 64 78 75 78 75 67 63 61 69 51 50 77 95 100 100 100 100 100 100 100 100 100 100 100 100 100 100 100
29 24 24 26 26 21 12 12 15 13 22 33 43 51 62 62 64 69 67 71 72 64 68 58 63 74 78 52 56 73 91 100 100 100 100 100 100 100 100 100 100 100 100 100
38 34 32 21 22 25 25 24 18 12 20 29 38 49 75 61 78 73 77 89 91 90 76 93 89 63 57 72 73 55 56 81 96 100 100 100 100 100 100 100 100 100 100 100
59 58 48 40 33 39 32 27 27 23 18 11 14 22 23 40 78 89 96 99 94 97 100 89 80 89 80 65 62 59 66 88 81 90 97 100 100 100 100 100 100 100 100 100
65 68 67 52 52 50 39 37 29 29 26 22 23 19 12 15 23 43 54 96 100 93 94 100 100 96 85 85 76 81 66 62 55 63 79 92 98 90 100 100 100 100 100 100
69 66 68 78 58 52 52 45 46 44 32 32 29 24 23 25 17 13 18 27 44 62 79 86 100 100 100 96 92 92 92 80 87 78 67 67 64 69 70 83 99 100 100 100
48 60 70 65 65 59 58 51 47 48 45 42 31 30 34 34 29 26 21 12 11 21 26 28 38 47 83 100 99 91 99 100 99 96 79 80 71 70 78 79 74 79 82 87
51 55 55 63 67 65 66 65 56 47 47 48 49 49 40 33 27 29 30 30 25 14 10 10 18 21 24 34 51 60 70 70 81 85 88 94 79 79 72 68 65 68 72 69
50 53 53 52 58 70 74 80 75 76 60 50 51 55 58 54 50 50 38 29 30 27 24 14 11 11 18 27 31 31 31 40 52 60 67 70 63 82 98 90 70 68 55 49
50 52 50 50 52 61 61 71 90 93 73 72 65 67 60 63 48 49 48 51 60 52 40 25 20 12 10 10 11 17 24 27 34 40 47 46 44 48 48 48 42 39 30 28

GFSCGP_250_rhum_117.txt.gz
RH
9 10 10 8 4 3 2 1 1 1 1 1 1 1 1 1 1 1 1 1 2 2 4 7 10 19 30 50 96 100 100 100 95 94 100 100 100 100 99 88 89 100 100 100
12 12 6 4 2 2 1 1 1 1 1 1 1 1 1 1 1 1 1 1 2 3 4 7 8 12 58 83 100 100 100 100 97 100 100 100 100 100 91 76 72 100 100 100
8 4 3 3 2 2 1 1 1 1 1 1 1 1 1 1 1 1 1 2 2 3 5 6 10 61 99 100 100 97 100 97 90 98 100 100 100 95 89 54 72 100 100 100
4 3 3 2 2 1 1 1 1 1 1 1 1 1 1 1 1 1 2 2 2 3 4 9 13 97 100 100 100 82 100 100 100 100 100 100 100 89 62 75 70 75 98 92
4 3 2 2 1 1 1 1 1 1 2 2 2 2 1 1 1 1 2 2 3 3 7 14 84 100 100 100 100 100 100 100 100 100 100 100 100 99 68 44 48 82 82 77
2 2 1 1 1 1 1 1 1 2 2 2 2 2 2 1 2 2 3 4 4 4 11 90 100 100 100 100 100 100 100 99 100 100 100 100 100 94 78 57 56 62 69 86
1 1 1 1 2 1 1 2 2 2 2 2 2 2 2 2 2 4 5 6 6 10 14 93 100 100 100 100 100 100 100 100 100 100 96 100 98 100 79 56 55 57 53 99
1 2 2 2 2 2 2 2 3 3 3 3 3 4 3 2 4 6 8 9 11 20 53 78 100 100 100 100 96 100 100 100 100 100 100 100 96 100 80 62 64 65 92 100
2 2 2 2 2 2 2 4 4 4 4 4 3 3 3 3 6 10 12 24 39 100 100 100 100 100 100 73 99 100 100 100 100 100 100 100 83 91 100 100 100 100 100 91
2 2 2 2 2 3 4 4 5 6 5 4 4 4 4 4 9 10 14 40 100 100 100 100 100 100 91 92 99 100 100 100 100 100 100 100 100 100 100 100 100 100 100 100
2 2 2 2 4 5 5 6 9 9 8 6 5 4 5 5 13 15 20 48 100 100 100 100 100 100 98 89 100 100 100 100 100 100 100 100 100 100 100 100 100 100 100 100
3 2 2 3 5 6 6 8 11 13 12 11 7 5 6 6 12 20 25 100 100 100 100 100 100 100 100 100 100 100 100 100 100 100 100 100 100 100 100 100 95 100 100 100
4 3 3 4 5 6 6 12 20 19 20 17 13 13 8 8 12 22 30 100 100 100 100 100 95 100 80 95 100 100 100 100 100 100 100 100 100 100 91 100 100 100 100 100
4 3 3 3 5 6 8 20 29 30 26 23 25 23 15 13 14 22 27 100 100 100 100 100 100 100 99 100 98 100 100 100 100 100 100 100 100 100 100 100 100 100 100 100
4 5 4 4 4 5 11 21 26 36 30 26 31 34 32 21 19 20 28 34 100 100 100 100 100 100 100 100 100 100 100 100 100 100 100 100 100 100 100 100 100 100 100 100
9 6 5 6 4 4 8 23 25 33 42 37 33 43 44 40 25 24 29 32 50 100 100 100 100 100 100 100 100 100 100 100 100 100 100 87 100 100 100 100 100 100 100 100
18 14 12 8 7 6 7 11 22 28 32 38 42 50 46 40 39 31 21 29 33 34 31 48 99 100 100 100 100 100 100 100 100 100 100 100 97 100 100 100 100 100 100 100
18 19 22 20 18 9 7 7 13 17 25 32 44 49 66 56 51 44 42 21 25 26 40 41 57 100 100 100 100 100 100 100 100 100 100 100 100 100 100 100 93 91 100 100
24 23 22 21 24 23 21 14 9 13 49 58 62 80 66 60 70 70 64 63 49 32 27 33 33 52 100 100 100 100 100 100 100 100 100 100 100 100 100 100 100 100 97 94
43 35 33 29 29 27 27 28 26 37 28 52 94 100 100 100 92 75 79 72 86 82 66 48 44 68 72 100 100 100 100 100 100 100 100 100 100 100 100 100 100 100 100 100
52 57 51 41 33 35 30 32 34 36 37 32 25 19 26 52 93 100 99 93 73 66 82 76 73 52 64 92 99 100 100 100 100 100 100 100 100 100 100 100 100 100 100 100
62 64 67 68 57 45 40 32 34 39 32 36 34 33 32 26 17 20 56 64 86 82 76 76 84 79 76 65 52 55 69 97 100 100 100 98 93 98 100 100 100 100 100 100
61 63 68 80 81 68 51 44 42 42 37 33 33 37 40 44 41 32 26 22 29 40 45 73 73 79 82 65 78 79 66 63 60 73 82 87 100 100 100 99 100 100 100 100
52 52 58 63 76 84 88 74 67 64 46 39 44 42 39 36 34 35 41 45 38 32 25 21 26 29 41 61 81 77 71 58 55 68 59 68 70 74 78 87 99 99 96 98
55 53 55 55 61 73 72 66 90 78 64 56 40 44 38 38 39 43 43 42 39 36 41 47 41 30 20 18 27 32 31 42 51 64 71 56 58 68 80 91 98 95 100 100
51 53 56 55 59 61 70 75 75 78 76 74 58 56 53 51 42 44 43 41 44 47 44 42 40 35 35 31 23 16 13 16 26 39 34 52 50 53 49 49 58 69 83 85

GFSCGP_250_rhum_120.txt.gz
RH
9 10 13 9 6 6 6 6 5 4 3 3 2 2 2 2 1 2 1 2 2 2 2 2 3 4 8 11 15 55 84 100 100 96 100 100 82 98 100 100 100 100 100 100
7 9 6 6 6 6 5 4 3 2 2 2 2 1 1 1 1 1 1 1 1 1 1 2 3 5 9 12 22 49 100 100 100 100 100 100 100 100 100 100 100 100 100 100
6 5 7 7 5 4 4 4 3 2 1 1 1 1 1 1 1 1 1 1 1 1 2 2 3 6 10 13 61 100 100 100 100 100 100 100 100 100 100 100 100 100 100 100
8 7 6 5 4 4 3 2 2 1 1 1 1 1 1 1 1 1 1 1 1 1 2 2 4 7 9 14 100 100 100 96 100 100 94 100 100 100 100 100 100 100 96 92
5 4 4 3 3 2 2 2 1 1 1 1 1 1 1 1 1 1 1 1 1 1 2 3 4 6 7 15 83 98 100 100 100 100 98 73 100 100 100 100 100 99 96 89
3 3 3 2 2 2 2 2 2 2 1 1 1 1 1 1 1 1 1 1 1 1 2 3 5 6 8 19 100 100 100 100 100 100 100 99 100 99 100 100 100 95 100 96
3 2 2 2 2 2 2 2 2 2 2 2 2 2 2 2 1 1 1 1 1 2 3 3 6 7 10 22 100 100 100 100 100 100 100 99 99 100 98 100 100 91 98 84
2 2 2 2 2 2 2 2 2 2 2 3 3 3 2 2 2 2 2 2 2 3 4 5 10 13 22 70 100 100 100 100 100 100 100 100 100 100 83 100 100 100 98 90
1 2 2 2 2 2 2 2 3 3 3 3 2 2 3 3 3 2 2 3 3 4 5 9 15 20 100 100 100 100 100 100 100 100 100 100 100 100 100 100 100 100 100 100
2 2 2 2 2 2 4 5 4 4 3 3 4 3 4 4 3 4 4 4 4 6 8 14 20 72 100 100 100 100 100 100 100 100 100 100 100 100 96 91 100 100 100 99
3 2 2 2 4 5 6 6 6 5 5 5 4 4 4 4 4 5 6 5 6 6 14 16 50 100 100 100 100 100 100 100 100 100 100 100 100 100 100 100 100 100 100 98
3 2 2 3 5 8 7 8 12 9 6 6 6 6 6 6 7 8 8 9 10 13 15 20 100 100 100 100 100 100 100 100 100 100 100 100 100 100 100 100 100 100 100 97
3 3 3 4 6 8 6 17 22 15 10 8 9 8 10 11 11 12 13 13 14 16 21 70 100 100 100 100 100 100 100 100 100 100 100 100 100 100 100 100 100 100 100 100
3 4 5 6 6 7 16 23 26 23 12 10 16 13 17 16 17 18 16 17 21 21 80 100 100 100 100 100 100 100 100 100 100 100 100 100 100 100 100 100 100 100 100 100
4 4 4 6 5 6 16 25 34 29 22 15 14 19 23 22 23 24 23 34 58 99 100 100 100 100 100 100 100 100 100 100 100 100 100 100 100 100 100 100 100 100 100 100
4 5 4 7 7 7 14 26 45 44 40 26 14 25 29 39 36 37 75 100 100 100 100 100 100 100 100 100 100 100 100 100 100 100 100 100 100 100 100 100 100 100 100 100
12 6 6 6 6 9 13 19 41 59 60 38 30 16 28 65 100 100 100 100 100 100 100 100 100 100 100 100 100 100 100 100 100 100 100 100 100 93 100 100 100 100 100 100
20 17 10 7 6 6 11 15 21 42 61 50 58 48 23 60 100 100 100 100 100 100 100 100 100 100 100 100 100 100 100 100 100 100 98 100 100 99 95 98 88 100 100 100
21 21 23 20 15 11 11 13 15 38 74 64 57 55 56 31 100 100 100 100 100 100 100 100 100 100 100 100 100 100 100 100 100 100 100 100 100 100 100 99 100 100 99 100
27 22 23 23 21 20 17 16 32 26 18 38 66 56 40 46 41 90 100 100 100 100 100 100 100 100 100 100 100 100 100 100 100 100 100 86 100 98 100 100 100 99 100 100
39 37 32 26 24 24 25 26 32 35 29 23 20 17 24 27 33 48 44 87 100 100 100 100 100 100 100 100 100 100 100 100 100 100 100 100 100 100 100 100 100 99 78 76
56 54 47 42 39 38 34 33 31 31 29 31 33 29 23 18 13 14 29 35 76 93 100 100 100 100 100 100 100 100 100 100 96 94 91 100 99 100 100 100 98 98 100 99
72 70 68 59 53 53 49 43 42 35 34 32 29 29 28 28 27 28 26 15 19 68 100 100 100 100 100 100 88 91 94 90 90 91 89 100 100 90 88 99 92 91 99 94
62 72 75 80 80 58 56 50 48 45 43 42 36 35 34 33 35 36 35 31 23 18 15 31 60 74 82 94 99 100 100 100 100 100 100 100 100 100 100 100 100 98 87 100
53 60 69 77 76 78 79 66 53 53 57 58 62 58 41 42 39 36 38 40 38 38 34 28 19 14 15 17 20 28 37 45 41 50 61 70 77 73 77 86 98 100 100 100
56 58 57 59 68 75 72 83 86 78 65 69 61 56 58 53 52 51 34 28 30 32 30 39 45 47 47 39 29 21 16 14 13 13 19 23 24 25 28 37 50 70 87 97